[[{"header":{"parameterUnit":"m.s-1","parameterCategory":1,"la1":30.6,"la2":29.2853,"lo1":-89.7004,"lo2":-87.6739,"dy":0.0162,"dx":0.0183,"nx":112,"ny":82,"refTime":"2026-03-18T12:00:00:Z","depth":0,"parameterNumber":2,"parameterNumberName":"U-component_of_WINDS"},"data":[0.0,0.0,0.0,0.0,0.0,0.0,0.0,0.0,0.0,0.0,0.0,0.0,0.0,0.0,0.0,0.0,0.0,0.0,0.0,0.0,0.0,0.0,0.0,0.0,0.0,0.0,0.0,0.0,0.0,0.0,0.0,0.0,0.0,0.0,0.0,0.0,0.0,0.0,0.0,0.0,0.0,0.0,0.0,0.0,0.0,0.0,0.0,0.0,0.0,0.0,0.0,0.0,0.0,0.0,0.0,0.0,0.0,0.0,0.0,0.0,0.0,0.0,0.0,0.0,0.0,0.0,0.0,0.0,0.0,0.0,0.0,0.0,0.0,0.0,0.0,0.0,0.0,0.0,0.0,0.0,0.0,0.0,0.0,0.0,0.0,0.0,0.0,0.0,0.0,0.0,0.0,-0.4539,-0.491,-0.5173,-0.5173,-0.5091,-0.4865,-0.4395,0.0,0.0,0.0,0.0,0.0,0.0,0.0,0.0,0.0,0.0,0.0,0.0,0.0,0.0,0.0,0.0,0.0,0.0,0.0,0.0,0.0,0.0,0.0,0.0,0.0,0.0,0.0,0.0,0.0,0.0,0.0,0.0,0.0,0.0,0.0,0.0,0.0,0.0,0.0,0.0,0.0,0.0,0.0,0.0,0.0,0.0,0.0,0.0,0.0,0.0,0.0,0.0,0.0,0.0,0.0,0.0,0.0,0.0,0.0,0.0,0.0,0.0,0.0,0.0,0.0,0.0,0.0,0.0,0.0,0.0,0.0,0.0,0.0,0.0,0.0,0.0,0.0,0.0,0.0,0.0,0.0,0.0,0.0,0.0,0.0,0.0,0.0,0.0,0.0,0.0,0.0,0.0,0.0,0.0,0.0,0.0,0.0,0.0,0.0,0.0,0.0,0.0,0.0,0.0,-0.4012,-0.4401,-0.4487,-0.4522,-0.4522,-0.414,-0.3698,-0.337,0.0,0.0,0.0,0.0,0.0,0.0,0.0,0.0,0.0,0.0,0.0,0.0,0.0,0.0,0.0,0.0,0.0,0.0,0.0,0.0,0.0,0.0,0.0,0.0,0.0,0.0,0.0,0.0,0.0,0.0,0.0,0.0,0.0,0.0,0.0,0.0,0.0,0.0,0.0,0.0,0.0,0.0,0.0,0.0,0.0,0.0,0.0,0.0,0.0,0.0,0.0,0.0,0.0,0.0,0.0,0.0,0.0,0.0,0.0,0.0,0.0,0.0,0.0,0.0,0.0,0.0,0.0,0.0,0.0,0.0,0.0,0.0,0.0,0.0,0.0,0.0,0.0,0.0,0.0,0.0,0.0,0.0,0.0,0.0,0.0,0.0,0.0,0.0,0.0,0.0,0.0,0.0,0.0,0.0,0.0,0.0,0.0,0.0,0.0,0.0,0.0,0.0,0.0,-0.3418,-0.3559,-0.3931,-0.3965,-0.3965,-0.3965,-0.3751,-0.3449,-0.3141,-0.3348,0.0,0.0,0.0,0.0,0.0,0.0,0.0,0.0,0.0,0.0,0.0,0.0,0.0,0.0,0.0,0.0,0.0,0.0,0.0,0.0,0.0,0.0,0.0,0.0,0.0,0.0,0.0,0.0,0.0,0.0,0.0,0.0,0.0,0.0,0.0,0.0,0.0,0.0,0.0,0.0,0.0,0.0,0.0,0.0,0.0,0.0,0.0,0.0,0.0,0.0,0.0,0.0,0.0,0.0,0.0,0.0,0.0,0.0,0.0,0.0,0.0,0.0,0.0,0.0,0.0,0.0,0.0,0.0,0.0,0.0,0.0,0.0,0.0,0.0,0.0,0.0,0.0,0.0,0.0,0.0,0.0,0.0,0.0,0.0,0.0,0.0,0.0,0.0,0.0,0.0,0.0,0.0,0.0,0.0,0.0,0.0,0.0,0.0,0.0,0.0,0.0,0.0,-0.3216,-0.3317,-0.3554,-0.3581,-0.3581,-0.3581,-0.3591,-0.3412,-0.3137,-0.309,0.0,0.0,0.0,0.0,0.0,0.0,0.0,0.0,0.0,0.0,0.0,0.0,0.0,0.0,0.0,0.0,0.0,0.0,0.0,0.0,0.0,0.0,0.0,0.0,0.0,0.0,0.0,0.0,0.0,0.0,0.0,0.0,0.0,0.0,0.0,0.0,0.0,0.0,0.0,0.0,0.0,0.0,0.0,0.0,0.0,0.0,0.0,0.0,0.0,0.0,0.0,0.0,0.0,0.0,0.0,0.0,0.0,0.0,0.0,0.0,0.0,0.0,0.0,0.0,0.0,0.0,0.0,0.0,0.0,0.0,0.0,0.0,0.0,0.0,0.0,0.0,0.0,0.0,0.0,0.0,0.0,0.0,0.0,0.0,0.0,0.0,0.0,0.0,0.0,0.0,0.0,0.0,0.0,0.0,0.0,0.0,0.0,0.0,0.0,0.0,0.0,0.0,-0.3378,-0.3554,-0.3578,-0.3581,-0.3581,-0.3581,-0.3492,-0.3337,-0.313,-0.3035,0.0,0.0,0.0,0.0,0.0,0.0,0.0,0.0,0.0,0.0,0.0,0.0,0.0,0.0,0.0,0.0,0.0,0.0,0.0,0.0,0.0,0.0,0.0,0.0,0.0,0.0,0.0,0.0,0.0,0.0,0.0,0.0,0.0,0.0,0.0,0.0,0.0,0.0,0.0,0.0,0.0,0.0,0.0,0.0,0.0,0.0,0.0,0.0,0.0,0.0,0.0,0.0,0.0,0.0,0.0,0.0,0.0,0.0,0.0,0.0,0.0,0.0,0.0,0.0,0.0,0.0,0.0,0.0,0.0,0.0,0.0,0.0,0.0,0.0,0.0,0.0,0.0,0.0,0.0,0.0,0.0,0.0,0.0,0.0,0.0,0.0,0.0,0.0,0.0,0.0,0.0,0.0,0.0,0.0,0.0,0.0,0.0,0.0,0.0,0.0,0.0,0.0,-0.3269,-0.348,0.0,-0.3588,-0.3592,-0.3592,-0.3537,-0.3402,-0.3118,0.0,0.0,0.0,0.0,0.0,0.0,0.0,0.0,0.0,0.0,0.0,0.0,0.0,0.0,0.0,0.0,0.0,0.0,0.0,0.0,0.0,0.0,0.0,0.0,0.0,0.0,0.0,0.0,0.0,0.0,0.0,0.0,0.0,0.0,0.0,0.0,0.0,0.0,0.0,0.0,0.0,0.0,0.0,0.0,0.0,0.0,0.0,0.0,0.0,0.0,0.0,0.0,0.0,0.0,0.0,0.0,0.0,0.0,0.0,0.0,0.0,0.0,0.0,0.0,0.0,0.0,0.0,0.0,0.0,0.0,0.0,0.0,0.0,0.0,0.0,0.0,0.0,0.0,0.0,0.0,0.0,0.0,0.0,0.0,0.0,0.0,0.0,0.0,0.0,0.0,0.0,0.0,0.0,0.0,0.0,0.0,0.0,0.0,0.0,0.0,0.0,0.0,-0.3055,-0.3266,-0.3301,0.0,-0.3043,-0.3049,-0.3049,-0.302,-0.2941,-0.2685,0.0,0.0,0.0,0.0,0.0,0.0,0.0,0.0,0.0,0.0,0.0,0.0,0.0,0.0,0.0,0.0,0.0,0.0,0.0,0.0,0.0,0.0,0.0,0.0,0.0,0.0,0.0,0.0,0.0,0.0,0.0,0.0,0.0,0.0,0.0,0.0,0.0,0.0,0.0,0.0,0.0,0.0,0.0,0.0,0.0,0.0,0.0,0.0,0.0,0.0,0.0,0.0,0.0,0.0,0.0,0.0,0.0,0.0,0.0,0.0,0.0,0.0,0.0,0.0,0.0,0.0,0.0,0.0,0.0,0.0,0.0,0.0,0.0,0.0,0.0,0.0,0.0,0.0,0.0,0.0,0.0,0.0,0.0,0.0,0.0,0.0,0.0,0.0,0.0,0.0,0.0,0.0,0.0,0.0,0.0,0.0,0.0,0.0,0.0,0.0,0.0,0.0,-0.2959,-0.3363,-0.3141,-0.1964,-0.1786,-0.1784,-0.1784,-0.1775,-0.1765,0.0,0.0,0.0,0.0,0.0,0.0,0.0,0.0,0.0,0.0,0.0,0.0,0.0,0.0,0.0,0.0,0.0,0.0,0.0,0.0,0.0,0.0,0.0,0.0,0.0,0.0,0.0,0.0,0.0,0.0,0.0,0.0,0.0,0.0,0.0,0.0,0.0,0.0,0.0,0.0,0.0,0.0,0.0,0.0,0.0,0.0,0.0,0.0,0.0,0.0,0.0,0.0,0.0,0.0,0.0,0.0,0.0,0.0,0.0,0.0,0.0,0.0,0.0,0.0,0.0,0.0,0.0,0.0,0.0,0.0,0.0,0.0,0.0,0.0,0.0,0.0,0.0,0.0,0.0,0.0,0.0,0.0,0.0,0.0,0.0,0.0,0.0,0.0,0.0,0.0,0.0,0.0,0.0,0.0,0.0,0.0,0.0,0.0,0.0,0.0,0.0,0.0,0.0,-0.1858,-0.2853,-0.3471,-0.3105,-0.1524,-0.0538,-0.0538,-0.0511,-0.0528,-0.0551,0.0,0.0,0.0,0.0,0.0,0.0,0.0,0.0,0.0,0.0,0.0,0.0,0.0,0.0,0.0,0.0,0.0,0.0,0.0,0.0,0.0,0.0,0.0,0.0,0.0,0.0,0.0,0.0,0.0,0.0,0.0,0.0,0.0,0.0,0.0,0.0,0.0,0.0,0.0,0.0,0.0,0.0,0.0,0.0,0.0,0.0,0.0,0.0,0.0,0.0,0.0,0.0,0.0,0.0,0.0,0.0,0.0,0.0,0.0,0.0,0.0,0.0,0.0,0.0,0.0,0.0,0.0,0.0,0.0,0.0,0.0,0.0,0.0,0.0,0.0,0.0,0.0,0.0,0.0,0.0,0.0,0.0,0.0,0.0,0.0,0.0,0.0,0.0,0.0,0.0,0.0,0.0,0.0,0.0,0.0,0.0,0.0,0.0,0.0,0.0,0.0,0.0,-0.1858,-0.2044,-0.2158,-0.2158,-0.0854,-0.0,-0.0,-0.0,-0.0,-0.0,0.0,0.0,0.0,0.0,0.0,0.0,0.0,0.0,0.0,0.0,0.0,0.0,0.0,0.0,0.0,0.0,0.0,0.0,0.0,0.0,0.0,0.0,0.0,0.0,0.0,0.0,0.0,0.0,0.0,0.0,0.0,0.0,0.0,0.0,0.0,0.0,0.0,0.0,0.0,0.0,0.0,0.0,0.0,0.0,0.0,0.0,0.0,0.0,0.0,0.0,0.0,0.0,0.0,0.0,0.0,0.0,0.0,0.0,0.0,0.0,0.0,0.0,0.0,0.0,0.0,0.0,0.0,0.0,0.0,0.0,0.0,0.0,0.0,0.0,0.0,0.0,0.0,0.0,0.0,0.0,0.0,0.0,0.0,0.0,0.0,0.0,0.0,0.0,0.0,0.0,0.0,0.0,0.0,0.0,0.0,0.0,0.0,0.0,0.0,0.0,0.0,0.0,-0.2369,-0.1021,-0.0,-0.0,-0.0,-0.0,-0.0,-0.0,-0.0,-0.0,0.0,0.0,0.0,0.0,0.0,0.0,0.0,0.0,0.0,0.0,0.0,0.0,0.0,0.0,0.0,0.0,0.0,0.0,0.0,0.0,0.0,0.0,0.0,0.0,0.0,0.0,0.0,0.0,0.0,0.0,0.0,0.0,0.0,0.0,0.0,0.0,0.0,0.0,0.0,0.0,0.0,0.0,0.0,0.0,0.0,0.0,0.0,0.0,0.0,0.0,0.0,0.0,0.0,0.0,0.0,0.0,0.0,0.0,0.0,0.0,-0.3349,0.0,0.0,0.0,0.0,0.0,0.0,0.0,0.0,0.0,0.0,0.0,0.0,0.0,0.0,0.0,0.0,0.0,0.0,0.0,0.0,0.0,0.0,0.0,0.0,0.0,0.0,0.0,0.0,0.0,0.0,0.0,0.0,0.0,0.0,0.0,0.0,0.0,0.0,0.0,0.0,0.0,-0.0545,-0.0255,-0.0,-0.0,-0.0,-0.0,-0.0,-0.0,-0.0,-0.0,0.1346,0.0,0.0,0.0,0.0,0.0,0.0,0.0,0.0,0.0,0.0,0.0,0.0,0.0,0.0,0.0,0.0,0.0,0.0,0.0,0.0,0.0,0.0,0.0,0.0,0.0,0.0,0.0,0.0,0.0,0.0,0.0,0.0,0.0,0.0,0.0,0.0,0.0,0.0,0.0,0.0,0.0,0.0,0.0,0.0,0.0,0.0,0.0,0.0,0.0,0.0,0.0,0.0,0.0,0.0,0.0,0.0,0.0,0.0,0.0,0.0,-0.3341,0.0,0.0,0.0,0.0,0.0,0.0,0.0,0.0,0.0,0.0,0.0,0.0,0.0,0.0,0.0,0.0,0.0,0.0,0.0,0.0,0.0,0.0,0.0,0.0,0.0,0.0,0.0,0.0,0.0,0.0,0.0,0.0,0.0,0.0,0.0,0.0,0.0,0.0,0.0,0.0,-0.0,-0.0,0.0555,0.1992,0.19,0.148,0.0923,0.0843,0.0849,0.0852,0.1592,0.0,0.0,0.0,0.0,0.0,0.0,0.0,0.0,0.0,0.0,0.0,0.0,0.0,0.0,0.0,0.0,0.0,0.0,0.0,0.0,0.0,0.0,0.0,0.0,0.0,0.0,0.0,0.0,0.0,0.0,0.0,0.0,0.0,0.0,0.0,0.0,0.0,0.0,0.0,0.0,0.0,0.0,0.0,0.0,0.0,0.0,0.0,0.0,0.0,0.0,0.0,0.0,0.0,-0.3829,-0.3897,-0.3877,-0.4026,-0.4097,-0.4083,-0.3839,-0.3704,-0.3646,-0.3474,0.0,0.0,0.0,0.0,0.0,0.0,0.0,0.0,0.0,0.0,0.0,0.0,0.0,0.0,0.0,0.0,0.0,0.0,0.0,0.0,0.0,0.0,0.0,0.0,-0.178,-0.226,-0.2431,0.0,0.0,0.0,0.0,0.0,0.0,0.0,0.0,0.0,0.0,0.0,0.0758,0.0547,0.1339,0.3829,0.3856,0.3251,0.2186,0.2106,0.2105,0.2099,0.1831,0.1963,0.0,0.0,0.0,0.0,0.0,0.0,0.0,0.0,0.0,0.0,0.0,0.0,0.0,0.0,0.0,0.0,0.0,0.0,0.0,0.0,0.0,0.0,0.0,0.0,0.0,0.0,0.0,0.0,0.0,0.0,0.0,0.0,-0.3019,-0.2744,0.0,0.0,0.0,0.0,0.0,0.0,0.0,0.0,0.0,0.0,0.0,0.0,0.0,-0.3734,-0.3734,-0.3969,-0.4043,-0.3965,-0.4243,-0.4307,-0.414,-0.4338,-0.4457,-0.4457,-0.4419,0.0,-0.3961,-0.3941,0.0,0.0,0.0,0.0,0.0,0.0,0.0,0.0,0.0,0.0,0.0,0.0,0.0,0.0,0.0,0.0,0.0,0.0,0.0,0.0,0.0,0.0,-0.0493,-0.113,-0.0838,-0.0586,0.0,-0.1488,-0.1733,-0.2546,-0.2684,0.0,0.0,0.0,0.0,0.0,0.0,0.0,0.3822,0.2738,0.2071,0.2442,0.3363,0.3778,0.339,0.3358,0.3353,0.3378,0.3162,0.2942,0.2723,0.2478,0.0,0.0,0.0,0.0,0.0,0.0,0.0,0.0,0.0,0.0,0.0,0.0,0.0,0.0,0.0,0.0,0.0,0.0,0.0,0.0,0.0,0.0,0.0,0.0,0.0,0.0,0.0,0.0,0.0,-0.3594,-0.3568,-0.2902,-0.3159,-0.3257,0.0,0.0,0.0,0.0,0.0,0.0,0.0,0.0,0.0,-0.3598,-0.389,-0.4046,-0.4046,-0.4263,-0.4334,-0.427,-0.4406,-0.444,-0.4379,-0.445,-0.448,-0.448,-0.448,-0.4409,-0.428,-0.4137,-0.3973,-0.3788,0.0,0.0,0.0,0.0,-0.2897,-0.2345,-0.2346,-0.2452,-0.261,-0.2742,0.0,0.0,0.0,0.0,0.0,0.0,0.0,0.0,0.0,0.0,-0.0101,-0.0456,-0.0253,-0.0101,-0.0494,-0.0567,-0.0708,0.0,-0.117,-0.0937,-0.0138,0.0,0.0,0.0,0.0,0.3156,0.4117,0.3784,0.3473,0.3471,0.385,0.407,0.3959,0.3795,0.3725,0.3701,0.3449,0.3215,0.305,0.294,0.2612,0.0,0.0,0.0,0.0,0.0,0.0,0.0,0.0,0.0,0.0,0.0,0.0,0.0,0.0,0.0,0.0,0.0,0.0,0.0,0.0,0.0,0.0,0.0,0.0,0.0,0.0,0.0,0.0,-0.3916,-0.4047,-0.3302,-0.3578,-0.3679,0.0,0.0,0.0,0.0,0.0,0.0,-0.3629,-0.3809,-0.391,-0.391,-0.4165,-0.4304,-0.4304,-0.4409,-0.4519,-0.4522,-0.4477,-0.4271,-0.3907,-0.3937,-0.3887,-0.3916,-0.394,-0.3925,-0.3916,-0.4196,-0.4174,-0.3999,-0.3631,-0.3355,-0.3184,-0.3479,-0.3024,-0.2157,-0.1544,-0.1338,-0.1377,-0.1562,-0.1636,-0.1548,-0.1095,0.0,0.0,0.0,0.0,-0.0,-0.0,-0.0,-0.0,-0.0,-0.0,0.0207,0.0985,0.1132,0.1144,0.0,0.114,0.1023,0.0636,0.0,0.0,0.0,0.0,0.3045,0.4013,0.4303,0.4435,0.452,0.4333,0.4204,0.4197,0.4005,0.3832,0.3792,0.3585,0.3386,0.3313,0.3165,0.2987,0.2798,0.0,0.0,0.0,0.0,0.0,0.0,0.0,0.0,0.0,0.0,0.0,0.0,0.0,0.0,0.0,0.0,0.0,0.0,0.0,0.0,0.0,0.0,0.0,0.0,0.0,0.0,0.0,0.0,0.0,-0.4139,-0.3932,0.0,0.0,0.0,0.0,-0.3568,-0.3693,-0.3771,-0.3782,-0.4013,-0.4174,-0.4174,-0.4372,-0.4508,-0.4508,-0.4515,-0.4522,-0.448,-0.448,-0.375,-0.2335,-0.232,-0.2327,-0.2335,-0.2319,-0.2343,-0.2456,-0.386,-0.4457,-0.4326,-0.2867,-0.2129,-0.2022,-0.3161,-0.3582,-0.3164,-0.0885,-0.011,-0.0107,-0.011,-0.0107,-0.0102,-0.0052,-0.0101,0.0,0.0,-0.0053,-0.0,-0.0,-0.0,-0.0,-0.0,-0.0,0.0781,0.3638,0.4263,0.4282,0.0,0.4274,0.3812,0.2352,0.0,0.2663,0.3828,0.4091,0.4204,0.4417,0.4302,0.43,0.4491,0.4331,0.4197,0.4197,0.405,0.3944,0.3799,0.3778,0.3643,0.3406,0.3344,0.3222,0.31,0.2822,0.0,0.0,0.0,0.0,0.0,0.0,0.0,0.0,0.0,0.0,0.0,0.0,0.0,0.0,0.0,0.0,0.0,0.0,0.0,0.0,0.0,0.0,0.0,0.0,0.0,0.0,0.0,0.0,-0.3842,-0.3897,0.0,-0.3996,-0.3896,-0.3904,-0.4002,-0.4006,-0.4124,-0.4219,-0.4324,-0.4385,-0.4385,-0.4491,-0.4567,-0.4609,-0.4555,-0.4551,-0.4713,-0.4545,-0.4213,-0.3585,-0.1678,-0.0779,-0.0848,-0.1799,-0.2183,-0.2257,-0.2783,-0.3589,-0.4433,-0.3871,-0.246,-0.0703,-0.1151,-0.1268,-0.1159,-0.0279,-0.0,-0.0,-0.0,-0.0,-0.0,-0.0,-0.0,-0.0,-0.0,-0.0,-0.0,-0.0,0.1457,0.2921,0.2921,0.2127,0.1732,0.2796,0.3779,0.4515,0.4509,0.4514,0.4304,0.3795,0.3563,0.3701,0.4259,0.4243,0.4268,0.4473,0.444,0.4406,0.4512,0.4416,0.4385,0.4385,0.425,0.405,0.3948,0.3846,0.3704,0.355,0.35,0.3425,0.3229,0.3164,0.298,0.0,0.0,0.0,0.0,0.0,0.0,0.0,0.0,0.0,0.0,0.0,0.0,0.0,0.0,0.0,0.0,0.0,0.0,0.0,0.0,0.0,0.0,0.0,0.0,0.0,0.0,-0.4205,-0.4042,-0.4136,-0.4209,-0.4244,-0.4181,-0.4209,-0.4314,-0.4321,-0.4362,-0.4512,-0.4519,-0.4519,-0.4519,-0.457,-0.4589,-0.4691,-0.4634,-0.4348,-0.3941,-0.4332,-0.3988,-0.2886,-0.093,-0.0,-0.0063,-0.1055,-0.1466,-0.1438,-0.1438,-0.2071,-0.2956,-0.3004,-0.1738,-0.0,-0.0,-0.0,-0.0,-0.0,-0.0,-0.0,-0.0,-0.0,-0.0,-0.0,-0.0,0.0224,0.1233,0.1514,0.1401,0.0896,0.224,0.3878,0.4392,0.3702,0.2961,0.2959,0.3805,0.4487,0.4477,0.4488,0.4485,0.4476,0.4383,0.434,0.4499,0.4369,0.4355,0.4505,0.4519,0.4519,0.4519,0.4519,0.4519,0.4519,0.4331,0.4234,0.4275,0.416,0.4046,0.3888,0.388,0.3745,0.3386,0.3327,0.3103,0.2757,0.0,0.0,0.0,0.0,0.0,0.0,0.0,0.0,0.0,0.0,0.0,0.0,0.0,0.0,0.0,0.0,0.0,0.0,0.0,0.0,0.0,0.0,0.0,-0.4156,-0.4302,-0.4526,-0.4845,-0.4654,-0.4674,-0.5036,-0.475,-0.4519,-0.4519,-0.4519,-0.4519,-0.4519,-0.4519,-0.4519,-0.4525,-0.4613,-0.4697,-0.4704,-0.4743,-0.3947,-0.2342,-0.3719,-0.2833,-0.0,-0.0,-0.0,-0.0,-0.0,-0.0,-0.0,-0.0,-0.0,-0.0,-0.0,-0.0,-0.0,-0.0,-0.0,-0.0,-0.0,-0.0,-0.0,-0.0,-0.0,-0.0,-0.0,0.0056,0.0728,0.3658,0.4514,0.4166,0.2683,0.2287,0.2625,0.4154,0.4497,0.4494,0.448,0.448,0.4477,0.4519,0.4525,0.4477,0.4519,0.4519,0.4519,0.4519,0.4519,0.0,0.4519,0.4519,0.4519,0.4519,0.4519,0.4519,0.4519,0.4334,0.4392,0.482,0.4737,0.4596,0.4399,0.4395,0.4188,0.3629,0.3283,0.3056,0.2917,0.0,0.0,0.0,0.0,0.0,0.0,0.0,0.0,0.0,0.0,0.0,0.0,0.0,0.0,0.0,0.0,0.0,0.0,0.0,0.0,0.0,0.0,-0.4129,-0.4176,-0.4223,-0.4291,-0.4385,-0.4456,-0.4556,-0.4671,-0.4546,-0.4519,-0.4519,-0.4519,-0.4519,-0.4519,-0.4519,-0.457,-0.4623,-0.4558,-0.4684,-0.4957,-0.4706,-0.4589,-0.4483,-0.2303,-0.0793,-0.0,-0.0,-0.0,-0.0,-0.0,-0.0,-0.0,-0.0,-0.0,-0.0,-0.0,-0.0,-0.0,-0.0,-0.0,-0.0,-0.0,-0.0,-0.0,-0.0,-0.0,-0.0,-0.0,0.1514,0.3429,0.4284,0.4507,0.4386,0.3981,0.3863,0.3971,0.4425,0.4477,0.4525,0.4522,0.4522,0.4522,0.4519,0.4519,0.4522,0.4519,0.4519,0.4519,0.4519,0.4519,0.0,0.4519,0.4519,0.4519,0.4519,0.4519,0.4519,0.4519,0.4426,0.4347,0.4236,0.4224,0.408,0.3851,0.4435,0.4683,0.455,0.369,0.3172,0.0,0.0,0.0,0.0,0.0,0.0,0.0,0.0,0.0,0.0,0.0,0.0,0.0,0.0,0.0,0.0,0.0,0.0,0.0,0.0,0.0,0.0,-0.4351,-0.4186,-0.4186,-0.4181,-0.4217,-0.4331,-0.4412,-0.4519,-0.4519,-0.4519,-0.4519,-0.4519,-0.4519,-0.4519,-0.4519,-0.458,-0.4599,-0.4636,-0.47,-0.4473,-0.3918,-0.4514,-0.5061,-0.5346,-0.1751,-0.0,-0.0,-0.0,-0.0,-0.0,-0.0,-0.0,-0.0,-0.0,-0.0,0.0,0.0,0.0,0.0,0.0,-0.0,-0.0,-0.0,-0.0,-0.0,-0.0,-0.0,-0.0,-0.0,0.2281,0.4814,0.4562,0.4535,0.4625,0.4501,0.4477,0.4473,0.4473,0.4522,0.4519,0.4519,0.4519,0.4519,0.4519,0.4519,0.0,0.4519,0.4519,0.4519,0.4519,0.4519,0.4519,0.4519,0.4519,0.4519,0.4519,0.4519,0.4519,0.4519,0.4406,0.0,0.0,0.0,0.4222,0.4081,0.4365,0.0,0.0,0.0,0.0,0.0,0.0,0.0,0.0,0.3245,0.306,0.0,0.0,0.0,0.0,0.0,0.0,0.0,0.0,0.0,0.0,0.0,0.0,0.0,0.0,0.0,0.0,-0.4311,-0.42,-0.4217,-0.422,-0.4321,-0.4501,-0.4519,-0.4519,-0.4519,-0.4519,-0.4519,-0.4519,-0.4519,-0.4525,-0.4543,0.0,0.0,0.0,0.0,-0.399,-0.2259,-0.3924,-0.4797,-0.473,-0.1549,-0.0,-0.0,-0.0,-0.0,-0.0,-0.0,-0.0,-0.0,-0.0,-0.0,-0.0,-0.0,-0.0,-0.0,-0.0,-0.0,-0.0,-0.0,0.0,0.0,-0.0,-0.0,0.0062,0.0494,0.272,0.5003,0.4667,0.4669,0.4731,0.458,0.4529,0.4519,0.4519,0.4519,0.4519,0.4519,0.4519,0.4519,0.4519,0.4519,0.4519,0.4519,0.4519,0.4519,0.4519,0.4519,0.4519,0.4519,0.4519,0.4519,0.4519,0.0,0.0,0.4625,0.4506,0.4677,0.5215,0.4942,0.476,0.4785,0.4297,0.4029,0.4143,0.4029,0.4019,0.4019,0.4019,0.4029,0.4033,0.358,0.3535,0.0,0.0,0.0,0.0,0.0,0.0,0.0,0.0,0.0,0.0,0.0,0.0,0.0,0.0,0.0,-0.4618,-0.4379,-0.4237,-0.4406,-0.4423,-0.4433,-0.4515,-0.4519,-0.4519,-0.4519,-0.4519,-0.4519,-0.4519,-0.4519,-0.4573,-0.464,-0.4674,-0.4802,-0.4977,-0.3509,-0.2727,-0.2589,-0.1542,-0.1078,-0.101,0.0,0.0,-0.0,-0.0,-0.0,-0.0,-0.0,-0.0,-0.0,-0.0,-0.0,-0.0,-0.0,-0.0,-0.0,-0.0,-0.0,-0.0,-0.0,-0.0,-0.0,-0.0,-0.0,0.0556,0.3468,0.3835,0.0,0.4658,0.4858,0.4687,0.4657,0.4555,0.4519,0.4519,0.4519,0.4519,0.4519,0.4519,0.4519,0.4519,0.4519,0.4519,0.4519,0.4519,0.4519,0.4519,0.4519,0.4519,0.4519,0.4519,0.4519,0.4519,0.5003,0.5328,0.5328,0.5842,0.613,0.6159,0.5462,0.5059,0.5166,0.4415,0.4325,0.5019,0.4383,0.4019,0.4019,0.4019,0.4033,0.4147,0.3961,0.3894,0.0,0.0,0.0,0.0,0.0,0.0,0.0,0.0,0.0,0.0,0.0,-0.4661,0.0,0.0,-0.4711,-0.4625,-0.446,-0.4379,-0.4508,-0.4519,-0.4519,-0.4519,-0.4519,-0.4519,-0.4519,-0.4519,-0.4549,-0.4572,-0.4575,-0.4643,-0.4796,-0.487,-0.4924,-0.5021,-0.4246,-0.3045,-0.1343,-0.0471,-0.0,-0.0,-0.0,-0.0,-0.0,-0.0,-0.0,-0.0,-0.0,-0.0,-0.0,-0.0,-0.0,-0.0,-0.0,-0.0,-0.0,-0.0,-0.0,-0.0,-0.0,0.1201,0.2704,0.2704,0.2086,0.1672,0.348,0.406,0.4168,0.4872,0.4979,0.4877,0.4728,0.4633,0.4558,0.4536,0.4519,0.4519,0.4519,0.4519,0.4519,0.4519,0.4519,0.4519,0.4519,0.4519,0.4519,0.4519,0.4519,0.4625,0.4948,0.5003,0.5167,0.55,0.5878,0.6036,0.6036,0.6367,0.6546,0.6422,0.6047,0.569,0.5332,0.4964,0.4797,0.4881,0.4488,0.4239,0.4239,0.4239,0.428,0.4355,0.4277,0.4239,0.0,0.0,0.0,0.0,0.0,0.0,0.0,0.0,-0.4952,-0.5045,-0.4971,-0.4839,-0.4652,-0.4793,-0.49,-0.4553,-0.4519,-0.4519,-0.4519,-0.4519,-0.4519,-0.4519,-0.4519,-0.4519,-0.4519,-0.4519,-0.458,-0.4677,-0.4691,-0.4769,-0.4955,-0.507,-0.5095,-0.5022,-0.5269,-0.3974,-0.1078,-0.0337,-0.0,-0.0,-0.0,-0.0,-0.0,-0.0,-0.0,-0.0,-0.0,-0.0,-0.0,-0.0,-0.0,-0.0,-0.0,0.0404,0.0943,0.027,-0.0,0.0067,0.0808,0.2965,0.5413,0.541,0.4442,0.3215,0.3213,0.4225,0.5352,0.5223,0.5159,0.5077,0.484,0.4731,0.466,0.4591,0.4539,0.4519,0.4519,0.4519,0.4519,0.4519,0.4519,0.4519,0.4519,0.4519,0.4519,0.4519,0.4625,0.4893,0.5433,0.5651,0.5928,0.6534,0.675,0.6858,0.702,0.702,0.694,0.6696,0.6754,0.6348,0.5387,0.5466,0.5164,0.4519,0.4519,0.4519,0.4519,0.4519,0.4519,0.4519,0.4519,0.4519,-0.658,-0.6344,0.0,-0.6062,-0.6068,-0.614,0.0,0.0,-0.5062,-0.4948,-0.4599,-0.4285,-0.4264,-0.4445,-0.4553,-0.4515,-0.4519,-0.4519,-0.4519,-0.4519,-0.4519,-0.4519,-0.4519,-0.4519,-0.4519,-0.4519,-0.458,-0.4677,-0.4691,-0.4816,-0.5044,-0.5075,-0.5148,-0.5365,-0.5396,-0.5205,-0.4797,-0.1616,-0.0,-0.0,-0.0,-0.0,-0.0,-0.0,-0.0,-0.0,-0.0,-0.0,-0.0,-0.0,-0.0,-0.0,-0.0,0.1954,0.4389,0.1212,-0.0,0.0472,0.3708,0.5071,0.541,0.5399,0.5259,0.5119,0.5109,0.5243,0.5372,0.5345,0.5237,0.5125,0.5091,0.4887,0.4687,0.467,0.4562,0.4519,0.4519,0.4519,0.4519,0.4519,0.4519,0.4519,0.4519,0.4519,0.4519,0.4519,0.5003,0.5433,0.5487,0.6091,0.6534,0.6588,0.7182,0.783,0.848,0.854,0.8249,0.757,0.7545,0.6945,0.5512,0.5475,0.5164,0.4519,0.4519,0.4519,0.4519,0.4519,0.4519,0.4519,0.4519,0.4519,-0.7181,0.0,0.0,0.0,-0.6495,-0.6325,-0.6383,-0.5667,-0.4987,-0.5006,-0.4558,-0.422,-0.4358,-0.4423,-0.4519,0.0,-0.4519,-0.4519,-0.4519,-0.4519,-0.4519,-0.4519,-0.4519,-0.4519,-0.4519,-0.4545,-0.466,-0.4813,-0.4908,-0.505,-0.527,-0.4281,-0.4246,-0.5336,-0.541,-0.4389,-0.229,-0.0741,-0.0,-0.0,-0.0,-0.0,-0.0,-0.0,-0.0,-0.0,-0.0,-0.0,-0.0,-0.0,-0.0,0.0202,0.229,0.4048,0.5209,0.3708,0.2488,0.1812,0.3291,0.4509,0.5393,0.5386,0.5382,0.5376,0.5369,0.5369,0.5369,0.5428,0.5315,0.5243,0.5152,0.504,0.4925,0.4843,0.4707,0.4596,0.4596,0.458,0.4519,0.4519,0.4519,0.4519,0.4519,0.4519,0.4625,0.5003,0.5324,0.5814,0.6681,0.7069,0.7396,0.783,0.8156,0.848,0.8752,0.8804,0.8646,0.8374,0.8321,0.7883,0.6848,0.6794,0.6249,0.5109,0.5058,0.4893,0.4519,0.4519,0.4519,0.4519,0.4519,0.4519,-0.7428,0.0,0.0,-0.6877,-0.6684,-0.6435,-0.6128,-0.5459,-0.4926,-0.4947,-0.4566,-0.4338,-0.4498,-0.4519,0.0,-0.4519,-0.4519,-0.4519,-0.4519,-0.4519,-0.4519,-0.4519,-0.4519,-0.4519,-0.4519,-0.4562,-0.4707,-0.4904,-0.4961,-0.4913,-0.4688,-0.3892,-0.3563,-0.3912,-0.3914,-0.2627,-0.0,-0.0,-0.0,-0.0,-0.0,-0.0,-0.0,-0.0,-0.0,-0.0,-0.0,-0.0,-0.0,-0.0,0.0606,0.1752,0.4389,0.541,0.5403,0.5403,0.4579,0.342,0.3418,0.4292,0.5379,0.5376,0.5369,0.5428,0.5428,0.5428,0.5428,0.5428,0.5428,0.5335,0.5223,0.5162,0.5104,0.5003,0.4863,0.4755,0.4755,0.4667,0.4589,0.4589,0.4555,0.458,0.458,0.4653,0.5003,0.5706,0.5977,0.6519,0.7557,0.7883,0.8209,0.8752,0.8804,0.8804,0.8804,0.8804,0.8804,0.8804,0.8804,0.848,0.7723,0.7723,0.7015,0.5538,0.5487,0.5164,0.4519,0.4519,0.4519,0.4519,0.4519,0.4519,0.0,0.0,-0.7314,-0.6582,-0.6585,-0.6493,-0.5408,-0.5099,-0.5004,-0.4587,-0.4512,-0.4512,-0.4519,-0.4519,-0.4519,-0.4519,-0.4519,-0.4519,-0.4519,-0.4519,-0.4519,-0.4519,-0.4519,-0.4519,0.0,-0.4522,-0.4596,-0.4897,-0.487,-0.4239,-0.2871,-0.4378,-0.3708,-0.027,-0.0135,-0.0135,-0.0,-0.0,-0.0,-0.0,-0.0,-0.0,-0.0,-0.0,-0.0,-0.0,-0.0,-0.0,-0.0,-0.0,0.2088,0.5276,0.5346,0.5399,0.5379,0.5379,0.5386,0.5326,0.5316,0.5376,0.5376,0.5432,0.5428,0.5428,0.5428,0.5428,0.5428,0.5428,0.5428,0.5425,0.5422,0.5243,0.5128,0.5125,0.5016,0.4911,0.4911,0.4908,0.4904,0.4904,0.4785,0.4684,0.4684,0.5113,0.5706,0.648,0.7182,0.767,0.767,0.8321,0.8752,0.8804,0.8804,0.8804,0.8804,0.8804,0.8804,0.8804,0.8804,0.848,0.7723,0.7723,0.7015,0.5538,0.5487,0.5164,0.4519,0.4519,0.4519,0.4519,0.4519,0.4519,0.0,0.0,-0.7628,-0.7133,-0.6679,-0.6238,-0.5509,-0.5027,-0.4671,-0.4505,-0.4519,-0.4519,-0.4519,-0.4519,-0.4519,-0.4519,-0.4519,-0.4519,-0.4519,-0.4519,-0.4519,-0.4519,-0.4519,0.0,0.0,0.0,0.0,-0.4904,-0.5095,-0.4464,-0.2806,-0.215,-0.128,-0.0067,-0.0,-0.0,-0.0,-0.0,-0.0,-0.0,-0.0,-0.0,-0.0,-0.0,-0.0,-0.0,-0.0,-0.0,-0.0,-0.0,0.2155,0.5413,0.5403,0.5393,0.5376,0.5369,0.5369,0.5372,0.5369,0.5432,0.5432,0.5428,0.5428,0.5428,0.5428,0.5428,0.5428,0.5428,0.5428,0.5428,0.5428,0.5321,0.5284,0.5284,0.5169,0.506,0.506,0.4986,0.4918,0.4918,0.4877,0.4988,0.5335,0.5608,0.6081,0.7149,0.7943,0.8427,0.8427,0.8646,0.8804,0.8804,0.8804,0.8804,0.8804,0.8804,0.8804,0.8804,0.8804,0.8699,0.8427,0.8427,0.799,0.6956,0.6956,0.6583,0.5882,0.5386,0.5164,0.5164,0.4736,0.4519,0.0,-0.7856,-0.7911,-0.7206,-0.6686,-0.6139,-0.5299,-0.4787,-0.4519,-0.4519,-0.4423,-0.4402,-0.4508,-0.4423,-0.4402,-0.4508,-0.4519,-0.4519,-0.4519,-0.4519,-0.4519,-0.4519,-0.4519,0.0,0.0,0.0,0.0,-0.4833,-0.5068,-0.4772,-0.3704,-0.1338,-0.0,-0.0,-0.0,-0.0,-0.0,-0.0,-0.0,-0.0,-0.0,-0.0,-0.0,-0.0,-0.0,0.0067,0.1347,0.1954,0.1885,0.121,0.269,0.5399,0.5393,0.5382,0.5379,0.5426,0.541,0.5428,0.5428,0.5428,0.5428,0.5428,0.5428,0.5428,0.5428,0.5428,0.5428,0.5428,0.5428,0.5428,0.5428,0.5428,0.5428,0.5428,0.5284,0.5213,0.5213,0.5142,0.5077,0.5077,0.5033,0.5085,0.5456,0.5914,0.6633,0.8045,0.8545,0.8804,0.8804,0.8804,0.8804,0.8804,0.8804,0.8804,0.8804,0.8804,0.8804,0.8804,0.8804,0.8804,0.8804,0.8804,0.848,0.7723,0.7723,0.7343,0.6588,0.5869,0.5487,0.5487,0.4849,0.4545,-0.7869,-0.817,-0.8146,-0.6913,-0.6588,-0.6209,-0.4846,-0.4512,-0.4508,-0.4508,-0.4338,-0.4227,0.0,0.0,-0.4241,-0.4429,-0.4512,-0.4519,-0.4519,-0.4519,-0.4519,0.0,0.0,0.0,0.0,0.0,0.0,-0.4769,0.0,-0.503,-0.5403,-0.1993,-0.0,-0.0,-0.0,-0.0,-0.0,-0.0,-0.0,-0.0,-0.0,-0.0,-0.0,-0.0,0.0069,0.0472,0.3914,0.5413,0.5272,0.3563,0.3897,0.5393,0.5399,0.5396,0.547,0.5549,0.5504,0.5439,0.5439,0.5435,0.5428,0.5428,0.5428,0.5428,0.5428,0.5428,0.5428,0.5428,0.5428,0.5428,0.5428,0.5428,0.5428,0.5428,0.5428,0.5428,0.5428,0.5428,0.5428,0.5428,0.5237,0.5191,0.5255,0.6258,0.7491,0.8974,0.9018,0.8824,0.8811,0.8804,0.8804,0.8804,0.8804,0.8804,0.8804,0.8804,0.8804,0.8804,0.8804,0.8804,0.8804,0.8804,0.848,0.7777,0.7777,0.7396,0.6696,0.5982,0.5601,0.5614,0.5015,0.4752,-0.8176,-0.8477,-0.8338,-0.695,-0.6588,-0.6209,-0.4846,-0.4379,-0.4251,-0.4251,-0.413,-0.4087,0.0,0.0,0.0,-0.4244,-0.4392,0.0,-0.4519,-0.4519,0.0,0.0,0.0,-0.4507,-0.4515,-0.4528,0.0,0.0,-0.4568,-0.4822,-0.5345,-0.1946,-0.0,-0.0,-0.0,-0.0,-0.0,-0.0,-0.0,-0.0,-0.0,-0.0,-0.0,-0.0,0.1492,0.4048,0.5001,0.5406,0.5406,0.5099,0.5277,0.5631,0.5811,0.5772,0.5694,0.5732,0.5654,0.5532,0.5532,0.5457,0.5428,0.5428,0.5428,0.5428,0.5428,0.5428,0.5428,0.5428,0.5428,0.5428,0.5428,0.5428,0.5428,0.5428,0.5428,0.5428,0.5428,0.5428,0.5428,0.5428,0.5682,0.6312,0.7618,0.7931,0.8381,0.9394,0.9319,0.9051,0.8838,0.8804,0.8804,0.8804,0.8804,0.8804,0.8804,0.8804,0.8804,0.8804,0.8804,0.8804,0.8804,0.8804,0.8699,0.854,0.8533,0.8427,0.8262,0.7503,0.7269,0.7505,0.6146,0.5615,-0.833,-0.8584,-0.854,-0.7343,-0.6858,-0.6293,-0.5131,-0.4513,-0.4177,-0.411,-0.4026,0.0,0.0,0.0,0.0,0.0,0.0,0.0,-0.4519,-0.4519,-0.4519,0.0,-0.4519,0.0,-0.4513,-0.3876,-0.3779,0.0,-0.4493,-0.4102,-0.3105,-0.1137,-0.0,-0.0,-0.0,-0.0,-0.0,-0.0,-0.0,-0.0,-0.0,-0.0,-0.0,-0.0,0.109,0.3102,0.0,0.5535,0.5413,0.5689,0.5734,0.5679,0.5761,0.5823,0.58,0.58,0.5711,0.5599,0.5661,0.5542,0.5428,0.5428,0.5428,0.5428,0.5428,0.5428,0.5428,0.5428,0.5428,0.5428,0.5428,0.5428,0.5428,0.5428,0.5428,0.5428,0.5428,0.5686,0.6075,0.647,0.6444,0.6944,0.872,0.8755,0.889,0.9748,0.9619,0.9332,0.9031,0.8884,0.8804,0.8804,0.8804,0.8804,0.8804,0.8804,0.8804,0.8804,0.8804,0.8804,0.8804,0.8804,0.8804,0.8804,0.8804,0.8804,0.8804,0.8049,0.7858,0.8173,0.7004,0.6401,-0.8424,-0.8617,-0.8646,-0.7883,-0.7154,-0.6333,-0.5471,-0.471,-0.407,-0.3988,0.0,0.0,-0.3907,0.0,-0.4039,-0.414,0.0,-0.4494,-0.4515,-0.4519,-0.4519,-0.4519,-0.4519,-0.4472,-0.4516,-0.3301,-0.3032,-0.4394,-0.4097,-0.2731,-0.013,-0.0,-0.0,-0.0,-0.0,-0.0,-0.0,-0.0,-0.0,-0.0,-0.0,-0.0,-0.0,0.0483,0.0551,0.0539,0.4143,0.5586,0.5413,0.5688,0.5728,0.5623,0.5664,0.5742,0.5833,0.5854,0.5745,0.561,0.5752,0.5606,0.5428,0.5428,0.5428,0.5428,0.5428,0.5428,0.5428,0.5428,0.5428,0.5428,0.5428,0.5428,0.5428,0.5428,0.5428,0.5428,0.5428,0.6009,0.6785,0.7632,0.7242,0.7242,0.9011,0.9068,0.9162,1.0045,0.9927,0.9646,0.9336,0.9065,0.8851,0.8811,0.8804,0.8804,0.8804,0.8804,0.8804,0.8804,0.8804,0.8804,0.8804,0.8804,0.8804,0.8804,0.8804,0.8804,0.8804,0.8156,0.8039,0.8395,0.773,0.7123,-0.8664,-0.8771,-0.8646,-0.7883,-0.7081,-0.6251,-0.5492,-0.4492,0.0,0.0,0.0,-0.3478,-0.3417,-0.3666,0.0,-0.4033,0.0,0.0,0.0,0.0,-0.4522,0.0,0.0,0.0,0.0,0.0,0.0,0.0,0.0,-0.0535,-0.0,-0.0,-0.0,-0.0,-0.0,-0.0,-0.0,-0.0,-0.0,-0.0,-0.0,-0.0,0.0135,0.3115,0.3652,0.2345,0.4523,0.0,0.5389,0.5681,0.5786,0.5789,0.6044,0.6081,0.6006,0.6132,0.5932,0.561,0.5752,0.5606,0.5428,0.5428,0.5428,0.5428,0.5428,0.5428,0.5428,0.5428,0.5428,0.5428,0.5428,0.5428,0.5428,0.5428,0.5428,0.5428,0.5428,0.5491,0.5881,0.6785,0.6785,0.7242,0.9011,0.9233,0.9521,1.0355,1.0234,1.002,0.9973,0.9499,0.9017,0.8831,0.8804,0.8804,0.8804,0.8804,0.8804,0.8804,0.8804,0.8804,0.8804,0.8804,0.8804,0.8804,0.8804,0.8804,0.8804,0.8646,0.8915,0.9433,0.8574,0.8061,-0.8731,-0.8804,-0.8699,-0.8374,-0.7581,-0.6654,-0.5868,0.0,0.0,0.0,0.0,-0.3256,-0.3293,0.0,0.0,0.0,0.0,0.0,0.0,0.0,0.0,0.0,0.0,0.0,0.0,0.0,0.0,0.0,0.0,-0.0,-0.0,-0.0,-0.0,-0.0,-0.0,-0.0,-0.0,-0.0,-0.0,-0.0,-0.0,0.101,0.2896,0.4593,0.4925,0.4167,0.5119,0.0,0.5393,0.5681,0.5755,0.5705,0.5854,0.5911,0.5911,0.5911,0.5776,0.5599,0.5667,0.5545,0.5428,0.5428,0.5428,0.5428,0.5428,0.5428,0.5428,0.5428,0.5428,0.5428,0.5428,0.5428,0.5428,0.5428,0.5428,0.5491,0.6009,0.6075,0.6465,0.7767,0.8027,0.8479,0.9786,0.9977,1.011,1.0561,1.0441,1.0294,1.0134,0.9873,0.9526,0.9078,0.9031,0.8971,0.8824,0.8804,0.8804,0.8804,0.8804,0.8804,0.8804,0.8804,0.8804,0.8804,0.8804,0.8804,0.8804,0.8804,0.9112,0.9679,0.9259,0.895,-0.8731,-0.8804,-0.8804,-0.8804,-0.7908,-0.6883,-0.6162,-0.5042,0.0,0.0,0.0,-0.3082,-0.3232,0.0,0.0,0.0,0.0,0.0,0.0,0.0,0.0,0.0,0.0,0.0,0.0,0.0,0.0,0.0,0.0,0.0,-0.0,-0.0,-0.0,-0.0,-0.0,-0.0,-0.0,-0.0,-0.0,-0.0,-0.0,0.1885,0.5413,0.541,0.5403,0.5399,0.5576,0.0,0.0,0.5684,0.5718,0.5596,0.5661,0.5711,0.5745,0.5664,0.5596,0.5545,0.5579,0.5491,0.5428,0.5428,0.5428,0.5428,0.5428,0.5428,0.5428,0.5428,0.5428,0.5428,0.5428,0.5428,0.5428,0.562,0.5818,0.6141,0.685,0.6981,0.7372,0.8748,0.9139,0.953,1.0174,1.0498,1.0624,1.0624,1.0624,1.0474,1.0241,1.0214,1.0013,0.9429,0.9316,0.9245,0.9018,0.8991,0.8991,0.8991,0.8931,0.8898,0.8898,0.8838,0.8804,0.8804,0.8804,0.8804,0.8804,0.8804,0.9112,0.9686,0.9686,0.9573,-0.8731,-0.8804,-0.8804,-0.8804,-0.755,-0.6224,-0.6032,0.0,0.0,0.0,-0.2927,-0.2971,-0.3075,0.0,0.0,0.0,0.0,0.0,0.0,0.0,0.0,0.0,0.0,0.0,0.0,0.0,0.0,0.0,0.0,0.0,-0.0,-0.0,-0.0,-0.0,-0.0,-0.0,-0.0,-0.0,-0.0,-0.0,-0.0,0.1885,0.5413,0.5403,0.5389,0.5379,0.5449,0.0,0.0,0.5681,0.5718,0.5616,0.5884,0.5833,0.5623,0.5739,0.5613,0.547,0.5542,0.5491,0.5428,0.5428,0.5428,0.5428,0.5428,0.5428,0.5428,0.5428,0.5428,0.5428,0.5428,0.5428,0.5624,0.6396,0.7177,0.7767,0.7897,0.7897,0.7897,0.8091,0.8748,0.9338,0.9402,1.011,1.0624,1.0624,1.0624,1.0611,1.0584,1.0521,1.0394,1.0067,0.98,0.9633,0.9606,0.9606,0.9606,0.9606,0.9345,0.9143,0.9143,0.8945,0.8804,0.8804,0.8804,0.8804,0.8804,0.8804,0.9112,0.9686,0.9686,0.9573,-0.847,-0.8671,-0.8652,-0.8158,-0.7362,-0.6465,-0.531,0.0,0.0,-0.2888,-0.2771,-0.2842,-0.3076,0.0,0.0,0.0,0.0,0.0,0.0,0.0,0.0,0.0,0.0,0.0,0.0,0.0,0.0,0.0,0.0,0.0,-0.0,-0.0,-0.0,-0.0,-0.0,-0.0,-0.0,-0.0,-0.0,-0.0,0.2223,0.3433,0.383,0.4909,0.5379,0.5369,0.5428,0.0,0.0,0.5488,0.5504,0.5464,0.5583,0.5555,0.546,0.5515,0.546,0.5435,0.5433,0.5413,0.5428,0.5428,0.5428,0.5428,0.5428,0.5428,0.5428,0.5428,0.5428,0.5428,0.5428,0.5428,0.562,0.6527,0.6593,0.6728,0.7767,0.8027,0.8156,0.8678,0.946,1.011,1.011,1.0364,1.0624,1.0624,1.0624,1.0624,1.0624,1.0624,1.0577,1.0401,1.012,0.9873,0.9699,0.9686,0.9686,0.9686,0.9573,0.9506,0.9506,0.9225,0.9065,0.9065,0.8898,0.8804,0.8804,0.8985,0.9279,0.9686,0.9866,0.9977,-0.7934,-0.8132,-0.8127,-0.7309,-0.6775,-0.6089,0.0,0.0,-0.3522,-0.2842,-0.2712,-0.2757,-0.3012,-0.3012,-0.309,0.0,0.0,0.0,0.0,0.0,0.0,0.0,0.0,0.0,0.0,0.0,0.0,0.0,0.0,0.0,-0.0,-0.0,-0.0,-0.0,-0.0,-0.0,-0.0,-0.0,0.0539,0.1616,0.4185,0.4718,0.3551,0.4834,0.5372,0.5428,0.5428,0.0,0.0,0.541,0.547,0.5432,0.541,0.5403,0.5428,0.5428,0.5428,0.5428,0.5428,0.5428,0.5428,0.5428,0.5428,0.5428,0.5428,0.5428,0.5428,0.5428,0.5557,0.5815,0.5815,0.6145,0.6732,0.7312,0.7181,0.7251,0.8479,0.8737,0.8935,0.9594,1.0174,1.0624,1.0624,1.0624,1.0624,1.0624,1.0624,1.0624,1.0624,1.0624,1.0624,1.0624,1.0374,1.0167,0.996,0.994,0.994,0.994,0.986,0.9813,0.9813,0.9526,0.9372,0.9372,0.9172,0.9065,0.9065,0.9272,0.9526,0.982,1.002,1.0274,-0.7095,-0.7104,-0.6954,-0.6358,-0.5562,-0.4843,0.0,-0.3739,-0.3035,-0.2744,-0.2712,-0.2727,-0.2883,-0.3025,-0.3132,0.0,0.0,0.0,0.0,0.0,0.0,0.0,0.0,0.0,0.0,0.0,0.0,0.0,0.0,0.0,-0.0,-0.0,-0.0,-0.0,-0.0,-0.0,-0.0,-0.0,0.1818,0.5343,0.5413,0.5399,0.5379,0.5379,0.5372,0.0,0.0,0.0,0.0,0.5525,0.5498,0.5442,0.5528,0.5494,0.5428,0.5428,0.5428,0.5428,0.5428,0.5428,0.5428,0.5428,0.5428,0.5428,0.5428,0.5428,0.5428,0.5428,0.6009,0.6719,0.6719,0.7962,0.9274,0.9274,0.9919,1.0555,1.0561,1.0561,1.0561,1.0561,1.0561,1.0624,1.0624,1.0624,1.0624,1.0624,1.0624,1.0624,1.0624,1.0624,1.0624,1.0624,1.0618,1.0618,1.0618,1.0618,1.0618,1.0618,1.0274,1.0114,1.0114,0.9833,0.9679,0.9679,0.9679,0.9679,0.9679,0.9679,0.9826,1.0114,1.0114,1.0274,-0.6505,-0.6503,-0.6138,-0.5189,-0.4872,-0.453,-0.3598,-0.3235,-0.3035,-0.2744,-0.2712,-0.2727,-0.2879,-0.2859,-0.2971,-0.3432,0.0,0.0,0.0,0.0,0.0,0.0,0.0,0.0,0.0,0.0,0.0,0.0,0.0,0.0,-0.0,-0.0,-0.0,-0.0,-0.0,0.1212,0.3641,0.3708,0.3636,0.3558,0.4776,0.5386,0.5379,0.5369,0.5432,0.0,0.0,0.0,0.0,0.5413,0.5406,0.5432,0.5413,0.5403,0.5428,0.5428,0.5428,0.5428,0.5428,0.5428,0.5428,0.5428,0.5428,0.5428,0.5428,0.5428,0.5491,0.6141,0.6461,0.685,0.7437,0.8027,0.8549,0.9139,0.9069,0.9128,1.0364,1.011,0.9913,1.0498,1.0624,1.0624,1.0624,1.0624,1.0624,1.0624,1.0624,1.0624,1.0624,1.0624,1.0624,1.0624,1.0624,1.0624,1.0624,1.0624,1.0624,1.0624,1.0474,1.0421,1.0421,1.0134,0.998,0.998,0.9786,0.9686,0.9686,0.988,1.0127,1.0421,1.0421,1.0474,0.0,-0.5491,-0.5032,-0.4113,-0.4024,-0.3882,-0.3095,-0.2978,-0.2971,-0.273,-0.2712,-0.271,-0.2805,-0.2791,-0.2907,-0.3337,0.0,0.0,0.0,0.0,0.0,0.0,0.0,0.0,0.0,0.0,0.0,0.0,0.0,0.0,-0.0,0.1326,0.202,0.202,0.202,0.31,0.5346,0.5406,0.4852,0.3751,0.4834,0.5376,0.5372,0.5432,0.5428,0.0,0.0,0.0,0.0,0.5428,0.5428,0.5428,0.5428,0.5428,0.5428,0.5428,0.5428,0.5428,0.5428,0.5428,0.5428,0.5428,0.5428,0.5491,0.5815,0.5881,0.6009,0.6527,0.7177,0.7827,0.8355,0.8742,0.9128,0.9658,0.939,0.9262,1.0364,1.0174,0.9977,1.0491,1.0624,1.0624,1.0624,1.0624,1.0624,1.0624,1.0624,1.0624,1.0624,1.0624,1.0624,1.0624,1.0624,1.0624,1.0624,1.0624,1.0624,1.0624,1.0624,1.0624,1.0624,1.0381,1.0281,1.0281,1.0107,1.0013,1.0013,1.0194,1.0381,1.0624,1.0624,1.0624,0.0,-0.4229,-0.3788,-0.3204,-0.3096,-0.3066,-0.2924,-0.2903,0.0,-0.2713,-0.2712,-0.2716,-0.273,-0.2812,-0.2961,0.0,0.0,0.0,0.0,0.0,0.0,0.0,0.0,0.0,0.0,0.0,0.0,0.0,0.0,0.0,-0.0,0.3456,0.5413,0.5413,0.541,0.541,0.541,0.5399,0.5389,0.5376,0.5376,0.5372,0.5428,0.5428,0.5428,0.0,0.0,0.0,0.0,0.5428,0.5428,0.5428,0.5428,0.5428,0.5428,0.5428,0.5428,0.5428,0.5428,0.5428,0.5428,0.5428,0.5428,0.5557,0.6461,0.6719,0.6719,0.685,0.8027,0.9338,0.9402,0.9983,1.0624,1.0624,1.0624,1.0624,1.0624,1.0624,1.0624,1.0624,1.0624,1.0624,1.0624,1.0624,1.0624,1.0624,1.0624,1.0624,1.0624,1.0624,1.0624,1.0624,1.0624,1.0624,1.0624,1.0624,1.0624,1.0624,1.0624,1.0624,1.0624,1.0624,1.0624,1.0624,1.0624,1.0624,1.0624,1.0624,1.0624,1.0624,1.0624,1.0624,-0.3576,0.0,-0.3111,-0.285,-0.2873,-0.292,0.0,-0.2825,0.0,0.0,0.0,0.0,0.0,0.0,0.0,0.0,0.0,0.0,0.0,0.0,0.0,0.0,0.0,0.0,0.0,0.0,0.0,0.0,0.0,-0.0,-0.0,0.3426,0.5413,0.5413,0.5396,0.5386,0.5386,0.5382,0.5376,0.5432,0.5432,0.5432,0.5428,0.5428,0.5428,0.0,0.0,0.0,0.5428,0.5428,0.5428,0.5428,0.5428,0.5428,0.5428,0.5428,0.5428,0.5428,0.5428,0.5428,0.5428,0.5428,0.5428,0.5557,0.6461,0.6719,0.6981,0.8291,0.9005,0.9466,1.011,1.0434,1.0624,1.0624,1.0624,1.0624,1.0624,1.0624,1.0624,1.0624,1.0624,1.0624,1.0624,1.0624,1.0624,1.0624,1.0624,1.0624,1.0624,1.0624,1.0624,1.0624,1.0624,1.0624,1.0624,1.0624,1.0624,1.0624,1.0624,1.0624,1.0624,1.0624,1.0624,1.0624,1.0624,1.0624,1.0624,1.0624,1.0624,1.0624,1.0624,1.0624,-0.329,-0.3094,-0.2873,-0.272,-0.2798,-0.2869,-0.2717,0.0,0.0,0.0,0.0,0.0,0.0,0.0,0.0,0.0,0.0,0.0,0.0,0.0,0.0,0.0,0.0,0.0,0.0,0.0,0.0,0.0,0.0,0.0697,0.2418,0.3567,0.4512,0.5396,0.5379,0.5372,0.5379,0.5372,0.5369,0.5428,0.5428,0.5428,0.5428,0.5428,0.5428,0.0,0.0,0.0,0.5428,0.5428,0.5428,0.5428,0.5428,0.5428,0.5428,0.5428,0.5428,0.5428,0.5428,0.5428,0.5491,0.5881,0.6009,0.6203,0.7502,0.7892,0.8091,0.9011,0.9594,0.9977,1.0498,1.0624,1.0624,1.0624,1.0624,1.0624,1.0624,1.0624,1.0624,1.0624,1.0624,1.0624,1.0624,1.0624,1.0624,1.0624,1.0624,1.0624,1.0624,1.0624,1.0624,1.0624,1.0624,1.0624,1.0624,1.0624,1.0624,1.0624,1.0624,1.0624,1.0624,1.0624,1.0624,1.0624,1.0624,1.0624,1.0624,1.0624,1.0624,1.0624,1.0624,1.0624,-0.3228,-0.3097,-0.29,-0.2723,-0.2778,-0.2842,0.0,0.0,0.0,0.0,0.0,0.0,0.0,0.0,0.0,0.0,0.0,0.0,0.0,0.0,0.0,0.0,0.0,0.0,0.0,0.0,0.0,0.0,0.0,0.2151,0.5229,0.3956,0.382,0.5376,0.5432,0.5432,0.5376,0.5432,0.5428,0.5428,0.5428,0.5428,0.5428,0.5428,0.5428,0.5428,0.0,0.0,0.5428,0.5428,0.5428,0.5428,0.5428,0.5428,0.5428,0.5428,0.5428,0.5428,0.5557,0.5624,0.5752,0.6593,0.6915,0.7177,0.8812,0.9274,0.9338,0.9466,1.0047,1.0624,1.0624,1.0624,1.0624,1.0624,1.0624,1.0624,1.0624,1.0624,1.0624,1.0624,1.0624,1.0624,1.0624,1.0624,1.0624,1.0624,1.0624,1.0624,1.0624,1.0624,1.0624,1.0624,1.0624,1.0624,1.0624,1.0624,1.0624,1.0624,1.0624,1.0624,1.0624,1.0624,1.0624,1.0624,1.0624,1.0624,1.0624,1.0624,1.0624,1.0624,1.0624,1.0688,-0.2941,-0.3015,-0.3022,-0.2751,-0.27,-0.271,0.0,0.0,0.0,0.0,0.0,0.0,0.0,0.0,0.0,0.0,0.0,0.0,0.0,0.0,0.0,0.0,0.0,0.0,0.0,0.0,0.0,0.0,0.0,0.4793,0.5359,0.5124,0.5106,0.5379,0.5432,0.5428,0.5432,0.5428,0.5428,0.5428,0.5428,0.5428,0.5428,0.5428,0.5428,0.5428,0.0,0.5428,0.5428,0.5428,0.5428,0.5428,0.5428,0.5428,0.5428,0.5428,0.5428,0.5491,0.6268,0.6527,0.6658,0.7502,0.7832,0.7962,0.9011,0.9274,0.9466,1.0174,1.0498,1.0624,1.0624,1.0624,1.0624,1.0624,1.0624,1.0624,1.0624,1.0624,1.0624,1.0624,1.0624,1.0624,1.0624,1.0624,1.0624,1.0624,1.0624,1.0624,1.0624,1.0624,1.0624,1.0624,1.0624,1.0624,1.0624,1.0624,1.0624,1.0624,1.0624,1.0624,1.0624,1.0624,1.0624,1.0624,1.0624,1.0624,1.0624,1.0624,1.0624,1.0624,1.0624,1.0989,-0.2768,-0.2835,-0.2869,-0.2818,-0.2924,-0.3002,0.0,0.0,0.0,0.0,0.0,0.0,0.0,0.0,0.0,0.0,0.0,0.0,0.0,0.0,0.0,0.0,0.0,0.0,0.0,0.0,0.0,0.0,0.0,0.0,0.5169,0.537,0.5376,0.5369,0.5432,0.5428,0.5428,0.5428,0.5428,0.5428,0.5428,0.5428,0.5428,0.5428,0.5428,0.5428,0.0,0.5428,0.5428,0.5428,0.5428,0.5428,0.5428,0.5428,0.5425,0.5947,0.6071,0.6203,0.7111,0.7372,0.7567,0.842,0.8683,0.8877,0.9722,0.9977,1.011,1.0491,1.0624,1.0624,1.0624,1.0624,1.0624,1.0624,1.0624,1.0624,1.0624,1.0624,1.0624,1.0624,1.0624,1.0624,1.0624,1.0624,1.0624,1.0624,1.0624,1.0624,1.0624,1.0624,1.0624,1.0624,1.0624,1.0624,1.0624,1.0624,1.0624,1.0624,1.0624,1.0624,1.0624,1.0624,1.0624,1.0624,1.0624,1.0624,1.0624,1.0624,1.0624,1.0624,1.1045,1.1469,-0.2713,-0.271,-0.2717,0.0,0.0,0.0,0.0,0.0,0.0,0.0,0.0,0.0,0.0,0.0,0.0,0.0,0.0,0.0,0.0,0.0,0.0,0.0,0.0,0.0,0.0,0.0,0.0,0.0,0.0,0.0,0.4974,0.5189,0.5281,0.5308,0.5308,0.5325,0.5428,0.5428,0.5428,0.5428,0.5428,0.5428,0.5428,0.5428,0.5428,0.5428,0.5428,0.5428,0.5428,0.5428,0.5428,0.5428,0.562,0.5818,0.6079,0.6789,0.6981,0.7111,0.8027,0.8322,0.8565,0.9421,0.9685,0.9814,1.0463,1.0678,1.0624,1.0624,1.0672,1.0712,1.0645,1.0672,1.0705,1.0638,1.0672,1.0705,1.0638,1.0624,1.0624,1.0624,1.0624,1.0624,1.0624,1.0624,1.0624,1.0624,1.0678,1.0661,1.0661,1.0722,1.0762,1.0762,1.0762,1.0735,1.0668,1.0785,1.0863,1.0863,1.0681,1.0744,1.1178,1.0989,1.0989,1.1178,1.1178,1.1178,1.1178,1.1178,1.1178,1.1178,1.1917,1.2313,-0.2815,-0.2791,-0.2717,-0.2869,0.0,0.0,0.0,0.0,0.0,0.0,0.0,0.0,0.0,0.0,0.0,0.0,0.0,0.0,0.0,0.0,0.0,0.0,0.0,0.0,0.0,0.0,0.0,0.0,0.0,0.0,0.48,0.4877,0.5013,0.5142,0.5145,0.5216,0.5425,0.5428,0.5428,0.5428,0.5428,0.5428,0.5428,0.5428,0.5428,0.5428,0.5428,0.5428,0.5428,0.5428,0.5428,0.5495,0.6268,0.7111,0.7832,0.7897,0.7897,0.8027,0.8877,0.9361,0.9693,1.056,1.0896,1.0896,1.0962,1.0775,1.0624,1.0624,1.0755,1.0902,1.0628,1.0755,1.0895,1.0692,1.0768,1.0889,1.0678,1.0624,1.0624,1.0624,1.0624,1.0624,1.0624,1.0624,1.0624,1.0624,1.0788,1.0962,1.0962,1.1196,1.1363,1.1363,1.1363,1.1249,1.0982,1.1453,1.171,1.171,1.0982,1.1296,1.2765,1.2081,1.2081,1.2826,1.2826,1.2826,1.2826,1.2826,1.2826,1.2834,1.3285,1.3873,-0.271,-0.2659,-0.2608,0.0,0.0,0.0,0.0,0.0,0.0,0.0,0.0,0.0,0.0,0.0,0.0,0.0,0.0,0.0,0.0,0.0,0.0,0.0,0.0,0.0,0.0,0.0,0.0,0.0,0.0,0.0,0.4755,0.484,0.4945,0.4996,0.4999,0.507,0.5216,0.5216,0.5267,0.5428,0.5428,0.5428,0.5428,0.5428,0.5428,0.5428,0.5428,0.5428,0.5428,0.5428,0.5752,0.6268,0.7177,0.7702,0.8091,0.8613,0.8812,0.8964,0.9978,1.0437,1.0618,1.1068,1.1263,1.1229,1.1049,1.1042,1.1062,1.0882,1.1042,1.1196,1.0909,1.1042,1.1236,1.1122,1.1042,1.0962,1.0855,1.0752,1.0624,1.0624,1.0624,1.0624,1.0624,1.0624,1.0685,1.0802,1.0922,1.1056,1.1236,1.1356,1.1423,1.1423,1.1969,1.2325,1.2202,1.2918,1.3443,1.3712,1.2701,1.2397,1.2948,1.2696,1.2696,1.3009,1.3009,1.3009,1.3009,1.3009,1.3124,1.3401,1.4107,1.4747,-0.2584,-0.2518,-0.245,0.0,0.0,0.0,0.0,0.0,0.0,0.0,0.0,0.0,0.0,0.0,0.0,0.0,0.0,0.0,0.0,0.0,0.0,0.0,0.0,0.0,0.0,0.0,0.0,0.0,0.0,0.0,0.0,0.4718,0.4799,0.4847,0.4847,0.4918,0.506,0.5064,0.5118,0.5223,0.5267,0.5315,0.5428,0.5428,0.5428,0.5428,0.5428,0.5557,0.5815,0.5815,0.6465,0.7567,0.8156,0.8608,0.8871,0.946,0.9722,0.9817,1.0588,1.0915,1.1042,1.1329,1.1423,1.1403,1.1303,1.1343,1.1383,1.1182,1.1343,1.1516,1.1323,1.1416,1.1543,1.145,1.1343,1.1216,1.1035,1.0835,1.0668,1.0645,1.0624,1.0651,1.0681,1.0759,1.0795,1.1089,1.1209,1.1343,1.1543,1.1643,1.1774,1.211,1.2647,1.3135,1.3466,1.4214,1.4819,1.507,1.4489,1.4048,1.3795,1.3485,1.3485,1.3726,1.3786,1.3786,1.3786,1.3908,1.411,1.4426,1.5259,1.5852,-0.2432,-0.2432,0.0,0.0,0.0,0.0,0.0,0.0,0.0,0.0,0.0,0.0,0.0,0.0,0.0,0.0,0.0,0.0,0.0,0.0,0.0,0.0,0.0,0.0,0.0,0.0,0.0,0.0,0.0,0.0,0.0,0.4519,0.4587,0.4684,0.4687,0.4762,0.4914,0.4918,0.4918,0.4921,0.506,0.5209,0.5425,0.5428,0.5428,0.5428,0.5428,0.5881,0.6719,0.6719,0.7762,0.9274,0.9338,0.9849,1.0624,1.0624,1.0624,1.0624,1.0624,1.0755,1.1042,1.1329,1.1423,1.1483,1.177,1.1657,1.1423,1.1423,1.1637,1.187,1.187,1.187,1.1797,1.1496,1.165,1.1703,1.1122,1.0989,1.0909,1.0678,1.0624,1.0719,1.0949,1.0995,1.1096,1.1383,1.1683,1.187,1.1948,1.2124,1.2659,1.36,1.3461,1.3747,1.4618,1.5226,1.5523,1.5523,1.6265,1.6348,1.5459,1.4638,1.4579,1.542,1.542,1.542,1.542,1.5859,1.6135,1.6154,1.6973,1.7383,-0.2486,0.0,0.0,0.0,0.0,0.0,0.0,0.0,0.0,0.0,0.0,0.0,0.0,0.0,0.0,0.0,0.0,0.0,0.0,0.0,0.0,0.0,0.0,0.0,0.0,0.0,0.0,0.0,0.0,0.0,0.0,0.4519,0.4539,0.4584,0.4587,0.4602,0.4758,0.4758,0.4813,0.4918,0.4962,0.5057,0.5203,0.5311,0.5752,0.6334,0.6334,0.6789,0.7632,0.8291,0.8812,0.9338,0.9977,1.0364,1.0624,1.0624,1.0624,1.0651,1.0795,1.0922,1.1042,1.1329,1.1423,1.1403,1.1289,1.1336,1.1383,1.1182,1.1483,1.187,1.187,1.187,1.1844,1.1757,1.1643,1.1456,1.1076,1.0835,1.0722,1.0842,1.0862,1.0955,1.1249,1.1296,1.1396,1.169,1.1817,1.2223,1.3078,1.3252,1.3673,1.4665,1.5275,1.5757,1.6033,1.6782,1.7149,1.6852,1.7048,1.6934,1.6367,1.609,1.609,1.6338,1.6338,1.6338,1.6338,1.6475,1.6689,1.7002,1.7266,1.7539,0.0,0.0,0.0,0.0,0.0,0.0,0.0,0.0,0.0,0.0,0.0,0.0,0.0,0.0,0.0,0.0,0.0,0.0,0.0,0.0,0.0,0.0,0.0,0.0,0.0,0.0,0.0,0.0,0.0,0.0,0.0,0.4519,0.4519,0.4519,0.4519,0.4563,0.4599,0.4599,0.4646,0.4738,0.5092,0.5288,0.5384,0.5549,0.5977,0.6617,0.7404,0.8027,0.8613,0.946,0.9786,0.9856,1.0364,1.0624,1.0624,1.0624,1.0624,1.0651,1.0762,1.0822,1.0868,1.1156,1.1249,1.1243,1.1182,1.1289,1.139,1.1209,1.1423,1.169,1.169,1.169,1.1724,1.1837,1.1643,1.1349,1.1056,1.0949,1.0889,1.0828,1.1009,1.1223,1.1396,1.1523,1.1844,1.2485,1.2956,1.3307,1.3643,1.4027,1.4665,1.5649,1.628,1.6775,1.7139,1.7647,1.79,1.7646,1.7637,1.7519,1.7246,1.6914,1.6665,1.6665,1.6665,1.6665,1.6665,1.6904,1.7129,1.7393,1.7549,1.7773,0.0,0.0,0.0,0.0,0.0,0.0,0.0,0.0,0.0,0.0,0.0,0.0,0.0,0.0,0.0,0.0,0.0,0.0,0.0,0.0,0.0,0.0,0.0,0.0,0.0,0.0,0.0,0.0,0.0,0.0,0.0,0.4519,0.4519,0.4519,0.4519,0.4519,0.4519,0.4519,0.4515,0.4629,0.5385,0.5804,0.587,0.6015,0.6271,0.6706,0.8551,0.9378,0.9466,1.0301,1.0624,1.0624,1.0624,1.0624,1.0624,1.0624,1.0624,1.0624,1.0624,1.0624,1.0665,1.0868,1.0955,1.1002,1.1269,1.1349,1.1349,1.1349,1.1363,1.1383,1.1383,1.1383,1.1456,1.1724,1.1583,1.1309,1.1015,1.1182,1.1236,1.0735,1.1149,1.1607,1.1634,1.1934,1.2557,1.37,1.4593,1.4879,1.4099,1.4736,1.5658,1.6636,1.6706,1.707,1.794,1.8008,1.8008,1.8008,1.8008,1.8008,1.8008,1.7266,1.6846,1.6846,1.6846,1.6846,1.6846,1.7246,1.7507,1.7573,1.7967,1.8134,0.0,0.0,0.0,0.0,0.0,0.0,0.0,0.0,0.0,0.0,0.0,0.0,0.0,0.0,0.0,0.0,0.0,0.0,0.0,0.0,0.0,0.0,0.0,0.0,0.0,0.0,0.0,0.0,0.0,0.0,0.4519,0.4519,0.4519,0.4519,0.4519,0.4519,0.4519,0.4519,0.4787,0.0,0.5474,0.5881,0.6449,0.6716,0.7355,0.8365,0.9432,1.0092,1.0301,1.0491,1.0624,1.0624,1.0624,1.0624,1.0624,1.0624,1.0624,1.0624,1.0624,1.0624,1.0631,1.0698,1.0719,1.0732,1.0728,1.0748,1.0748,1.0748,1.0909,1.1089,1.1089,1.1089,1.1102,1.1169,1.1129,1.1009,1.0715,1.0882,1.1116,1.1223,1.2135,1.2958,1.3135,1.3938,1.4577,1.4871,1.5092,1.5376,1.593,1.614,1.6645,1.7579,1.7716,1.7794,1.8008,1.8008,1.8008,1.8008,1.8008,1.8008,1.8008,1.7832,1.7734,1.7734,1.7734,1.7734,1.7734,1.7832,1.8198,1.8899,1.9003,1.9365,0.0,0.0,0.0,0.0,0.0,0.0,0.0,0.0,0.0,0.0,0.0,0.0,0.0,0.0,0.0,0.0,0.0,0.0,0.0,0.0,0.0,0.0,0.0,0.0,0.0,0.0,0.0,0.0,0.0,0.4519,0.4519,0.4519,0.4519,0.4519,0.4519,0.4519,0.4519,0.4842,0.5164,0.5487,0.6195,0.6956,0.7628,0.7615,0.8206,0.9238,0.9866,1.0287,1.0624,1.0624,1.0624,1.0624,1.0624,1.0624,1.0624,1.0624,1.0624,1.0624,1.0624,1.0624,1.0624,1.0624,1.0624,1.0624,1.0624,1.0624,1.0624,1.0624,1.0668,1.0788,1.0788,1.0788,1.0788,1.0788,1.0788,1.0742,1.0658,1.1286,1.1931,1.1871,1.3119,1.419,1.4198,1.511,1.572,1.5234,1.5939,1.6576,1.6567,1.6991,1.7432,1.794,1.8008,1.8008,1.8008,1.8008,1.8008,1.8008,1.8008,1.8008,1.8008,1.8008,1.8008,1.8008,1.8008,1.8202,1.8586,1.8586,1.9044,1.9944,1.9944,2.0139,0.0,0.0,0.0,0.0,0.0,0.0,0.0,0.0,0.0,0.0,0.0,0.0,0.0,0.0,0.0,0.0,0.0,0.0,0.0,0.0,0.0,0.0,0.0,0.0,0.0,0.0,0.0,0.0,0.0,0.4519,0.4519,0.4519,0.4519,0.4519,0.4519,0.457,0.468,0.5218,0.5651,0.5923,0.723,0.8209,0.8765,0.8446,0.8839,0.9699,0.9933,1.0241,1.0624,1.0624,1.0624,1.0624,1.0624,1.0624,1.0624,1.0624,1.0624,1.0624,1.0624,1.0624,1.0624,1.0624,1.0624,1.0624,1.0624,1.0624,1.0624,1.0624,1.0681,1.0807,1.0807,1.0926,1.0989,1.0989,1.1094,1.1066,1.0946,1.2138,1.3109,1.2825,1.4239,1.5415,1.5317,1.6145,1.6576,1.5799,1.701,1.7716,1.6922,1.7501,1.8008,1.8008,1.8008,1.8008,1.8008,1.8008,1.8008,1.8008,1.8008,1.8076,1.8202,1.8202,1.8269,1.8462,1.8269,1.8654,1.9497,1.9497,1.9944,2.0846,2.0846,2.091,0.0,0.0,0.0,0.0,0.0,0.0,0.0,0.0,0.0,0.0,0.0,0.0,0.0,0.0,0.0,0.0,0.0,0.0,0.0,0.0,0.0,0.0,0.0,0.0,0.0,0.0,0.0,0.0,0.4519,0.4519,0.4519,0.4519,0.4519,0.4519,0.4519,0.4787,0.5378,0.5433,0.614,0.7396,0.8262,0.8699,0.8804,0.8738,0.9048,0.9686,0.9726,1.0053,1.0624,1.0624,1.0624,1.0624,1.0624,1.0624,1.0624,1.0624,1.0624,1.0624,1.0624,1.0624,1.0624,1.0624,1.0624,1.0624,1.0624,1.0624,1.0624,1.0624,1.1108,1.1648,1.1648,1.2143,1.2704,1.2704,1.2937,1.3028,1.2341,1.338,1.4459,1.441,1.5463,1.6627,1.7434,1.7687,1.7794,1.7647,1.7862,1.794,1.7862,1.794,1.8008,1.8008,1.8008,1.8008,1.8008,1.8008,1.8008,1.8008,1.8008,1.8337,1.911,1.911,1.9497,2.0268,1.9497,1.9562,2.0398,2.0398,2.0846,2.1753,2.1753,2.2125,0.0,0.0,0.0,0.0,0.0,0.0,0.0,0.0,0.0,0.0,0.0,0.0,0.0,0.0,0.0,0.0,0.0,0.0,0.0,0.0,0.0,0.0,0.0,0.0,0.0,0.0,0.0,0.0,0.4519,0.4519,0.4519,0.4519,0.468,0.5058,0.5054,0.5382,0.6091,0.6524,0.7283,0.8321,0.8646,0.8804,0.8804,0.8804,0.9038,0.9446,0.9613,0.9927,1.0321,1.0488,1.0624,1.0624,1.0624,1.0624,1.0624,1.0624,1.0624,1.0624,1.0624,1.0624,1.0624,1.0624,1.0624,1.0681,1.117,1.1288,1.1351,1.1849,1.2212,1.2451,1.2451,1.2902,1.3368,1.3368,1.4175,1.492,1.4535,1.499,1.5698,1.6415,1.7017,1.7501,1.794,1.8008,1.8008,1.8008,1.8008,1.8008,1.8008,1.8008,1.8008,1.8008,1.8008,1.8008,1.8008,1.8008,1.8008,1.8008,1.8462,1.8921,1.9299,1.9759,2.0462,2.1302,2.0462,2.0462,2.1302,2.1302,2.1753,2.2567,2.2567,2.2763,0.0,0.0,0.0,0.0,0.0,0.0,0.0,0.0,0.0,0.0,0.0,0.0,0.0,0.0,0.0,0.0,0.0,0.0,0.0,0.0,0.0,0.0,0.0,0.0,0.0,0.0,0.0,0.0,0.4519,0.4519,0.4519,0.468,0.5003,0.5483,0.5706,0.6145,0.6858,0.7616,0.8262,0.8804,0.8804,0.8804,0.8804,0.8804,0.8925,0.909,0.9446,0.978,1.0134,1.0354,1.0494,1.0624,1.0624,1.0624,1.0624,1.0624,1.0624,1.0624,1.0624,1.0624,1.0618,1.0863,1.0926,1.1052,1.1834,1.2074,1.2205,1.2826,1.313,1.3312,1.3312,1.3768,1.423,1.423,1.5339,1.6476,1.6578,1.6606,1.6842,1.7804,1.8008,1.8008,1.8008,1.8008,1.8008,1.8008,1.8008,1.8008,1.8008,1.8008,1.8008,1.8008,1.8008,1.8008,1.8008,1.8202,1.8337,1.8337,1.9177,1.9748,1.9944,2.059,2.1365,2.2187,2.1553,2.1553,2.2187,2.2187,2.2506,2.3078,2.3078,2.3078,0.0,0.0,0.0,0.0,0.0,0.0,0.0,0.0,0.0,0.0,0.0,0.0,0.0,0.0,0.0,0.0,0.0,0.0,0.0,0.0,0.0,0.0,0.0,0.0,0.0,0.0,0.0,0.0,0.4519,0.4519,0.4519,0.5109,0.5487,0.5487,0.6204,0.6912,0.7616,0.8374,0.8752,0.8804,0.8804,0.8804,0.8804,0.8804,0.8818,0.8844,0.9084,0.9586,1.0114,1.0134,1.0307,1.0624,1.0624,1.0624,1.0624,1.0624,1.0624,1.0624,1.0624,1.0624,1.0744,1.1469,1.1772,1.1896,1.2696,1.2948,1.2948,1.3009,1.3554,1.4145,1.4145,1.5065,1.5994,1.5994,1.6675,1.7424,1.7823,1.7901,1.791,1.8008,1.8008,1.8008,1.8008,1.8008,1.8008,1.8008,1.8008,1.8008,1.8008,1.8008,1.8008,1.8008,1.8008,1.8008,1.8008,1.8787,1.9243,1.9243,2.0074,2.091,2.1753,2.1815,2.2187,2.3005,2.3005,2.3005,2.3017,2.3017,2.3078,2.3078,2.3078,2.3078,0.0,0.0,0.0,0.0,0.0,0.0,0.0,0.0,0.0,0.0,0.0,0.0,0.0,0.0,0.0,0.0,0.0,0.0,0.0,0.0,0.0,0.0,0.0,0.0,0.0,0.0,0.0,0.0,0.0,0.4677,0.5109,0.4948,0.5492,0.6848,0.6691,0.7182,0.8374,0.8646,0.8804,0.8804,0.8804,0.8804,0.8804,0.8804,0.8804,0.8811,0.8918,0.9185,0.9528,0.996,1.018,1.0294,1.0551,1.0624,1.0624,1.0624,1.0624,1.0624,1.0624,1.0926,1.1406,1.171,1.2143,1.2696,1.3545,1.3786,1.3906,1.4392,1.4943,1.54,1.54,1.6172,1.6982,1.7246,1.7549,1.7822,1.7978,1.8008,1.8008,1.8008,1.8008,1.8008,1.8008,1.8008,1.8008,1.8008,1.8008,1.8008,1.8008,1.8462,1.8586,1.8076,1.8977,1.9431,1.8844,1.9628,2.0139,2.0139,2.0974,2.1553,2.1877,2.2384,2.2823,2.3065,2.3603,2.3603,2.3078,2.3078,2.3365,2.3884,2.3884,2.4105,0.0,0.0,0.0,0.0,0.0,0.0,0.0,0.0,0.0,0.0,0.0,0.0,0.0,0.0,0.0,0.0,0.0,0.0,0.0,0.0,0.0,0.0,0.0,0.0,0.0,0.0,0.0,0.0,0.0,0.0,0.5164,0.5167,0.6095,0.799,0.7616,0.783,0.8804,0.8804,0.8804,0.8804,0.8804,0.8804,0.8804,0.8804,0.8804,0.8804,0.8804,0.8971,0.9216,0.9659,0.994,1.0134,1.0334,1.0474,1.0624,1.0624,1.0744,1.0982,1.0982,1.1531,1.2266,1.2504,1.2992,1.3545,1.4392,1.4628,1.4688,1.5235,1.5723,1.6125,1.6125,1.6719,1.749,1.791,1.8202,1.8462,1.8462,1.8462,1.8462,1.8462,1.8654,1.8787,1.8462,1.8654,1.8787,1.8462,1.8664,1.8854,1.8854,1.9365,1.9497,1.8911,1.9879,2.0398,1.9814,2.0526,2.1049,2.1049,2.1803,2.2322,2.2322,2.2823,2.3245,2.3484,2.4002,2.4176,2.3872,2.3872,2.4163,2.4681,2.4681,2.5063,0.0,0.0,0.0,0.0,0.0,0.0,0.0,0.0,0.0,0.0,0.0,0.0,0.0,0.0,0.0,0.0,0.0,0.0,0.0,0.0,0.0,0.0,0.0,0.0,0.0,0.0,0.0,0.0,0.4519,0.4519,0.4515,0.5878,0.7289,0.8699,0.8752,0.8804,0.8804,0.8804,0.8804,0.8804,0.8804,0.8804,0.8804,0.8804,0.8804,0.8804,0.8804,0.8965,0.9176,0.9183,0.9579,1.0107,1.0114,1.0294,1.0624,1.0624,1.117,1.1834,1.1834,1.2389,1.3191,1.3974,1.4213,1.4392,1.5167,1.541,1.541,1.541,1.5732,1.6154,1.6174,1.6821,1.7566,1.7978,1.8721,1.9365,1.9365,1.9365,1.9365,1.9365,2.0009,2.0333,1.9497,2.0009,2.0333,1.9497,2.0074,2.059,2.059,2.0655,2.0655,2.059,2.0655,2.0655,2.0655,2.1428,2.1939,2.1939,2.2689,2.3138,2.3138,2.3138,2.3543,2.435,2.435,2.4738,2.5453,2.5398,2.5398,2.5453,2.5453,2.5837,-0.0281,0.0,0.0,0.0,0.0,0.0,0.0,0.0,0.0,0.0,0.0,0.0,0.0,0.0,0.0,0.0,0.0,0.0,0.0,0.0,0.0,0.0,0.0,0.0,0.0,0.0,0.0,0.0,0.4519,0.4736,0.5218,0.6583,0.7343,0.7235,0.8262,0.8804,0.8804,0.8804,0.8804,0.8804,0.8804,0.8804,0.8804,0.8804,0.8804,0.8804,0.8804,0.8851,0.8945,0.9097,0.9466,0.9826,1.0033,1.0649,1.1469,1.1469,1.1958,1.2696,1.2696,1.3183,1.3906,1.4154,1.4569,1.5108,1.5352,1.541,1.541,1.541,1.5957,1.6689,1.7305,1.8091,1.8833,1.888,1.9628,2.0268,2.0268,2.0719,2.0974,2.0333,2.0462,2.0526,2.0268,2.0462,2.0526,2.0268,2.0462,2.059,2.059,2.1175,2.1302,2.0655,2.1667,2.2175,2.1616,2.231,2.2763,2.2763,2.3005,2.3365,2.3943,2.3943,2.4337,2.5063,2.5618,2.6014,2.6176,2.5673,2.5673,2.6229,2.6759,2.7086,0.0,0.0,0.0,0.0,0.0,0.0,0.0,0.1544,0.0,0.0,0.0,0.0,0.0,0.0,0.0,0.0,0.0,0.0,0.0,0.0,0.0,0.0,0.0,0.0,0.0,0.4519,0.4519,0.4519,0.4519,0.4952,0.5928,0.6799,0.7343,0.7503,0.8374,0.8804,0.8804,0.8804,0.8804,0.8804,0.8804,0.8804,0.8804,0.8804,0.8804,0.8804,0.9106,0.9211,0.9278,0.9713,0.9926,1.0024,1.061,1.1338,1.2071,1.2212,1.2818,1.3485,1.3485,1.4034,1.4688,1.4688,1.4991,1.541,1.541,1.541,1.541,1.541,1.6277,1.7539,1.874,1.9431,1.9814,1.9814,2.0526,2.1164,2.1164,2.1803,2.2125,2.1302,2.1416,2.1542,2.1164,2.1428,2.1542,2.1175,2.1416,2.1667,2.1667,2.2063,2.2187,2.1678,2.2506,2.2884,2.2445,2.2823,2.3245,2.3603,2.359,2.3943,2.4738,2.4738,2.5119,2.5837,2.6283,2.6669,2.693,2.6549,2.6549,2.6982,2.7408,2.7625,-0.0277,0.0,0.0,0.0,0.0,0.0,0.0984,0.1308,0.0,0.0,0.0,0.0,0.0,0.0,0.0,0.0,0.0,0.0,0.0,0.0,0.0,0.0,0.0,0.0,0.4519,0.4519,0.4519,0.4519,0.4519,0.5062,0.6421,0.6534,0.7235,0.8646,0.8752,0.8804,0.8804,0.8804,0.8804,0.8804,0.8804,0.8804,0.8804,0.8804,0.8857,0.8962,0.9562,0.9865,0.9969,1.061,1.0749,1.0553,1.155,1.2215,1.263,1.3014,1.3666,1.4323,1.4323,1.4805,1.541,1.541,1.541,1.541,1.541,1.5468,1.5546,1.5751,1.6937,1.8505,2.0142,2.0655,2.0719,2.0719,2.1428,2.2002,2.2002,2.258,2.2884,2.2199,2.2628,2.2884,2.2137,2.2641,2.2884,2.2125,2.2628,2.3078,2.3078,2.3078,2.3138,2.3185,2.3245,2.3245,2.3365,2.3365,2.3649,2.4408,2.4408,2.4738,2.5508,2.5508,2.5837,2.6616,2.6616,2.693,2.7625,2.7625,2.7625,2.7625,2.7625,2.7625,-0.0062,-0.0,-0.0,-0.0,0.0,0.0,0.0211,0.1391,0.0,0.0,0.0,0.0,0.0,0.0,0.0,0.0,0.0,0.0,0.0,0.0,0.0,0.0,0.0,0.0,0.457,0.4519,0.4519,0.4519,0.4519,0.4842,0.5651,0.6258,0.702,0.7883,0.848,0.8804,0.8804,0.8804,0.8804,0.8804,0.8804,0.8804,0.8804,0.8804,0.9106,0.9614,0.9762,1.0115,1.0661,1.1316,1.1619,1.163,1.1814,1.2709,1.3868,1.3939,1.451,1.5177,1.5177,1.5294,1.541,1.541,1.541,1.541,1.541,1.5806,1.6582,1.7954,1.8599,1.9166,2.0269,2.1101,2.1628,2.1628,2.2249,2.2884,2.2884,2.3005,2.3065,2.2884,2.3005,2.3078,2.2884,2.3017,2.3078,2.2884,2.3017,2.3078,2.3078,2.3078,2.3365,2.4002,2.406,2.4337,2.4894,2.4951,2.5007,2.5175,2.5175,2.5508,2.6229,2.6283,2.6602,2.7357,2.7408,2.7473,2.7625,2.7625,2.7625,2.7625,2.7625,2.7625,-0.0,-0.0,-0.0,-0.0,0.0,0.0,0.0,0.0,0.0,0.0,0.0,0.0,0.0,0.0,0.0,0.0,0.0,0.0,0.0,0.0,0.0,0.0,0.0,0.0,0.505,0.5332,0.5555,0.5555,0.5555,0.5878,0.6573,0.6961,0.7509,0.8209,0.8586,0.8804,0.8804,0.8804,0.8804,0.8804,0.8804,0.8804,0.8804,0.8804,0.9159,0.9814,1.0167,1.0661,1.1366,1.208,1.2499,1.2743,1.2933,1.3607,1.4533,1.474,1.505,1.541,1.541,1.541,1.541,1.541,1.5642,1.5921,1.5921,1.6639,1.7829,1.932,1.9946,2.0389,2.1528,2.2187,2.2506,2.2506,2.2823,2.3078,2.3078,2.3424,2.3708,2.3708,2.3989,2.3989,2.3245,2.3424,2.3708,2.3708,2.3989,2.4266,2.4266,2.4266,2.4381,2.4794,2.4851,2.5007,2.5342,2.5398,2.5563,2.596,2.596,2.6283,2.7034,2.7034,2.7203,2.7575,2.7625,2.776,2.8042,2.8042,2.8042,2.8042,2.8367,2.8496,0.0,0.0,0.0,0.0,0.0,-0.0,0.0,0.0,0.0,0.0,0.0,0.0,0.0,0.0,0.0,0.0,0.0,0.0,0.0,0.0,0.0,0.0,0.0,0.0,0.0,0.6028,0.6473,0.6518,0.6523,0.6865,0.7664,0.7723,0.8049,0.8752,0.8804,0.8804,0.8804,0.8804,0.8804,0.8804,0.8804,0.8804,0.8804,0.8956,0.9361,1.0012,1.0712,1.1366,1.208,1.2666,1.3125,1.3545,1.3912,1.4404,1.4834,1.5254,1.541,1.541,1.5584,1.5584,1.5642,1.5796,1.6255,1.6765,1.6866,1.7767,1.8954,2.028,2.0981,2.1703,2.2807,2.3078,2.3125,2.3305,2.3305,2.3365,2.3531,2.4047,2.4509,2.4509,2.5007,2.5007,2.3754,2.4105,2.4509,2.4509,2.5007,2.5398,2.5398,2.5398,2.5453,2.5618,2.5618,2.5673,2.5837,2.5837,2.6054,2.6669,2.6721,2.6982,2.7575,2.7625,2.766,2.776,2.776,2.8091,2.8685,2.8779,2.8779,2.8701,2.918,2.9406,0.0,0.0,0.0,0.0,-0.0,0.0,0.0,0.0,0.0,0.0,0.0,0.0,0.0,0.0,0.0,0.0,0.0,0.0,0.0,0.0,0.0,0.0,0.0,0.0,0.0,0.5503,0.5972,0.6211,0.6226,0.6681,0.7658,0.7723,0.8049,0.8752,0.8804,0.8804,0.8804,0.8804,0.8804,0.8804,0.8804,0.8804,0.8804,0.9413,1.0064,1.0712,1.1416,1.2089,1.2774,1.2881,1.3125,1.3545,1.3912,1.4404,1.4834,1.5254,1.541,1.5468,1.6151,1.6379,1.6482,1.7135,1.7413,1.7578,1.8232,1.8932,1.9754,2.1039,2.1768,2.2318,2.2927,2.3078,2.3245,2.4002,2.4176,2.4337,2.5007,2.5231,2.5287,2.5287,2.5342,2.5342,2.5175,2.5231,2.5287,2.5287,2.5342,2.5398,2.5398,2.5398,2.5673,2.6283,2.6404,2.6669,2.7291,2.7357,2.7408,2.7458,2.7473,2.7524,2.7625,2.7625,2.786,2.8367,2.8383,2.8685,2.9316,2.9848,2.9805,2.9316,2.9361,2.9406,0.0,0.0,0.0,0.0,0.0,0.0,-0.0,0.0,0.0139,0.0,0.0,0.0,0.0,0.0,0.0,0.0,0.0,0.0,0.0,0.0,0.0,0.0,0.0,0.0,0.0,0.0,0.0,0.0,0.7348,0.7638,0.8075,0.8233,0.848,0.8804,0.8804,0.8804,0.8804,0.8804,0.8804,0.8811,0.9211,0.9361,0.9413,1.0064,1.0771,1.1416,1.1665,1.2236,1.2881,1.2881,1.3213,1.3767,1.4461,1.4754,1.489,1.5703,1.6036,1.614,1.6866,1.7146,1.7246,1.8015,1.8232,1.8394,1.9097,1.9986,2.0779,2.1362,2.2451,2.3528,2.3774,2.4105,2.4496,2.4851,2.4951,2.5007,2.5342,2.5728,2.6068,2.6068,2.6375,2.6707,2.6707,2.6322,2.6068,2.6068,2.6375,2.6707,2.6707,2.6707,2.6811,2.71,2.7137,2.7255,2.7575,2.7625,2.7625,2.7625,2.7625,2.776,2.8091,2.814,2.8415,2.8996,2.9012,2.9316,2.9935,3.0166,3.0351,3.0435,3.0435,3.0435,-0.0,0.0,0.0,0.0,0.0,0.0,0.0,0.0,0.0,0.0,0.0,0.0,0.0,0.0,0.0,0.0,0.0,0.0,0.0,0.0,0.0,0.0,0.0,0.0,0.0,0.0,0.0,0.0,0.0,0.8252,0.837,0.8571,0.8724,0.8804,0.8804,0.8804,0.8804,0.8956,0.9061,0.9061,0.9762,1.0064,1.0115,1.0771,1.1366,1.1814,1.2021,1.2403,1.2929,1.3055,1.342,1.391,1.5028,1.5353,1.5318,1.6374,1.681,1.6922,1.7633,1.8004,1.8286,1.8821,1.898,1.9097,1.9643,2.0589,2.1511,2.1513,2.2886,2.431,2.4309,2.4885,2.5453,2.5673,2.5673,2.5728,2.5946,2.6443,2.6826,2.6826,2.7255,2.7625,2.7625,2.7152,2.6826,2.6826,2.7255,2.7625,2.7625,2.7625,2.7625,2.7625,2.7625,2.7625,2.7625,2.7625,2.7675,2.786,2.786,2.814,2.8732,2.8732,2.9042,2.9629,2.9629,2.9935,3.0559,3.0559,3.0781,3.119,3.119,3.1252,0.0,0.0,0.0,-0.0,0.0,0.0,0.0,0.0,-0.0,0.0,0.0,0.0,0.0,0.0,0.0,0.0,0.0,0.0,0.0,0.0,0.0,0.0,0.0,0.0,0.0,0.0,0.0,0.0,0.0,0.0,0.8393,0.8434,0.8517,0.8798,0.8804,0.8804,0.8804,0.9465,0.9762,0.9762,1.0466,1.0771,1.0813,1.1466,1.1765,1.1814,1.2559,1.2881,1.2978,1.3552,1.3768,1.3958,1.5549,1.6137,1.6271,1.7221,1.7578,1.7688,1.8394,1.915,1.9747,1.9747,1.9747,1.9747,1.9798,2.0589,2.1534,2.1603,2.2892,2.4319,2.4368,2.4888,2.5563,2.6283,2.6457,2.6669,2.7357,2.7575,2.756,2.756,2.7575,2.7625,2.7625,2.7575,2.756,2.756,2.7575,2.7625,2.7625,2.7625,2.7625,2.7625,2.7625,2.7625,2.7625,2.7625,2.786,2.8415,2.8463,2.8732,2.9361,2.9361,2.9673,3.0251,3.0251,3.0559,3.119,3.119,3.119,3.119,3.119,3.1411,0.0,0.0,0.1022,0.0216,0.0,0.0,0.0,0.0,0.0,0.0,0.0,0.0,0.0,0.0,0.0,0.0,0.0,0.0,0.0,0.0,0.0,0.0,0.0,0.0,0.0,0.0,0.0,0.0,0.7291,0.0,0.0,0.8629,0.909,0.9206,0.9804,1.0115,1.0115,1.0364,1.0466,1.0466,1.1166,1.1466,1.1466,1.2197,1.251,1.2559,1.2774,1.3152,1.3505,1.3732,1.4272,1.5062,1.5986,1.6824,1.7569,1.8125,1.834,1.8436,1.915,1.9579,1.985,2.0295,2.0446,2.0547,2.0953,2.1613,2.2347,2.2807,2.395,2.5194,2.5686,2.6323,2.6916,2.7152,2.7255,2.7306,2.7575,2.7625,2.7625,2.7625,2.7625,2.7625,2.7625,2.7625,2.7625,2.7625,2.7625,2.7625,2.7625,2.7625,2.7625,2.7625,2.7944,2.8189,2.8189,2.8543,2.8857,2.9088,2.9104,2.9361,2.9995,2.9995,3.0293,3.0878,3.0878,3.1015,3.119,3.1487,3.1603,3.1603,3.1914,3.1986,0.3842,0.3569,0.0,0.1646,0.1097,0.0,0.0661,0.0,0.0,0.0,0.0,0.0,0.0,0.0,0.0,0.0,0.0,0.0,0.0,0.0,0.0,0.0,0.0,0.0,0.0,0.0,0.6363,0.67,0.7001,0.0,0.0,0.0,0.9257,0.9377,1.029,1.0813,1.0813,1.1065,1.1166,1.1166,1.1882,1.2187,1.2187,1.2666,1.3017,1.3238,1.3238,1.3552,1.4143,1.4365,1.4903,1.568,1.6457,1.7353,1.8257,1.868,1.9096,1.9503,1.9991,2.0283,2.057,2.0966,2.1113,2.1251,2.189,2.2484,2.3114,2.3783,2.491,2.5972,2.6433,2.7077,2.7625,2.7625,2.7625,2.7625,2.7625,2.7625,2.7625,2.7625,2.776,2.7894,2.7894,2.8091,2.8076,2.766,2.776,2.7894,2.7894,2.8125,2.8255,2.8255,2.8591,2.8826,2.8826,2.918,2.9496,2.9717,2.9717,2.9995,3.0617,3.0617,3.0781,3.119,3.119,3.1252,3.1411,3.166,3.1897,3.2057,3.2533,3.2583]},{"header":{"parameterUnit":"m.s-1","parameterCategory":1,"la1":30.6,"la2":29.2853,"lo1":-89.7004,"lo2":-87.6739,"dy":0.0162,"dx":0.0183,"nx":112,"ny":82,"refTime":"2026-03-18T12:00:00:Z","depth":0,"parameterNumber":3,"parameterNumberName":"V-component_of_WINDS"},"data":[0.0,0.0,0.0,0.0,0.0,0.0,0.0,0.0,0.0,0.0,0.0,0.0,0.0,0.0,0.0,0.0,0.0,0.0,0.0,0.0,0.0,0.0,0.0,0.0,0.0,0.0,0.0,0.0,0.0,0.0,0.0,0.0,0.0,0.0,0.0,0.0,0.0,0.0,0.0,0.0,0.0,0.0,0.0,0.0,0.0,0.0,0.0,0.0,0.0,0.0,0.0,0.0,0.0,0.0,0.0,0.0,0.0,0.0,0.0,0.0,0.0,0.0,0.0,0.0,0.0,0.0,0.0,0.0,0.0,0.0,0.0,0.0,0.0,0.0,0.0,0.0,0.0,0.0,0.0,0.0,0.0,0.0,0.0,0.0,0.0,0.0,0.0,0.0,0.0,0.0,0.0,-1.7709,-1.8985,-1.9824,-1.9824,-1.9866,-1.9157,-1.7463,0.0,0.0,0.0,0.0,0.0,0.0,0.0,0.0,0.0,0.0,0.0,0.0,0.0,0.0,0.0,0.0,0.0,0.0,0.0,0.0,0.0,0.0,0.0,0.0,0.0,0.0,0.0,0.0,0.0,0.0,0.0,0.0,0.0,0.0,0.0,0.0,0.0,0.0,0.0,0.0,0.0,0.0,0.0,0.0,0.0,0.0,0.0,0.0,0.0,0.0,0.0,0.0,0.0,0.0,0.0,0.0,0.0,0.0,0.0,0.0,0.0,0.0,0.0,0.0,0.0,0.0,0.0,0.0,0.0,0.0,0.0,0.0,0.0,0.0,0.0,0.0,0.0,0.0,0.0,0.0,0.0,0.0,0.0,0.0,0.0,0.0,0.0,0.0,0.0,0.0,0.0,0.0,0.0,0.0,0.0,0.0,0.0,0.0,0.0,0.0,0.0,0.0,0.0,0.0,-1.8096,-1.945,-1.9831,-1.9983,-1.9983,-2.0125,-1.9476,-1.7749,0.0,0.0,0.0,0.0,0.0,0.0,0.0,0.0,0.0,0.0,0.0,0.0,0.0,0.0,0.0,0.0,0.0,0.0,0.0,0.0,0.0,0.0,0.0,0.0,0.0,0.0,0.0,0.0,0.0,0.0,0.0,0.0,0.0,0.0,0.0,0.0,0.0,0.0,0.0,0.0,0.0,0.0,0.0,0.0,0.0,0.0,0.0,0.0,0.0,0.0,0.0,0.0,0.0,0.0,0.0,0.0,0.0,0.0,0.0,0.0,0.0,0.0,0.0,0.0,0.0,0.0,0.0,0.0,0.0,0.0,0.0,0.0,0.0,0.0,0.0,0.0,0.0,0.0,0.0,0.0,0.0,0.0,0.0,0.0,0.0,0.0,0.0,0.0,0.0,0.0,0.0,0.0,0.0,0.0,0.0,0.0,0.0,0.0,0.0,0.0,0.0,0.0,0.0,-1.7183,-1.831,-1.9988,-2.0161,-2.0161,-2.0161,-2.0241,-1.9561,-1.7811,-1.7634,0.0,0.0,0.0,0.0,0.0,0.0,0.0,0.0,0.0,0.0,0.0,0.0,0.0,0.0,0.0,0.0,0.0,0.0,0.0,0.0,0.0,0.0,0.0,0.0,0.0,0.0,0.0,0.0,0.0,0.0,0.0,0.0,0.0,0.0,0.0,0.0,0.0,0.0,0.0,0.0,0.0,0.0,0.0,0.0,0.0,0.0,0.0,0.0,0.0,0.0,0.0,0.0,0.0,0.0,0.0,0.0,0.0,0.0,0.0,0.0,0.0,0.0,0.0,0.0,0.0,0.0,0.0,0.0,0.0,0.0,0.0,0.0,0.0,0.0,0.0,0.0,0.0,0.0,0.0,0.0,0.0,0.0,0.0,0.0,0.0,0.0,0.0,0.0,0.0,0.0,0.0,0.0,0.0,0.0,0.0,0.0,0.0,0.0,0.0,0.0,0.0,0.0,-1.8472,-1.8811,-2.0158,-2.0312,-2.0312,-2.0312,-2.0111,-1.935,-1.7792,-1.7523,0.0,0.0,0.0,0.0,0.0,0.0,0.0,0.0,0.0,0.0,0.0,0.0,0.0,0.0,0.0,0.0,0.0,0.0,0.0,0.0,0.0,0.0,0.0,0.0,0.0,0.0,0.0,0.0,0.0,0.0,0.0,0.0,0.0,0.0,0.0,0.0,0.0,0.0,0.0,0.0,0.0,0.0,0.0,0.0,0.0,0.0,0.0,0.0,0.0,0.0,0.0,0.0,0.0,0.0,0.0,0.0,0.0,0.0,0.0,0.0,0.0,0.0,0.0,0.0,0.0,0.0,0.0,0.0,0.0,0.0,0.0,0.0,0.0,0.0,0.0,0.0,0.0,0.0,0.0,0.0,0.0,0.0,0.0,0.0,0.0,0.0,0.0,0.0,0.0,0.0,0.0,0.0,0.0,0.0,0.0,0.0,0.0,0.0,0.0,0.0,0.0,0.0,-1.9158,-2.0158,-2.0292,-2.0312,-2.0312,-2.0312,-1.9554,-1.8689,-1.7753,-1.6997,0.0,0.0,0.0,0.0,0.0,0.0,0.0,0.0,0.0,0.0,0.0,0.0,0.0,0.0,0.0,0.0,0.0,0.0,0.0,0.0,0.0,0.0,0.0,0.0,0.0,0.0,0.0,0.0,0.0,0.0,0.0,0.0,0.0,0.0,0.0,0.0,0.0,0.0,0.0,0.0,0.0,0.0,0.0,0.0,0.0,0.0,0.0,0.0,0.0,0.0,0.0,0.0,0.0,0.0,0.0,0.0,0.0,0.0,0.0,0.0,0.0,0.0,0.0,0.0,0.0,0.0,0.0,0.0,0.0,0.0,0.0,0.0,0.0,0.0,0.0,0.0,0.0,0.0,0.0,0.0,0.0,0.0,0.0,0.0,0.0,0.0,0.0,0.0,0.0,0.0,0.0,0.0,0.0,0.0,0.0,0.0,0.0,0.0,0.0,0.0,0.0,0.0,-1.878,-1.9735,0.0,-2.035,-2.0369,-2.0369,-2.0062,-1.9292,-1.7914,0.0,0.0,0.0,0.0,0.0,0.0,0.0,0.0,0.0,0.0,0.0,0.0,0.0,0.0,0.0,0.0,0.0,0.0,0.0,0.0,0.0,0.0,0.0,0.0,0.0,0.0,0.0,0.0,0.0,0.0,0.0,0.0,0.0,0.0,0.0,0.0,0.0,0.0,0.0,0.0,0.0,0.0,0.0,0.0,0.0,0.0,0.0,0.0,0.0,0.0,0.0,0.0,0.0,0.0,0.0,0.0,0.0,0.0,0.0,0.0,0.0,0.0,0.0,0.0,0.0,0.0,0.0,0.0,0.0,0.0,0.0,0.0,0.0,0.0,0.0,0.0,0.0,0.0,0.0,0.0,0.0,0.0,0.0,0.0,0.0,0.0,0.0,0.0,0.0,0.0,0.0,0.0,0.0,0.0,0.0,0.0,0.0,0.0,0.0,0.0,0.0,0.0,-1.7549,-1.8761,-1.9726,0.0,-2.036,-2.0398,-2.0398,-1.9909,-1.9111,-1.7965,0.0,0.0,0.0,0.0,0.0,0.0,0.0,0.0,0.0,0.0,0.0,0.0,0.0,0.0,0.0,0.0,0.0,0.0,0.0,0.0,0.0,0.0,0.0,0.0,0.0,0.0,0.0,0.0,0.0,0.0,0.0,0.0,0.0,0.0,0.0,0.0,0.0,0.0,0.0,0.0,0.0,0.0,0.0,0.0,0.0,0.0,0.0,0.0,0.0,0.0,0.0,0.0,0.0,0.0,0.0,0.0,0.0,0.0,0.0,0.0,0.0,0.0,0.0,0.0,0.0,0.0,0.0,0.0,0.0,0.0,0.0,0.0,0.0,0.0,0.0,0.0,0.0,0.0,0.0,0.0,0.0,0.0,0.0,0.0,0.0,0.0,0.0,0.0,0.0,0.0,0.0,0.0,0.0,0.0,0.0,0.0,0.0,0.0,0.0,0.0,0.0,0.0,-1.7684,-1.9319,-2.0404,-2.0394,-2.041,-2.0391,-2.0391,-1.8862,-1.7921,0.0,0.0,0.0,0.0,0.0,0.0,0.0,0.0,0.0,0.0,0.0,0.0,0.0,0.0,0.0,0.0,0.0,0.0,0.0,0.0,0.0,0.0,0.0,0.0,0.0,0.0,0.0,0.0,0.0,0.0,0.0,0.0,0.0,0.0,0.0,0.0,0.0,0.0,0.0,0.0,0.0,0.0,0.0,0.0,0.0,0.0,0.0,0.0,0.0,0.0,0.0,0.0,0.0,0.0,0.0,0.0,0.0,0.0,0.0,0.0,0.0,0.0,0.0,0.0,0.0,0.0,0.0,0.0,0.0,0.0,0.0,0.0,0.0,0.0,0.0,0.0,0.0,0.0,0.0,0.0,0.0,0.0,0.0,0.0,0.0,0.0,0.0,0.0,0.0,0.0,0.0,0.0,0.0,0.0,0.0,0.0,0.0,0.0,0.0,0.0,0.0,0.0,0.0,-1.7676,-1.9381,-2.0469,-2.0469,-2.051,-2.054,-2.054,-1.9525,-1.8625,-1.8019,0.0,0.0,0.0,0.0,0.0,0.0,0.0,0.0,0.0,0.0,0.0,0.0,0.0,0.0,0.0,0.0,0.0,0.0,0.0,0.0,0.0,0.0,0.0,0.0,0.0,0.0,0.0,0.0,0.0,0.0,0.0,0.0,0.0,0.0,0.0,0.0,0.0,0.0,0.0,0.0,0.0,0.0,0.0,0.0,0.0,0.0,0.0,0.0,0.0,0.0,0.0,0.0,0.0,0.0,0.0,0.0,0.0,0.0,0.0,0.0,0.0,0.0,0.0,0.0,0.0,0.0,0.0,0.0,0.0,0.0,0.0,0.0,0.0,0.0,0.0,0.0,0.0,0.0,0.0,0.0,0.0,0.0,0.0,0.0,0.0,0.0,0.0,0.0,0.0,0.0,0.0,0.0,0.0,0.0,0.0,0.0,0.0,0.0,0.0,0.0,0.0,0.0,-1.7676,-1.9444,-2.0531,-2.0531,-2.0588,-2.0605,-2.0605,-1.9805,-1.8926,-1.8066,0.0,0.0,0.0,0.0,0.0,0.0,0.0,0.0,0.0,0.0,0.0,0.0,0.0,0.0,0.0,0.0,0.0,0.0,0.0,0.0,0.0,0.0,0.0,0.0,0.0,0.0,0.0,0.0,0.0,0.0,0.0,0.0,0.0,0.0,0.0,0.0,0.0,0.0,0.0,0.0,0.0,0.0,0.0,0.0,0.0,0.0,0.0,0.0,0.0,0.0,0.0,0.0,0.0,0.0,0.0,0.0,0.0,0.0,0.0,0.0,0.0,0.0,0.0,0.0,0.0,0.0,0.0,0.0,0.0,0.0,0.0,0.0,0.0,0.0,0.0,0.0,0.0,0.0,0.0,0.0,0.0,0.0,0.0,0.0,0.0,0.0,0.0,0.0,0.0,0.0,0.0,0.0,0.0,0.0,0.0,0.0,0.0,0.0,0.0,0.0,0.0,0.0,-1.7694,-1.9485,-2.0605,-2.0605,-2.0605,-2.0605,-2.0605,-1.9805,-1.8926,-1.8066,0.0,0.0,0.0,0.0,0.0,0.0,0.0,0.0,0.0,0.0,0.0,0.0,0.0,0.0,0.0,0.0,0.0,0.0,0.0,0.0,0.0,0.0,0.0,0.0,0.0,0.0,0.0,0.0,0.0,0.0,0.0,0.0,0.0,0.0,0.0,0.0,0.0,0.0,0.0,0.0,0.0,0.0,0.0,0.0,0.0,0.0,0.0,0.0,0.0,0.0,0.0,0.0,0.0,0.0,0.0,0.0,0.0,0.0,0.0,0.0,-1.8071,0.0,0.0,0.0,0.0,0.0,0.0,0.0,0.0,0.0,0.0,0.0,0.0,0.0,0.0,0.0,0.0,0.0,0.0,0.0,0.0,0.0,0.0,0.0,0.0,0.0,0.0,0.0,0.0,0.0,0.0,0.0,0.0,0.0,0.0,0.0,0.0,0.0,0.0,0.0,0.0,0.0,-1.7843,-1.951,-2.0605,-2.0605,-2.0605,-2.0605,-2.0605,-1.9805,-1.8926,-1.8066,-1.6194,0.0,0.0,0.0,0.0,0.0,0.0,0.0,0.0,0.0,0.0,0.0,0.0,0.0,0.0,0.0,0.0,0.0,0.0,0.0,0.0,0.0,0.0,0.0,0.0,0.0,0.0,0.0,0.0,0.0,0.0,0.0,0.0,0.0,0.0,0.0,0.0,0.0,0.0,0.0,0.0,0.0,0.0,0.0,0.0,0.0,0.0,0.0,0.0,0.0,0.0,0.0,0.0,0.0,0.0,0.0,0.0,0.0,0.0,0.0,0.0,-1.8946,0.0,0.0,0.0,0.0,0.0,0.0,0.0,0.0,0.0,0.0,0.0,0.0,0.0,0.0,0.0,0.0,0.0,0.0,0.0,0.0,0.0,0.0,0.0,0.0,0.0,0.0,0.0,0.0,0.0,0.0,0.0,0.0,0.0,0.0,0.0,0.0,0.0,0.0,0.0,0.0,-1.8457,-2.0156,-2.1204,-2.1176,-2.1184,-2.1159,-2.1132,-2.0334,-1.9454,-1.8574,-1.6917,0.0,0.0,0.0,0.0,0.0,0.0,0.0,0.0,0.0,0.0,0.0,0.0,0.0,0.0,0.0,0.0,0.0,0.0,0.0,0.0,0.0,0.0,0.0,0.0,0.0,0.0,0.0,0.0,0.0,0.0,0.0,0.0,0.0,0.0,0.0,0.0,0.0,0.0,0.0,0.0,0.0,0.0,0.0,0.0,0.0,0.0,0.0,0.0,0.0,0.0,0.0,0.0,0.0,-2.1716,-2.21,-2.1985,-2.2831,-2.3235,-2.3158,-2.1773,-2.1004,-2.0677,-1.9954,0.0,0.0,0.0,0.0,0.0,0.0,0.0,0.0,0.0,0.0,0.0,0.0,0.0,0.0,0.0,0.0,0.0,0.0,0.0,0.0,0.0,0.0,0.0,0.0,-1.9371,-1.9459,-1.7863,0.0,0.0,0.0,0.0,0.0,0.0,0.0,0.0,0.0,0.0,0.0,-1.9282,-2.0891,-2.1893,-2.1993,-2.187,-2.1751,-2.1707,-2.091,-2.0026,-1.9163,-1.7797,-1.6583,0.0,0.0,0.0,0.0,0.0,0.0,0.0,0.0,0.0,0.0,0.0,0.0,0.0,0.0,0.0,0.0,0.0,0.0,0.0,0.0,0.0,0.0,0.0,0.0,0.0,0.0,0.0,0.0,0.0,0.0,0.0,0.0,-1.4673,-1.4985,0.0,0.0,0.0,0.0,0.0,0.0,0.0,0.0,0.0,0.0,0.0,0.0,0.0,-2.1177,-2.1177,-2.2802,-2.3225,-2.2485,-2.4062,-2.4428,-2.3783,-2.4601,-2.4957,-2.4957,-2.4745,0.0,-2.2466,-2.235,0.0,0.0,0.0,0.0,0.0,0.0,0.0,0.0,0.0,0.0,0.0,0.0,0.0,0.0,0.0,0.0,0.0,0.0,0.0,0.0,0.0,0.0,-2.2573,-2.2511,-2.2582,-2.2395,0.0,-1.9455,-1.7591,-1.6543,-1.5829,0.0,0.0,0.0,0.0,0.0,0.0,0.0,-2.0129,-2.1152,-2.2012,-2.276,-2.2168,-2.1705,-2.171,-2.0904,-2.0034,-1.9158,-1.8897,-1.8063,-1.6495,-1.5427,0.0,0.0,0.0,0.0,0.0,0.0,0.0,0.0,0.0,0.0,0.0,0.0,0.0,0.0,0.0,0.0,0.0,0.0,0.0,0.0,0.0,0.0,0.0,0.0,0.0,0.0,0.0,0.0,0.0,-1.3898,-1.5152,-1.585,-1.6636,-1.6956,0.0,0.0,0.0,0.0,0.0,0.0,0.0,0.0,0.0,-2.0408,-2.2062,-2.2947,-2.2947,-2.4178,-2.4582,-2.4216,-2.4986,-2.5178,-2.4832,-2.5236,-2.5409,-2.5409,-2.5409,-2.5005,-2.4274,-2.3764,-2.2821,-2.1763,0.0,0.0,0.0,0.0,-2.1288,-2.1415,-2.2318,-2.2386,-2.2053,-2.1939,0.0,0.0,0.0,0.0,0.0,0.0,0.0,0.0,0.0,0.0,-2.3164,-2.3199,-2.3163,-2.3047,-2.2651,-2.1653,-2.0281,0.0,-1.7852,-1.7162,-1.58,0.0,0.0,0.0,0.0,-1.9927,-2.1683,-2.2615,-2.3238,-2.3574,-2.3317,-2.3081,-2.3041,-2.1801,-2.0861,-2.0469,-1.9561,-1.871,-1.7985,-1.7112,-1.6039,0.0,0.0,0.0,0.0,0.0,0.0,0.0,0.0,0.0,0.0,0.0,0.0,0.0,0.0,0.0,0.0,0.0,0.0,0.0,0.0,0.0,0.0,0.0,0.0,0.0,0.0,0.0,0.0,-1.5005,-1.6081,-1.6987,-1.7987,-1.8286,0.0,0.0,0.0,0.0,0.0,0.0,-2.0581,-2.16,-2.2177,-2.2177,-2.362,-2.4409,-2.4409,-2.5005,-2.5303,-2.5322,-2.539,-2.5524,-2.576,-2.5578,-2.5625,-2.5818,-2.5597,-2.55,-2.5443,-2.4744,-2.3975,-2.3272,-2.3253,-2.3137,-2.3023,-2.3277,-2.336,-2.3475,-2.4365,-2.4514,-2.4258,-2.3836,-2.34,-2.2858,-2.1808,0.0,0.0,0.0,0.0,-2.2734,-2.3555,-2.3809,-2.3848,-2.3848,-2.3809,-2.3769,-2.3749,-2.3567,-2.2784,0.0,-2.0085,-1.9524,-1.8212,0.0,0.0,0.0,0.0,-2.1327,-2.3052,-2.3794,-2.4226,-2.4389,-2.4265,-2.4149,-2.411,-2.2716,-2.1735,-2.1504,-2.0331,-1.9453,-1.903,-1.8421,-1.7382,-1.5868,0.0,0.0,0.0,0.0,0.0,0.0,0.0,0.0,0.0,0.0,0.0,0.0,0.0,0.0,0.0,0.0,0.0,0.0,0.0,0.0,0.0,0.0,0.0,0.0,0.0,0.0,0.0,0.0,0.0,-1.8668,-2.0227,0.0,0.0,0.0,0.0,-2.0235,-2.0946,-2.1389,-2.1446,-2.3052,-2.3975,-2.3975,-2.4793,-2.5245,-2.5245,-2.5284,-2.5322,-2.5409,-2.5409,-2.5862,-2.6695,-2.5873,-2.595,-2.6695,-2.5853,-2.5498,-2.5507,-2.5451,-2.4957,-2.4226,-2.4225,-2.3733,-2.3115,-2.4012,-2.4328,-2.4444,-2.5336,-2.5097,-2.4511,-2.5312,-2.4492,-2.332,-2.4004,-2.3086,0.0,0.0,-2.4277,-2.4473,-2.5332,-2.5566,-2.5566,-2.5566,-2.5566,-2.5554,-2.5484,-2.4812,-2.3976,0.0,-2.2249,-2.162,-2.1473,0.0,-2.0571,-2.1438,-2.1549,-2.2143,-2.3832,-2.4091,-2.4389,-2.5149,-2.4562,-2.411,-2.411,-2.3263,-2.237,-2.1543,-2.1427,-2.0658,-1.9073,-1.8965,-1.8511,-1.758,-1.6003,0.0,0.0,0.0,0.0,0.0,0.0,0.0,0.0,0.0,0.0,0.0,0.0,0.0,0.0,0.0,0.0,0.0,0.0,0.0,0.0,0.0,0.0,0.0,0.0,0.0,0.0,0.0,0.0,-1.9767,-2.1287,0.0,-2.105,-2.1545,-2.2139,-2.2697,-2.3013,-2.3389,-2.3928,-2.4524,-2.487,-2.487,-2.5149,-2.5572,-2.614,-2.6169,-2.6487,-2.7073,-2.7161,-2.7373,-2.7699,-2.7429,-2.7469,-2.7741,-2.7441,-2.6982,-2.6466,-2.6475,-2.5944,-2.5139,-2.5153,-2.4977,-2.4775,-2.511,-2.5242,-2.5286,-2.5584,-2.5508,-2.5293,-2.5605,-2.5293,-2.4863,-2.5156,-2.4824,-2.4473,-2.5078,-2.5234,-2.5312,-2.5625,-2.5662,-2.5635,-2.5635,-2.5595,-2.5566,-2.5531,-2.5286,-2.4966,-2.463,-2.3496,-2.2403,-2.1801,-2.188,-2.2114,-2.2431,-2.2891,-2.3602,-2.4735,-2.4861,-2.4986,-2.5264,-2.5043,-2.487,-2.487,-2.4101,-2.3263,-2.2389,-2.1812,-2.1004,-1.9881,-1.985,-1.9427,-1.8549,-1.7946,-1.6689,0.0,0.0,0.0,0.0,0.0,0.0,0.0,0.0,0.0,0.0,0.0,0.0,0.0,0.0,0.0,0.0,0.0,0.0,0.0,0.0,0.0,0.0,0.0,0.0,0.0,0.0,-2.067,-2.1041,-2.2593,-2.3275,-2.2355,-2.3121,-2.387,-2.4466,-2.4505,-2.4736,-2.5264,-2.5303,-2.5303,-2.5303,-2.5591,-2.6024,-2.6601,-2.6968,-2.7451,-2.8045,-2.8145,-2.8373,-2.8664,-2.8403,-2.8457,-2.8711,-2.8437,-2.7969,-2.7443,-2.7443,-2.7069,-2.6456,-2.5861,-2.5664,-2.5703,-2.5703,-2.5703,-2.5703,-2.5703,-2.5703,-2.5703,-2.5703,-2.5703,-2.5703,-2.5703,-2.5703,-2.5702,-2.5673,-2.5678,-2.5665,-2.5648,-2.5605,-2.5567,-2.5563,-2.5534,-2.5493,-2.5473,-2.5459,-2.5447,-2.539,-2.4514,-2.3621,-2.3026,-2.3362,-2.3707,-2.3698,-2.4159,-2.4697,-2.5226,-2.5303,-2.5303,-2.5303,-2.5303,-2.5303,-2.5303,-2.4562,-2.3707,-2.2786,-2.1913,-2.106,-2.0235,-2.0197,-1.9964,-1.9453,-1.8869,-1.76,-1.5638,0.0,0.0,0.0,0.0,0.0,0.0,0.0,0.0,0.0,0.0,0.0,0.0,0.0,0.0,0.0,0.0,0.0,0.0,0.0,0.0,0.0,0.0,0.0,-1.9982,-2.091,-2.1761,-2.2552,-2.4225,-2.4917,-2.3949,-2.4724,-2.5303,-2.5303,-2.5303,-2.5303,-2.5303,-2.5303,-2.5303,-2.5341,-2.6159,-2.664,-2.6678,-2.7603,-2.8083,-2.8184,-2.8252,-2.8767,-2.9609,-2.8769,-2.8848,-2.959,-2.875,-2.8379,-2.834,-2.834,-2.832,-2.8125,-2.6445,-2.5781,-2.5781,-2.5781,-2.5781,-2.5781,-2.5781,-2.5762,-2.5742,-2.5742,-2.5723,-2.5703,-2.5703,-2.5703,-2.5673,-2.5619,-2.5601,-2.5581,-2.5523,-2.5503,-2.551,-2.5504,-2.5505,-2.5486,-2.5409,-2.5409,-2.539,-2.5303,-2.5341,-2.539,-2.5303,-2.5303,-2.5303,-2.5303,-2.5303,0.0,-2.5303,-2.5303,-2.5303,-2.5303,-2.5303,-2.5303,-2.5303,-2.4582,-2.3698,-2.2677,-2.1816,-2.0947,-2.005,-2.0031,-2.0135,-2.0323,-1.8619,-1.733,-1.6542,0.0,0.0,0.0,0.0,0.0,0.0,0.0,0.0,0.0,0.0,0.0,0.0,0.0,0.0,0.0,0.0,0.0,0.0,0.0,0.0,0.0,0.0,-1.9849,-2.0078,-2.1981,-2.3438,-2.366,-2.4639,-2.5197,-2.4898,-2.5139,-2.5303,-2.5303,-2.5303,-2.5303,-2.5303,-2.5303,-2.5591,-2.6217,-2.6525,-2.7257,-2.8478,-2.8897,-2.939,-2.9999,-3.0107,-3.0283,-3.0527,-3.0293,-3.0312,-3.0527,-3.0293,-2.9824,-2.9238,-2.9238,-2.8867,-2.8242,-2.7773,-2.7598,-2.7598,-2.7598,-2.7598,-2.7598,-2.7598,-2.7168,-2.6641,-2.6641,-2.6211,-2.5703,-2.5703,-2.5678,-2.5611,-2.5601,-2.5563,-2.5524,-2.5492,-2.547,-2.5434,-2.5418,-2.539,-2.5341,-2.5322,-2.5322,-2.5322,-2.5303,-2.5303,-2.5322,-2.5303,-2.5303,-2.5303,-2.5303,-2.5303,0.0,-2.5303,-2.5303,-2.5303,-2.5303,-2.5303,-2.5303,-2.5303,-2.5101,-2.4341,-2.2853,-2.2517,-2.1749,-2.0282,-2.0642,-2.0908,-2.0957,-1.9438,-1.8222,0.0,0.0,0.0,0.0,0.0,0.0,0.0,0.0,0.0,0.0,0.0,0.0,0.0,0.0,0.0,0.0,0.0,0.0,0.0,0.0,0.0,0.0,-2.0919,-2.1789,-2.1789,-2.3121,-2.4225,-2.4562,-2.5024,-2.5303,-2.5303,-2.5303,-2.5303,-2.5303,-2.5303,-2.5303,-2.5303,-2.5649,-2.6082,-2.6631,-2.7353,-2.8242,-2.927,-2.9757,-3.0243,-3.071,-3.0829,-3.0898,-3.0898,-3.0898,-3.0898,-3.0898,-3.0898,-3.0605,-3.0137,-3.0137,-2.9844,0.0,0.0,0.0,0.0,0.0,-2.8301,-2.8301,-2.8301,-2.7969,-2.7539,-2.7539,-2.7207,-2.6797,-2.6797,-2.6739,-2.6619,-2.6207,-2.6053,-2.5899,-2.5524,-2.539,-2.537,-2.537,-2.5322,-2.5303,-2.5303,-2.5303,-2.5303,-2.5303,-2.5303,0.0,-2.5303,-2.5303,-2.5303,-2.5303,-2.5303,-2.5303,-2.5303,-2.5303,-2.5303,-2.5303,-2.5303,-2.5303,-2.5303,-2.4986,0.0,0.0,0.0,-2.1722,-2.0755,-2.1455,0.0,0.0,0.0,0.0,0.0,0.0,0.0,0.0,-1.817,-1.8043,0.0,0.0,0.0,0.0,0.0,0.0,0.0,0.0,0.0,0.0,0.0,0.0,0.0,0.0,0.0,0.0,-2.2978,-2.4129,-2.4225,-2.4245,-2.4505,-2.5207,-2.5303,-2.5303,-2.5303,-2.5303,-2.5303,-2.5303,-2.5303,-2.5341,-2.5437,0.0,0.0,0.0,0.0,-2.9319,-2.9523,-3.0313,-3.0721,-3.0732,-3.084,-3.0898,-3.0898,-3.0898,-3.0898,-3.0898,-3.0898,-3.0898,-3.0898,-3.0898,-3.0898,-3.0742,-2.9199,-2.8594,-2.8594,-2.8594,-2.8594,-2.8594,-2.8594,0.0,0.0,-2.8457,-2.8379,-2.8301,-2.8296,-2.8248,-2.8014,-2.716,-2.6823,-2.6495,-2.5649,-2.536,-2.5303,-2.5303,-2.5303,-2.5303,-2.5303,-2.5303,-2.5303,-2.5303,-2.5303,-2.5303,-2.5303,-2.5303,-2.5303,-2.5303,-2.5303,-2.5303,-2.5303,-2.5303,-2.5303,-2.5303,0.0,0.0,-2.5264,-2.461,-2.4061,-2.377,-2.2291,-2.1471,-2.1585,-2.2364,-2.2851,-2.291,-2.2851,-2.2793,-2.2793,-2.2793,-2.2851,-2.287,-1.9796,-1.9546,0.0,0.0,0.0,0.0,0.0,0.0,0.0,0.0,0.0,0.0,0.0,0.0,0.0,0.0,0.0,-2.2201,-2.3343,-2.4341,-2.4986,-2.5082,-2.5139,-2.5284,-2.5303,-2.5303,-2.5303,-2.5303,-2.5303,-2.5303,-2.5303,-2.561,-2.6313,-2.6505,-2.7236,-2.8593,-2.9106,-2.968,-3.0358,-3.0703,-3.086,-3.0862,0.0,0.0,-3.0898,-3.0898,-3.0898,-3.0898,-3.0898,-3.0898,-3.0898,-3.0898,-3.0898,-3.0879,-3.0527,-3.0391,-3.0391,-3.0391,-3.0391,-3.0391,-3.0391,-2.9941,-2.9355,-2.9355,-2.8867,-2.8295,-2.8245,-2.8178,0.0,-2.7836,-2.7206,-2.6582,-2.6409,-2.5832,-2.5303,-2.5303,-2.5303,-2.5303,-2.5303,-2.5303,-2.5303,-2.5303,-2.5303,-2.5303,-2.5303,-2.5303,-2.5303,-2.5303,-2.5303,-2.5303,-2.5303,-2.5303,-2.5303,-2.5303,-2.5152,-2.5065,-2.5065,-2.481,-2.4358,-2.3604,-2.2752,-2.2585,-2.3301,-2.2978,-2.3055,-2.3613,-2.3084,-2.2793,-2.2793,-2.2793,-2.3167,-2.3821,-2.2466,-2.2081,0.0,0.0,0.0,0.0,0.0,0.0,0.0,0.0,0.0,0.0,0.0,-1.9047,0.0,0.0,-2.2899,-2.3793,-2.4361,-2.4832,-2.5245,-2.5303,-2.5303,-2.5303,-2.5303,-2.5303,-2.5303,-2.5303,-2.5476,-2.5928,-2.5947,-2.6332,-2.7198,-2.7621,-2.8285,-2.922,-2.9737,-3.0238,-3.0752,-3.0856,-3.0898,-3.0898,-3.0898,-3.0898,-3.0898,-3.0898,-3.0898,-3.0898,-3.0898,-3.0898,-3.0898,-3.0898,-3.0898,-3.0898,-3.0898,-3.0898,-3.0898,-3.0898,-3.0898,-3.0898,-3.0898,-3.0562,-3.0152,-3.0152,-2.9829,-2.9445,-2.9404,-2.9349,-2.9196,-2.873,-2.8236,-2.7659,-2.6813,-2.6274,-2.5851,-2.5399,-2.5303,-2.5303,-2.5303,-2.5303,-2.5303,-2.5303,-2.5303,-2.5303,-2.5303,-2.5303,-2.5303,-2.5303,-2.5303,-2.5264,-2.5163,-2.5152,-2.5118,-2.5068,-2.4962,-2.4904,-2.4904,-2.4842,-2.4431,-2.3554,-2.3593,-2.3701,-2.3805,-2.3864,-2.4117,-2.4539,-2.4216,-2.4043,-2.4043,-2.4043,-2.4274,-2.4697,-2.4255,-2.4043,0.0,0.0,0.0,0.0,0.0,0.0,0.0,0.0,-1.6988,-1.8038,-1.9574,-2.1173,-2.2612,-2.356,-2.4356,-2.5178,-2.5303,-2.5303,-2.5303,-2.5303,-2.5303,-2.5303,-2.5303,-2.5303,-2.5303,-2.5303,-2.5649,-2.6524,-2.6601,-2.7044,-2.8102,-2.8756,-2.9267,-2.9616,-3.0267,-3.0701,-3.086,-3.0897,-3.0898,-3.0898,-3.0898,-3.0898,-3.0898,-3.0898,-3.0898,-3.0898,-3.0898,-3.0898,-3.0898,-3.0898,-3.0898,-3.0898,-3.0898,-3.0876,-3.0864,-3.0897,-3.0898,-3.0898,-3.0868,-3.0795,-3.0698,-3.0679,-3.0637,-3.0593,-3.0574,-3.0549,-3.0352,-2.9621,-2.9256,-2.8794,-2.7448,-2.6832,-2.6428,-2.5707,-2.5418,-2.5303,-2.5303,-2.5303,-2.5303,-2.5303,-2.5303,-2.5303,-2.5303,-2.5303,-2.5303,-2.5303,-2.5264,-2.5173,-2.5022,-2.4974,-2.493,-2.4818,-2.476,-2.4731,-2.4685,-2.4685,-2.4403,-2.3742,-2.4354,-2.4544,-2.4052,-2.4655,-2.5099,-2.5303,-2.5303,-2.5303,-2.5303,-2.5303,-2.5303,-2.5303,-2.5303,-2.5303,-1.8078,-1.7312,0.0,-1.6542,-1.656,-1.7219,0.0,0.0,-1.9934,-2.1649,-2.2862,-2.3698,-2.388,-2.4582,-2.5178,-2.5284,-2.5303,-2.5303,-2.5303,-2.5303,-2.5303,-2.5303,-2.5303,-2.5303,-2.5303,-2.5303,-2.5649,-2.6524,-2.6601,-2.7313,-2.8978,-2.9151,-2.9575,-3.0429,-3.0602,-3.0694,-3.0721,-3.0837,-3.0898,-3.0898,-3.0898,-3.0898,-3.0898,-3.0898,-3.0898,-3.0898,-3.0898,-3.0898,-3.0898,-3.0898,-3.0898,-3.0898,-3.0898,-3.0837,-3.0743,-3.0855,-3.0898,-3.0875,-3.0754,-3.0717,-3.0679,-3.0621,-3.0606,-3.059,-3.0532,-3.051,-3.0467,-3.0314,-2.9698,-2.9063,-2.8871,-2.7717,-2.6582,-2.6486,-2.587,-2.5303,-2.5303,-2.5303,-2.5303,-2.5303,-2.5303,-2.5303,-2.5303,-2.5303,-2.5303,-2.5303,-2.5152,-2.5022,-2.501,-2.4891,-2.4818,-2.4804,-2.4639,-2.4461,-2.4284,-2.4284,-2.4302,-2.4379,-2.4489,-2.4625,-2.4865,-2.4953,-2.5099,-2.5303,-2.5303,-2.5303,-2.5303,-2.5303,-2.5303,-2.5303,-2.5303,-2.5303,-1.973,0.0,0.0,0.0,-1.873,-1.9467,-2.0555,-2.1148,-2.182,-2.3056,-2.3726,-2.4245,-2.4716,-2.5082,-2.5303,0.0,-2.5303,-2.5303,-2.5303,-2.5303,-2.5303,-2.5303,-2.5303,-2.5303,-2.5303,-2.5774,-2.6428,-2.7294,-2.7832,-2.864,-2.989,-2.9989,-3.0211,-3.0652,-3.0679,-3.0743,-3.0813,-3.087,-3.0898,-3.0898,-3.0898,-3.0898,-3.0898,-3.0898,-3.0898,-3.0898,-3.0898,-3.0898,-3.0898,-3.0898,-3.0898,-3.0898,-3.0813,-3.075,-3.0714,-3.0754,-3.0759,-3.0728,-3.0664,-3.0627,-3.0583,-3.0544,-3.0525,-3.0487,-3.0448,-3.0448,-3.0448,-3.0398,-3.014,-2.9737,-2.9217,-2.8582,-2.7928,-2.7467,-2.6697,-2.6063,-2.6063,-2.5649,-2.5303,-2.5303,-2.5303,-2.5303,-2.5303,-2.5303,-2.5264,-2.5152,-2.5046,-2.4937,-2.4718,-2.4651,-2.4575,-2.4461,-2.4375,-2.4284,-2.4209,-2.419,-2.4247,-2.4321,-2.4339,-2.4444,-2.4693,-2.4708,-2.4831,-2.5111,-2.5141,-2.5173,-2.5303,-2.5303,-2.5303,-2.5303,-2.5303,-2.5303,-2.0409,0.0,0.0,-1.9693,-2.0418,-2.1213,-2.1548,-2.231,-2.3174,-2.4047,-2.4341,-2.4601,-2.5187,-2.5303,0.0,-2.5303,-2.5303,-2.5303,-2.5303,-2.5303,-2.5303,-2.5303,-2.5303,-2.5303,-2.5303,-2.587,-2.6697,-2.7813,-2.8497,-2.9357,-3.0462,-3.0593,-3.0673,-3.0748,-3.0768,-3.0806,-3.0898,-3.0898,-3.0898,-3.0898,-3.0898,-3.0898,-3.0898,-3.0898,-3.0898,-3.0898,-3.0898,-3.0898,-3.0898,-3.0898,-3.0873,-3.0849,-3.0743,-3.0679,-3.0641,-3.0641,-3.0636,-3.061,-3.0591,-3.054,-3.0506,-3.0487,-3.0448,-3.0398,-3.0398,-3.0398,-3.0398,-3.0398,-3.0398,-3.0256,-2.9621,-2.9275,-2.8948,-2.8371,-2.7582,-2.6967,-2.6967,-2.6467,-2.6024,-2.6024,-2.5832,-2.5649,-2.5649,-2.5417,-2.5152,-2.4962,-2.4898,-2.4762,-2.4526,-2.4444,-2.4357,-2.4209,-2.419,-2.419,-2.419,-2.419,-2.419,-2.419,-2.419,-2.4284,-2.4495,-2.4495,-2.4666,-2.4979,-2.501,-2.5099,-2.5303,-2.5303,-2.5303,-2.5303,-2.5303,-2.5303,0.0,0.0,-2.0512,-2.0718,-2.1372,-2.2276,-2.3427,-2.3736,-2.4055,-2.5052,-2.5264,-2.5264,-2.5303,-2.5303,-2.5303,-2.5303,-2.5303,-2.5303,-2.5303,-2.5303,-2.5303,-2.5303,-2.5303,-2.5303,0.0,-2.5322,-2.6063,-2.7775,-2.7978,-2.8791,-3.051,-3.0666,-3.0754,-3.0897,-3.0898,-3.0898,-3.0898,-3.0898,-3.0898,-3.0898,-3.0898,-3.0898,-3.0898,-3.0898,-3.0898,-3.0898,-3.0898,-3.0898,-3.0898,-3.0898,-3.0828,-3.0702,-3.071,-3.0621,-3.0506,-3.0506,-3.0544,-3.0595,-3.0537,-3.0487,-3.0487,-3.0417,-3.0398,-3.0398,-3.0398,-3.0398,-3.0398,-3.0398,-3.0398,-3.0379,-3.0359,-2.9737,-2.9083,-2.9063,-2.8448,-2.7852,-2.7852,-2.7832,-2.7813,-2.7813,-2.714,-2.6563,-2.6563,-2.5707,-2.4962,-2.4832,-2.4639,-2.4512,-2.4512,-2.4339,-2.4209,-2.419,-2.419,-2.419,-2.419,-2.419,-2.419,-2.419,-2.419,-2.4284,-2.4495,-2.4495,-2.4666,-2.4979,-2.501,-2.5099,-2.5303,-2.5303,-2.5303,-2.5303,-2.5303,-2.5303,0.0,0.0,-2.1541,-2.2285,-2.273,-2.328,-2.4345,-2.4709,-2.4898,-2.5226,-2.5303,-2.5303,-2.5303,-2.5303,-2.5303,-2.5303,-2.5303,-2.5303,-2.5303,-2.5303,-2.5303,-2.5303,-2.5303,0.0,0.0,0.0,0.0,-2.7813,-2.8533,-2.9429,-3.0535,-3.0745,-3.0852,-3.0898,-3.0898,-3.0898,-3.0898,-3.0898,-3.0898,-3.0898,-3.0898,-3.0898,-3.0898,-3.0898,-3.0898,-3.0898,-3.0898,-3.0898,-3.0898,-3.0898,-3.0823,-3.0698,-3.0641,-3.0583,-3.0487,-3.0448,-3.0448,-3.0467,-3.0448,-3.0417,-3.0417,-3.0398,-3.0398,-3.0398,-3.0398,-3.0398,-3.0398,-3.0398,-3.0398,-3.0398,-3.0398,-3.0179,-2.9967,-2.9967,-2.9313,-2.8698,-2.8698,-2.8275,-2.789,-2.789,-2.7659,-2.7242,-2.6519,-2.6104,-2.5576,-2.4729,-2.4445,-2.4303,-2.4303,-2.4247,-2.419,-2.419,-2.419,-2.419,-2.419,-2.419,-2.419,-2.419,-2.419,-2.4228,-2.4303,-2.4303,-2.4409,-2.4663,-2.4663,-2.4785,-2.4981,-2.5072,-2.5099,-2.5099,-2.5243,-2.5303,0.0,-2.1584,-2.2497,-2.3571,-2.3907,-2.4174,-2.4931,-2.5214,-2.5303,-2.5303,-2.5082,-2.4966,-2.5245,-2.5082,-2.4966,-2.5245,-2.5303,-2.5303,-2.5303,-2.5303,-2.5303,-2.5303,-2.5303,0.0,0.0,0.0,0.0,-2.7409,-2.8379,-2.9301,-3.0164,-3.0654,-3.0898,-3.0898,-3.0898,-3.0898,-3.0898,-3.0898,-3.0898,-3.0918,-3.1504,-3.1484,-3.0918,-3.1211,-3.1191,-3.0898,-3.0849,-3.0837,-3.0821,-3.0796,-3.0742,-3.0621,-3.0583,-3.0525,-3.0506,-3.0775,-3.0679,-3.0398,-3.0398,-3.0398,-3.0398,-3.0398,-3.0398,-3.0398,-3.0398,-3.0398,-3.0398,-3.0398,-3.0398,-3.0398,-3.0398,-3.0398,-3.0398,-3.0398,-2.9967,-2.9563,-2.9563,-2.9159,-2.8794,-2.8794,-2.8544,-2.8118,-2.7431,-2.6676,-2.5882,-2.4946,-2.4469,-2.419,-2.419,-2.419,-2.419,-2.419,-2.419,-2.419,-2.419,-2.419,-2.419,-2.419,-2.419,-2.419,-2.419,-2.419,-2.4284,-2.4495,-2.4495,-2.4591,-2.4804,-2.4924,-2.501,-2.501,-2.554,-2.5774,-2.162,-2.2446,-2.3326,-2.4512,-2.4804,-2.4902,-2.5222,-2.5264,-2.5245,-2.5245,-2.4601,-2.4283,0.0,0.0,-2.436,-2.512,-2.5264,-2.5303,-2.5303,-2.5303,-2.5303,0.0,0.0,0.0,0.0,0.0,0.0,-2.6706,0.0,-2.8525,-2.9509,-3.0403,-3.0898,-3.0898,-3.0898,-3.0898,-3.0898,-3.0898,-3.0898,-3.0918,-3.2519,-3.2441,-3.0937,-3.1758,-3.168,-3.0875,-3.0768,-3.0698,-3.0683,-3.0673,-3.0632,-3.0583,-3.0621,-3.0602,-3.0629,-3.1468,-3.1218,-3.0456,-3.0456,-3.0436,-3.0398,-3.0398,-3.0398,-3.0398,-3.0398,-3.0398,-3.0398,-3.0398,-3.0398,-3.0398,-3.0398,-3.0398,-3.0398,-3.0398,-3.0398,-3.0398,-3.0398,-3.0398,-3.0398,-3.0398,-2.9698,-2.9071,-2.906,-2.738,-2.5911,-2.5519,-2.4777,-2.4245,-2.4208,-2.419,-2.419,-2.419,-2.419,-2.419,-2.419,-2.419,-2.419,-2.419,-2.419,-2.419,-2.419,-2.419,-2.4284,-2.4478,-2.4478,-2.4575,-2.4775,-2.4917,-2.5005,-2.5063,-2.6105,-2.661,-2.2464,-2.329,-2.4045,-2.4644,-2.4804,-2.4902,-2.5222,-2.4832,-2.4418,-2.4418,-2.3725,-2.3178,0.0,0.0,0.0,-2.4379,-2.4909,0.0,-2.5303,-2.5303,0.0,0.0,0.0,-2.5563,-2.6275,-2.6352,0.0,0.0,-2.8048,-2.8818,-3.0314,-3.072,-3.0898,-3.0898,-3.0898,-3.0898,-3.0898,-3.0898,-3.0898,-3.0918,-3.1328,-3.1309,-3.0918,-3.1133,-3.1058,-3.075,-3.0709,-3.066,-3.066,-3.1306,-3.1534,-3.1532,-3.2135,-3.2321,-3.2295,-3.2506,-3.2064,-3.1371,-3.1371,-3.0948,-3.0398,-3.0398,-3.0398,-3.0398,-3.0398,-3.0398,-3.0398,-3.0398,-3.0398,-3.0398,-3.0398,-3.0398,-3.0398,-3.0398,-3.0398,-3.0398,-3.0398,-3.0398,-3.0398,-3.0398,-2.9576,-2.8769,-2.8431,-2.7431,-2.6581,-2.6344,-2.5603,-2.4869,-2.4281,-2.419,-2.419,-2.419,-2.419,-2.419,-2.419,-2.419,-2.419,-2.419,-2.419,-2.419,-2.419,-2.419,-2.4228,-2.4284,-2.4266,-2.4303,-2.4339,-2.4543,-2.4939,-2.5541,-2.6102,-2.6701,-2.2887,-2.3584,-2.4284,-2.4591,-2.4731,-2.478,-2.4667,-2.4351,-2.3995,-2.361,-2.2831,0.0,0.0,0.0,0.0,0.0,0.0,0.0,-2.5303,-2.5303,-2.5303,0.0,-2.5303,0.0,-2.6612,-2.6732,-2.7318,0.0,-2.8772,-2.9186,-3.0173,-3.0643,-3.0898,-3.0898,-3.0898,-3.0898,-3.0898,-3.1289,-3.1289,-3.0918,-3.1641,-3.1601,-3.0918,-3.1309,-3.1211,-3.0801,0.0,-3.0994,-3.0698,-3.1859,-3.2109,-3.1802,-3.2263,-3.2609,-3.2891,-3.2891,-3.2391,-3.1756,-3.2102,-3.1429,-3.0398,-3.0398,-3.0398,-3.0398,-3.0398,-3.0398,-3.0398,-3.0398,-3.0398,-3.0398,-3.0398,-3.0398,-3.0398,-3.0398,-3.0398,-3.0398,-3.0398,-3.0311,-3.0196,-3.0114,-2.968,-2.9205,-2.8746,-2.7979,-2.7361,-2.7151,-2.6429,-2.564,-2.4814,-2.441,-2.419,-2.419,-2.419,-2.419,-2.419,-2.419,-2.419,-2.419,-2.419,-2.419,-2.419,-2.419,-2.419,-2.419,-2.419,-2.419,-2.419,-2.441,-2.4923,-2.5725,-2.6371,-2.7186,-2.3144,-2.3676,-2.4247,-2.4444,-2.4545,-2.4487,-2.3933,-2.3677,-2.3379,-2.262,0.0,0.0,-2.2158,0.0,-2.2908,-2.3783,0.0,-2.5168,-2.5284,-2.5303,-2.5303,-2.5303,-2.5303,-2.5688,-2.6631,-2.6888,-2.7686,-2.94,-2.962,-2.9718,-2.9765,-3.0488,-3.0898,-3.0898,-3.0898,-3.0898,-3.0898,-3.1641,-3.1641,-3.0918,-3.2363,-3.2305,-3.0937,-3.1656,-3.1577,-3.0894,-3.1467,-3.1282,-3.0698,-3.2256,-3.2487,-3.1891,-3.2122,-3.2564,-3.3083,-3.3199,-3.2583,-3.1814,-3.2622,-3.1795,-3.0398,-3.0398,-3.0398,-3.0398,-3.0398,-3.0398,-3.0398,-3.0398,-3.0398,-3.0398,-3.0398,-3.0398,-3.0398,-3.0398,-3.0398,-3.0398,-3.0398,-3.0209,-2.9984,-2.978,-2.9877,-2.9877,-2.9474,-2.876,-2.8197,-2.7978,-2.7273,-2.6502,-2.5825,-2.4905,-2.4318,-2.4208,-2.419,-2.419,-2.419,-2.419,-2.419,-2.419,-2.419,-2.419,-2.419,-2.419,-2.419,-2.419,-2.419,-2.419,-2.419,-2.4375,-2.4927,-2.5838,-2.6737,-2.7793,-2.3804,-2.4098,-2.4247,-2.4444,-2.4098,-2.3742,-2.3788,-2.2326,0.0,0.0,0.0,-1.9477,-1.9627,-2.0792,0.0,-2.287,0.0,0.0,0.0,0.0,-2.5322,0.0,0.0,0.0,0.0,0.0,0.0,0.0,0.0,-3.0659,-3.0664,-3.082,-3.0898,-3.0898,-3.0898,-3.0898,-3.0898,-3.1055,-3.1055,-3.0898,-3.1191,-3.1172,-3.0898,-3.0937,-3.0859,-3.0653,-3.0723,0.0,-3.0564,-3.2218,-3.2814,-3.2833,-3.4276,-3.4487,-3.4064,-3.4776,-3.3641,-3.1814,-3.2622,-3.1795,-3.0398,-3.0398,-3.0398,-3.0398,-3.0398,-3.0398,-3.0398,-3.0398,-3.0398,-3.0398,-3.0398,-3.0398,-3.0398,-3.0398,-3.0398,-3.0398,-3.0398,-3.0367,-3.0254,-2.9984,-2.9984,-2.9877,-2.9474,-2.9282,-2.9087,-2.8842,-2.8117,-2.753,-2.7402,-2.6098,-2.4944,-2.4263,-2.419,-2.419,-2.419,-2.419,-2.419,-2.419,-2.419,-2.419,-2.419,-2.419,-2.419,-2.419,-2.419,-2.419,-2.419,-2.4247,-2.5001,-2.6454,-2.6786,-2.7882,-2.3988,-2.419,-2.4228,-2.4321,-2.3864,-2.3205,-2.2489,0.0,0.0,0.0,0.0,-1.8465,-1.8915,0.0,0.0,0.0,0.0,0.0,0.0,0.0,0.0,0.0,0.0,0.0,0.0,0.0,0.0,0.0,0.0,-3.0898,-3.0898,-3.0898,-3.0898,-3.0898,-3.0898,-3.0898,-3.0898,-3.0898,-3.0898,-3.0898,-3.0898,-3.0862,-3.0782,-3.0733,-3.0662,-3.0616,-3.1006,0.0,-3.0583,-3.2218,-3.2641,-3.2352,-3.3199,-3.3526,-3.3526,-3.3526,-3.2756,-3.1756,-3.2141,-3.1448,-3.0398,-3.0398,-3.0398,-3.0398,-3.0398,-3.0398,-3.0398,-3.0398,-3.0398,-3.0398,-3.0398,-3.0398,-3.0398,-3.0398,-3.0398,-3.0367,-3.0209,-3.0196,-3.0095,-2.9765,-2.9696,-2.957,-2.9246,-2.9181,-2.9156,-2.9017,-2.8686,-2.8282,-2.7842,-2.7126,-2.6172,-2.4942,-2.4814,-2.4649,-2.4245,-2.419,-2.419,-2.419,-2.419,-2.419,-2.419,-2.419,-2.419,-2.419,-2.419,-2.419,-2.419,-2.419,-2.5034,-2.6594,-2.6702,-2.7752,-2.3988,-2.419,-2.419,-2.419,-2.3634,-2.269,-2.1315,-2.0221,0.0,0.0,0.0,-1.7702,-1.8568,0.0,0.0,0.0,0.0,0.0,0.0,0.0,0.0,0.0,0.0,0.0,0.0,0.0,0.0,0.0,0.0,0.0,-3.0898,-3.0898,-3.0898,-3.0898,-3.0898,-3.0898,-3.0898,-3.0898,-3.0898,-3.0898,-3.0898,-3.0821,-3.0698,-3.0679,-3.0641,-3.0621,-3.1225,0.0,0.0,-3.2237,-3.2429,-3.1737,-3.2102,-3.2391,-3.2583,-3.2122,-3.1737,-3.1448,-3.1641,-3.1141,-3.0398,-3.0398,-3.0398,-3.0398,-3.0398,-3.0398,-3.0398,-3.0398,-3.0398,-3.0398,-3.0398,-3.0398,-3.0398,-3.0323,-3.0286,-3.0182,-2.9969,-2.9939,-2.9845,-2.9532,-2.9434,-2.933,-2.9134,-2.904,-2.8994,-2.8994,-2.8994,-2.8778,-2.8136,-2.8062,-2.7512,-2.6082,-2.577,-2.5401,-2.4777,-2.4704,-2.4704,-2.4704,-2.4538,-2.4447,-2.4447,-2.4281,-2.419,-2.419,-2.419,-2.419,-2.419,-2.419,-2.5034,-2.6612,-2.6612,-2.7606,-2.3988,-2.419,-2.419,-2.419,-2.3238,-2.2069,-2.121,0.0,0.0,0.0,-1.6599,-1.6849,-1.7664,0.0,0.0,0.0,0.0,0.0,0.0,0.0,0.0,0.0,0.0,0.0,0.0,0.0,0.0,0.0,0.0,0.0,-3.0898,-3.0898,-3.0898,-3.0898,-3.0898,-3.0898,-3.0898,-3.0898,-3.0898,-3.0898,-3.0898,-3.0821,-3.0698,-3.0641,-3.0564,-3.0506,-3.0513,0.0,0.0,-3.2218,-3.2429,-3.1852,-3.3372,-3.3083,-3.1891,-3.2545,-3.1833,-3.0629,-3.1429,-3.1141,-3.0398,-3.0398,-3.0398,-3.0398,-3.0398,-3.0398,-3.0398,-3.0398,-3.0398,-3.0398,-3.0398,-3.0398,-3.0343,-3.0089,-2.9893,-2.9765,-2.9731,-2.9731,-2.9731,-2.9678,-2.9532,-2.9392,-2.9372,-2.9156,-2.8994,-2.8994,-2.8994,-2.8957,-2.8883,-2.8906,-2.8558,-2.7658,-2.6924,-2.6465,-2.6392,-2.6392,-2.6392,-2.6392,-2.5676,-2.5293,-2.5293,-2.4575,-2.419,-2.419,-2.419,-2.419,-2.419,-2.419,-2.5034,-2.6612,-2.6612,-2.7606,-2.3272,-2.3823,-2.4099,-2.3693,-2.2827,-2.1653,-1.999,0.0,0.0,-1.5971,-1.5715,-1.6118,-1.7446,0.0,0.0,0.0,0.0,0.0,0.0,0.0,0.0,0.0,0.0,0.0,0.0,0.0,0.0,0.0,0.0,0.0,-3.0117,-3.0605,-3.0898,-3.0898,-3.0898,-3.0898,-3.0898,-3.0898,-3.0898,-3.0898,-3.0818,-3.0727,-3.064,-3.0565,-3.0506,-3.0448,-3.0398,0.0,0.0,-3.1121,-3.1218,-3.0987,-3.166,-3.1506,-3.0968,-3.1275,-3.0968,-3.0436,-3.0814,-3.0698,-3.0398,-3.0398,-3.0398,-3.0398,-3.0398,-3.0398,-3.0398,-3.0398,-3.0398,-3.0398,-3.0398,-3.0398,-3.0323,-3.0061,-3.0047,-3.0037,-2.9765,-2.9696,-2.9661,-2.9533,-2.9332,-2.9156,-2.9156,-2.9067,-2.8994,-2.8994,-2.8994,-2.8994,-2.8994,-2.8994,-2.8865,-2.8576,-2.7805,-2.7126,-2.6649,-2.6612,-2.6612,-2.6612,-2.63,-2.6117,-2.6117,-2.5346,-2.4905,-2.4905,-2.4447,-2.419,-2.419,-2.4685,-2.5493,-2.6612,-2.7108,-2.7981,-2.2406,-2.3124,-2.3436,-2.3007,-2.2335,-2.1234,0.0,0.0,-1.7122,-1.5523,-1.5189,-1.5638,-1.708,-1.708,-1.7523,0.0,0.0,0.0,0.0,0.0,0.0,0.0,0.0,0.0,0.0,0.0,0.0,0.0,0.0,0.0,-2.9609,-3.043,-3.0898,-3.0898,-3.0898,-3.0898,-3.0898,-3.0898,-3.0874,-3.0837,-3.0752,-3.0655,-3.0576,-3.0518,-3.0467,-3.0398,-3.0398,0.0,0.0,-3.0679,-3.0629,-3.0417,-3.0679,-3.0641,-3.0398,-3.0398,-3.0398,-3.0398,-3.0398,-3.0398,-3.0398,-3.0398,-3.0398,-3.0398,-3.0398,-3.0398,-3.0398,-3.0398,-3.0355,-3.0267,-3.0267,-3.0202,-3.0056,-2.988,-2.9912,-2.9915,-2.957,-2.9495,-2.9456,-2.931,-2.9134,-2.8994,-2.8994,-2.8994,-2.8994,-2.8994,-2.8994,-2.8994,-2.8994,-2.8994,-2.8994,-2.8994,-2.8503,-2.7934,-2.7365,-2.731,-2.731,-2.731,-2.709,-2.6961,-2.6961,-2.6172,-2.575,-2.575,-2.5199,-2.4905,-2.4905,-2.5474,-2.6172,-2.6979,-2.753,-2.8227,-2.1517,-2.2027,-2.2055,-2.2173,-2.1701,-2.0771,0.0,-1.8174,-1.7215,-1.5561,-1.5189,-1.5465,-1.6349,-1.7157,-1.7991,0.0,0.0,0.0,0.0,0.0,0.0,0.0,0.0,0.0,0.0,0.0,0.0,0.0,0.0,0.0,-2.9609,-3.043,-3.0898,-3.0898,-3.0898,-3.0898,-3.0898,-3.0898,-3.0825,-3.0691,-3.0698,-3.0621,-3.0506,-3.0506,-3.0467,0.0,0.0,0.0,0.0,-3.1333,-3.1179,-3.0475,-3.1352,-3.116,-3.0398,-3.0398,-3.0398,-3.0398,-3.0398,-3.0398,-3.0398,-3.0398,-3.0398,-3.0398,-3.0398,-3.0398,-3.0398,-3.0398,-3.0209,-2.9999,-2.9999,-2.9713,-2.9412,-2.9412,-2.9222,-2.8998,-2.9017,-2.9017,-2.9017,-2.9017,-2.9017,-2.8994,-2.8994,-2.8994,-2.8994,-2.8994,-2.8994,-2.8994,-2.8994,-2.8994,-2.8994,-2.8994,-2.8975,-2.8975,-2.8975,-2.8975,-2.8975,-2.8975,-2.8227,-2.7787,-2.7787,-2.7016,-2.6594,-2.6594,-2.6594,-2.6594,-2.6594,-2.6594,-2.6998,-2.7787,-2.7787,-2.8227,-2.0168,-2.0784,-2.1057,-2.0063,-2.0101,-1.9821,-1.7685,-1.7457,-1.7215,-1.5561,-1.5189,-1.5465,-1.633,-1.6215,-1.6849,-1.9465,0.0,0.0,0.0,0.0,0.0,0.0,0.0,0.0,0.0,0.0,0.0,0.0,0.0,0.0,-2.957,-3.043,-3.0898,-3.0898,-3.0898,-3.0855,-3.0762,-3.0754,-3.0723,-3.0634,-3.0586,-3.0544,-3.0506,-3.0448,-3.0417,0.0,0.0,0.0,0.0,-3.0698,-3.066,-3.0417,-3.0698,-3.0641,-3.0398,-3.0398,-3.0398,-3.0398,-3.0398,-3.0398,-3.0398,-3.0398,-3.0398,-3.0398,-3.0398,-3.0398,-3.0367,-3.0182,-3.0075,-2.9969,-2.9829,-2.9696,-2.957,-2.9434,-2.9435,-2.9397,-2.9067,-2.9156,-2.9203,-2.904,-2.8994,-2.8994,-2.8994,-2.8994,-2.8994,-2.8994,-2.8994,-2.8994,-2.8994,-2.8994,-2.8994,-2.8994,-2.8994,-2.8994,-2.8994,-2.8994,-2.8994,-2.8994,-2.8778,-2.8631,-2.8631,-2.7842,-2.742,-2.742,-2.6888,-2.6612,-2.6612,-2.7145,-2.7824,-2.8631,-2.8631,-2.8778,0.0,-1.915,-1.9457,-1.8553,-1.8733,-1.8663,-1.6906,-1.6888,-1.6849,-1.5484,-1.5189,-1.5368,-1.5907,-1.583,-1.6484,-1.8927,0.0,0.0,0.0,0.0,0.0,0.0,0.0,0.0,0.0,0.0,0.0,0.0,0.0,0.0,-2.9551,-3.0381,-3.0813,-3.0813,-3.0813,-3.0782,-3.071,-3.066,-3.0634,-3.0552,-3.0518,-3.0487,-3.0467,-3.0417,-3.0398,0.0,0.0,0.0,0.0,-3.0398,-3.0398,-3.0398,-3.0398,-3.0398,-3.0398,-3.0398,-3.0398,-3.0398,-3.0398,-3.0398,-3.0398,-3.0398,-3.0398,-3.0367,-3.0267,-3.0254,-3.0209,-3.0061,-2.9893,-2.9729,-2.9626,-2.9514,-2.9397,-2.9289,-2.9334,-2.9375,-2.9067,-2.9134,-2.9181,-2.9021,-2.8994,-2.8994,-2.8994,-2.8994,-2.8994,-2.8994,-2.8994,-2.8994,-2.8994,-2.8994,-2.8994,-2.8994,-2.8994,-2.8994,-2.8994,-2.8994,-2.8994,-2.8994,-2.8994,-2.8994,-2.8994,-2.8521,-2.8246,-2.8246,-2.7769,-2.7512,-2.7512,-2.8007,-2.8521,-2.8994,-2.8994,-2.8994,0.0,-1.7283,-1.7445,-1.7502,-1.7561,-1.7388,-1.658,-1.6465,0.0,-1.5388,-1.5189,-1.5209,-1.5285,-1.5945,-1.6792,0.0,0.0,0.0,0.0,0.0,0.0,0.0,0.0,0.0,0.0,0.0,0.0,0.0,0.0,0.0,-2.9648,-3.0331,-3.0698,-3.0698,-3.0679,-3.0679,-3.0679,-3.0621,-3.0564,-3.0487,-3.0487,-3.0467,-3.0398,-3.0398,-3.0398,0.0,0.0,0.0,0.0,-3.0398,-3.0398,-3.0398,-3.0398,-3.0398,-3.0398,-3.0398,-3.0398,-3.0398,-3.0398,-3.0398,-3.0398,-3.0398,-3.0398,-3.0355,-3.0075,-2.9999,-2.9999,-2.9969,-2.9696,-2.9392,-2.9372,-2.92,-2.8994,-2.8994,-2.8994,-2.8994,-2.8994,-2.8994,-2.8994,-2.8994,-2.8994,-2.8994,-2.8994,-2.8994,-2.8994,-2.8994,-2.8994,-2.8994,-2.8994,-2.8994,-2.8994,-2.8994,-2.8994,-2.8994,-2.8994,-2.8994,-2.8994,-2.8994,-2.8994,-2.8994,-2.8994,-2.8994,-2.8994,-2.8994,-2.8994,-2.8994,-2.8994,-2.8994,-2.8994,-2.8994,-2.8994,-2.8994,-1.5491,0.0,-1.6586,-1.5958,-1.6292,-1.6561,0.0,-1.6022,0.0,0.0,0.0,0.0,0.0,0.0,0.0,0.0,0.0,0.0,0.0,0.0,0.0,0.0,0.0,0.0,0.0,0.0,0.0,0.0,0.0,-2.8965,-3.0508,-3.0668,-3.0698,-3.0698,-3.0602,-3.0544,-3.0544,-3.0525,-3.0487,-3.0417,-3.0417,-3.0417,-3.0398,-3.0398,-3.0398,0.0,0.0,0.0,-3.0398,-3.0398,-3.0398,-3.0398,-3.0398,-3.0398,-3.0398,-3.0398,-3.0398,-3.0398,-3.0398,-3.0398,-3.0398,-3.0398,-3.0398,-3.0355,-3.0075,-2.9999,-2.9939,-2.9644,-2.9455,-2.9351,-2.9156,-2.9062,-2.8994,-2.8994,-2.8994,-2.8994,-2.8994,-2.8994,-2.8994,-2.8994,-2.8994,-2.8994,-2.8994,-2.8994,-2.8994,-2.8994,-2.8994,-2.8994,-2.8994,-2.8994,-2.8994,-2.8994,-2.8994,-2.8994,-2.8994,-2.8994,-2.8994,-2.8994,-2.8994,-2.8994,-2.8994,-2.8994,-2.8994,-2.8994,-2.8994,-2.8994,-2.8994,-2.8994,-2.8994,-2.8994,-2.8994,-2.8994,-1.4995,-1.5734,-1.6292,-1.5426,-1.5868,-1.6272,-1.5407,0.0,0.0,0.0,0.0,0.0,0.0,0.0,0.0,0.0,0.0,0.0,0.0,0.0,0.0,0.0,0.0,0.0,0.0,0.0,0.0,0.0,0.0,-2.9035,-3.0725,-3.0711,-3.0646,-3.0602,-3.0506,-3.0467,-3.0506,-3.0467,-3.0448,-3.0398,-3.0398,-3.0398,-3.0398,-3.0398,-3.0398,0.0,0.0,0.0,-3.0398,-3.0398,-3.0398,-3.0398,-3.0398,-3.0398,-3.0398,-3.0398,-3.0398,-3.0398,-3.0398,-3.0398,-3.0367,-3.0254,-3.0209,-3.015,-2.9813,-2.9712,-2.9678,-2.9474,-2.931,-2.9181,-2.904,-2.8994,-2.8994,-2.8994,-2.8994,-2.8994,-2.8994,-2.8994,-2.8994,-2.8994,-2.8994,-2.8994,-2.8994,-2.8994,-2.8994,-2.8994,-2.8994,-2.8994,-2.8994,-2.8994,-2.8994,-2.8994,-2.8994,-2.8994,-2.8994,-2.8994,-2.8994,-2.8994,-2.8994,-2.8994,-2.8994,-2.8994,-2.8994,-2.8994,-2.8994,-2.8994,-2.8994,-2.8994,-2.8994,-2.8994,-2.8994,-2.8994,-1.5188,-1.5932,-1.6445,-1.5445,-1.5753,-1.6118,0.0,0.0,0.0,0.0,0.0,0.0,0.0,0.0,0.0,0.0,0.0,0.0,0.0,0.0,0.0,0.0,0.0,0.0,0.0,0.0,0.0,0.0,0.0,-2.8944,-3.0433,-3.0565,-3.0563,-3.0487,-3.0417,-3.0417,-3.0487,-3.0417,-3.0398,-3.0398,-3.0398,-3.0398,-3.0398,-3.0398,-3.0398,-3.0398,0.0,0.0,-3.0398,-3.0398,-3.0398,-3.0398,-3.0398,-3.0398,-3.0398,-3.0398,-3.0398,-3.0398,-3.0355,-3.0343,-3.0299,-3.0047,-2.9954,-2.9893,-2.9513,-2.9412,-2.9392,-2.9351,-2.9178,-2.8994,-2.8994,-2.8994,-2.8994,-2.8994,-2.8994,-2.8994,-2.8994,-2.8994,-2.8994,-2.8994,-2.8994,-2.8994,-2.8994,-2.8994,-2.8994,-2.8994,-2.8994,-2.8994,-2.8994,-2.8994,-2.8994,-2.8994,-2.8994,-2.8994,-2.8994,-2.8994,-2.8994,-2.8994,-2.8994,-2.8994,-2.8994,-2.8994,-2.8994,-2.8994,-2.8994,-2.8994,-2.8994,-2.8994,-2.8994,-2.8994,-2.8994,-2.897,-1.6061,-1.6881,-1.7138,-1.5599,-1.5311,-1.5368,0.0,0.0,0.0,0.0,0.0,0.0,0.0,0.0,0.0,0.0,0.0,0.0,0.0,0.0,0.0,0.0,0.0,0.0,0.0,0.0,0.0,0.0,0.0,-2.8645,-2.9636,-3.0213,-3.0513,-3.0506,-3.0417,-3.0398,-3.0417,-3.0398,-3.0398,-3.0398,-3.0398,-3.0398,-3.0398,-3.0398,-3.0398,-3.0398,0.0,-3.0398,-3.0398,-3.0398,-3.0398,-3.0398,-3.0398,-3.0398,-3.0398,-3.0398,-3.0398,-3.0367,-3.0136,-3.0061,-3.0032,-2.9813,-2.9748,-2.9713,-2.9474,-2.9412,-2.9351,-2.9134,-2.904,-2.8994,-2.8994,-2.8994,-2.8994,-2.8994,-2.8994,-2.8994,-2.8994,-2.8994,-2.8994,-2.8994,-2.8994,-2.8994,-2.8994,-2.8994,-2.8994,-2.8994,-2.8994,-2.8994,-2.8994,-2.8994,-2.8994,-2.8994,-2.8994,-2.8994,-2.8994,-2.8994,-2.8994,-2.8994,-2.8994,-2.8994,-2.8994,-2.8994,-2.8994,-2.8994,-2.8994,-2.8994,-2.8994,-2.8994,-2.8994,-2.8994,-2.8994,-2.8815,-1.5695,-1.608,-1.6272,-1.5984,-1.658,-1.7023,0.0,0.0,0.0,0.0,0.0,0.0,0.0,0.0,0.0,0.0,0.0,0.0,0.0,0.0,0.0,0.0,0.0,0.0,0.0,0.0,0.0,0.0,0.0,0.0,-2.9313,-3.0071,-3.0487,-3.0448,-3.0417,-3.0398,-3.0398,-3.0398,-3.0398,-3.0398,-3.0398,-3.0398,-3.0398,-3.0398,-3.0398,-3.0398,0.0,-3.0398,-3.0398,-3.0398,-3.0398,-3.0398,-3.0398,-3.0398,-3.0379,-3.0241,-3.0177,-3.015,-2.9908,-2.9845,-2.9796,-2.9607,-2.9551,-2.9494,-2.9267,-2.9181,-2.9156,-2.9021,-2.8994,-2.8994,-2.8994,-2.8994,-2.8994,-2.8994,-2.8994,-2.8994,-2.8994,-2.8994,-2.8994,-2.8994,-2.8994,-2.8994,-2.8994,-2.8994,-2.8994,-2.8994,-2.8994,-2.8994,-2.8994,-2.8994,-2.8994,-2.8994,-2.8994,-2.8994,-2.8994,-2.8994,-2.8994,-2.8994,-2.8994,-2.8994,-2.8994,-2.8994,-2.8994,-2.8994,-2.8994,-2.8994,-2.8994,-2.8994,-2.8994,-2.8994,-2.8773,-2.8565,-1.5388,-1.5368,-1.5407,0.0,0.0,0.0,0.0,0.0,0.0,0.0,0.0,0.0,0.0,0.0,0.0,0.0,0.0,0.0,0.0,0.0,0.0,0.0,0.0,0.0,0.0,0.0,0.0,0.0,0.0,0.0,-2.8574,-2.9429,-2.9948,-3.0102,-3.0102,-3.0198,-3.0398,-3.0398,-3.0398,-3.0398,-3.0398,-3.0398,-3.0398,-3.0398,-3.0398,-3.0398,-3.0398,-3.0398,-3.0398,-3.0398,-3.0398,-3.0398,-3.0323,-3.0286,-3.0215,-3.0003,-2.9939,-2.9908,-2.9696,-2.9757,-2.987,-2.9653,-2.9588,-2.9545,-2.9343,-2.914,-2.8994,-2.8994,-2.9122,-2.9232,-2.9049,-2.9122,-2.9214,-2.903,-2.9122,-2.9214,-2.903,-2.8994,-2.8994,-2.8994,-2.8994,-2.8994,-2.8994,-2.8994,-2.8994,-2.8994,-2.914,-2.9292,-2.9292,-2.9457,-2.9567,-2.9567,-2.9567,-2.9494,-2.931,-2.9038,-2.8863,-2.8863,-2.8952,-2.8929,-2.8743,-2.8815,-2.8815,-2.8743,-2.8743,-2.8743,-2.8743,-2.8743,-2.8743,-2.8743,-2.8593,-2.8488,-1.5965,-1.583,-1.5407,-1.6272,0.0,0.0,0.0,0.0,0.0,0.0,0.0,0.0,0.0,0.0,0.0,0.0,0.0,0.0,0.0,0.0,0.0,0.0,0.0,0.0,0.0,0.0,0.0,0.0,0.0,0.0,-2.6879,-2.7659,-2.8429,-2.9159,-2.9179,-2.9583,-3.0379,-3.0398,-3.0398,-3.0398,-3.0398,-3.0398,-3.0398,-3.0398,-3.0398,-3.0398,-3.0398,-3.0398,-3.0398,-3.0398,-3.0398,-3.0386,-3.0136,-2.9908,-2.9748,-2.9731,-2.9731,-2.9696,-2.9494,-2.9917,-3.0509,-3.024,-3.0142,-3.0142,-3.0118,-2.9604,-2.8994,-2.8994,-2.9549,-2.9953,-2.92,-2.9549,-2.9934,-2.9177,-2.9586,-2.9916,-2.914,-2.8994,-2.8994,-2.8994,-2.8994,-2.8994,-2.8994,-2.8994,-2.8994,-2.8994,-2.9641,-3.0118,-3.0118,-3.076,-3.1219,-3.1219,-3.1219,-3.0907,-3.0173,-2.9075,-2.8446,-2.8446,-2.8797,-2.8676,-2.801,-2.829,-2.829,-2.7982,-2.7982,-2.7982,-2.7982,-2.7982,-2.7982,-2.8,-2.8652,-2.8762,-1.5368,-1.5476,-1.5584,0.0,0.0,0.0,0.0,0.0,0.0,0.0,0.0,0.0,0.0,0.0,0.0,0.0,0.0,0.0,0.0,0.0,0.0,0.0,0.0,0.0,0.0,0.0,0.0,0.0,0.0,0.0,-2.6629,-2.7448,-2.8044,-2.8332,-2.8352,-2.8756,-2.9583,-2.9583,-2.9871,-3.0398,-3.0398,-3.0398,-3.0398,-3.0398,-3.0398,-3.0398,-3.0398,-3.0398,-3.0398,-3.0398,-3.0299,-3.0136,-2.9893,-2.9782,-2.9678,-2.9551,-2.9513,-2.9549,-2.982,-3.0097,-3.0406,-3.0827,-3.0944,-3.0852,-3.0356,-3.0338,-3.0393,-2.9898,-3.0338,-3.076,-2.9971,-3.0338,-3.087,-3.0558,-3.0338,-3.0118,-2.9824,-2.9342,-2.8994,-2.8994,-2.8994,-2.8994,-2.8994,-2.8994,-2.9159,-2.9677,-3.0008,-3.0375,-3.087,-3.1201,-3.1384,-3.1384,-3.118,-3.0894,-3.0585,-2.9886,-2.916,-2.8428,-2.836,-2.8174,-2.7926,-2.802,-2.802,-2.7897,-2.7897,-2.7897,-2.7897,-2.7897,-2.8145,-2.8576,-2.8605,-2.8786,-1.4657,-1.4847,-1.5254,0.0,0.0,0.0,0.0,0.0,0.0,0.0,0.0,0.0,0.0,0.0,0.0,0.0,0.0,0.0,0.0,0.0,0.0,0.0,0.0,0.0,0.0,0.0,0.0,0.0,0.0,0.0,0.0,-2.6755,-2.7217,-2.7486,-2.7486,-2.789,-2.8698,-2.8717,-2.9025,-2.9621,-2.9871,-3.014,-3.0398,-3.0398,-3.0398,-3.0398,-3.0398,-3.0355,-3.0267,-3.0267,-3.0095,-2.9796,-2.9661,-2.9533,-2.9475,-2.9332,-2.9267,-2.9339,-2.9692,-2.9989,-3.0338,-3.1127,-3.1384,-3.1329,-3.1054,-3.1164,-3.1274,-3.0723,-3.1164,-3.1641,-3.1109,-3.1366,-3.1715,-3.1458,-3.1164,-3.0815,-3.032,-2.9769,-2.931,-2.9049,-2.8994,-2.9067,-2.9347,-2.936,-2.9659,-3.0467,-3.0797,-3.1164,-3.1715,-3.199,-3.2129,-3.1963,-3.1501,-3.1132,-3.0969,-3.0309,-2.956,-2.8795,-2.8436,-2.8023,-2.7517,-2.7648,-2.7648,-2.753,-2.75,-2.75,-2.75,-2.7744,-2.8146,-2.8621,-2.885,-2.9197,-1.397,-1.397,0.0,0.0,0.0,0.0,0.0,0.0,0.0,0.0,0.0,0.0,0.0,0.0,0.0,0.0,0.0,0.0,0.0,0.0,0.0,0.0,0.0,0.0,0.0,0.0,0.0,0.0,0.0,0.0,0.0,-2.5303,-2.5687,-2.6563,-2.6582,-2.7005,-2.7871,-2.789,-2.789,-2.7909,-2.8698,-2.9544,-3.0379,-3.0398,-3.0398,-3.0398,-3.0398,-3.0254,-2.9999,-2.9999,-2.9746,-2.9412,-2.9392,-2.9225,-2.8994,-2.8994,-2.8994,-2.8994,-2.8994,-2.9549,-3.0338,-3.1127,-3.1384,-3.1549,-3.2339,-3.2027,-3.1384,-3.1384,-3.1971,-3.2614,-3.2614,-3.2614,-3.2412,-3.1586,-3.2008,-3.2155,-3.0558,-3.0191,-2.9971,-2.914,-2.8994,-2.925,-3.0081,-3.021,-3.0485,-3.1274,-3.21,-3.2614,-3.2606,-3.3311,-3.3634,-3.3243,-3.2498,-3.1805,-3.1349,-3.0208,-2.9505,-2.9505,-2.9193,-2.8315,-2.6776,-2.71,-2.7132,-2.6708,-2.6708,-2.6708,-2.6708,-2.7469,-2.7806,-2.784,-2.9397,-3.0108,-1.392,0.0,0.0,0.0,0.0,0.0,0.0,0.0,0.0,0.0,0.0,0.0,0.0,0.0,0.0,0.0,0.0,0.0,0.0,0.0,0.0,0.0,0.0,0.0,0.0,0.0,0.0,0.0,0.0,0.0,0.0,-2.5303,-2.5418,-2.5668,-2.5687,-2.6101,-2.6986,-2.6986,-2.7294,-2.789,-2.814,-2.8679,-2.9506,-3.0121,-3.0299,-3.0122,-3.0122,-3.0003,-2.978,-2.9644,-2.9513,-2.9392,-2.9181,-2.9067,-2.8994,-2.8994,-2.8994,-2.9067,-2.9659,-3.0008,-3.0338,-3.1127,-3.1384,-3.1329,-3.1017,-3.1146,-3.1274,-3.0723,-3.1549,-3.2614,-3.2614,-3.2614,-3.254,-3.2302,-3.199,-3.1476,-3.043,-2.9769,-2.9457,-2.9787,-2.9843,-3.0099,-3.0907,-3.1035,-3.1311,-3.2118,-3.2467,-3.2692,-3.299,-3.3216,-3.3214,-3.2745,-3.2206,-3.1777,-3.1638,-3.107,-3.0466,-2.9938,-2.9827,-2.933,-2.8349,-2.8439,-2.8439,-2.8298,-2.8298,-2.8298,-2.8298,-2.8535,-2.8907,-2.9448,-2.9905,-3.0378,0.0,0.0,0.0,0.0,0.0,0.0,0.0,0.0,0.0,0.0,0.0,0.0,0.0,0.0,0.0,0.0,0.0,0.0,0.0,0.0,0.0,0.0,0.0,0.0,0.0,0.0,0.0,0.0,0.0,0.0,0.0,-2.5303,-2.5303,-2.5303,-2.5303,-2.5553,-2.6082,-2.6082,-2.6351,-2.6871,-2.7144,-2.7524,-2.8023,-2.8886,-2.9379,-2.9541,-2.9696,-2.9696,-2.9551,-2.9332,-2.9246,-2.9243,-2.9067,-2.8994,-2.8994,-2.8994,-2.8994,-2.9067,-2.9567,-2.9732,-2.9861,-3.065,-3.0907,-3.0889,-3.0723,-3.1017,-3.1292,-3.0797,-3.1384,-3.2118,-3.2118,-3.2118,-3.221,-3.2522,-3.199,-3.1182,-3.0375,-3.0081,-2.9916,-2.9751,-3.0246,-3.0834,-3.1311,-3.1659,-3.2104,-3.2739,-3.2682,-3.273,-3.3141,-3.3045,-3.2745,-3.2264,-3.1951,-3.1716,-3.1565,-3.1351,-3.1004,-3.0565,-3.0548,-3.0345,-2.9871,-2.9296,-2.9011,-2.9011,-2.9011,-2.9011,-2.9011,-2.9279,-2.9668,-3.0125,-3.0395,-3.0784,0.0,0.0,0.0,0.0,0.0,0.0,0.0,0.0,0.0,0.0,0.0,0.0,0.0,0.0,0.0,0.0,0.0,0.0,0.0,0.0,0.0,0.0,0.0,0.0,0.0,0.0,0.0,0.0,0.0,0.0,0.0,-2.5303,-2.5303,-2.5303,-2.5303,-2.5303,-2.5303,-2.5303,-2.5284,-2.5283,-2.5891,-2.6181,-2.6206,-2.7134,-2.7998,-2.876,-2.9102,-2.9297,-2.9351,-2.9089,-2.8994,-2.8994,-2.8994,-2.8994,-2.8994,-2.8994,-2.8994,-2.8994,-2.8994,-2.8994,-2.9104,-2.9861,-3.0099,-3.0228,-3.0962,-3.1182,-3.1182,-3.1182,-3.1219,-3.1274,-3.1274,-3.1274,-3.1476,-3.221,-3.1825,-3.1072,-3.0265,-3.0723,-3.087,-2.9494,-3.0424,-3.1462,-3.1536,-3.2133,-3.2712,-3.3076,-3.2777,-3.2648,-3.3014,-3.2713,-3.2282,-3.1789,-3.1752,-3.1603,-3.123,-3.119,-3.119,-3.119,-3.119,-3.119,-3.119,-2.9905,-2.9178,-2.9178,-2.9178,-2.9178,-2.9178,-2.9871,-3.0171,-3.0133,-3.0808,-3.1095,0.0,0.0,0.0,0.0,0.0,0.0,0.0,0.0,0.0,0.0,0.0,0.0,0.0,0.0,0.0,0.0,0.0,0.0,0.0,0.0,0.0,0.0,0.0,0.0,0.0,0.0,0.0,0.0,0.0,0.0,-2.5303,-2.5303,-2.5303,-2.5303,-2.5303,-2.5303,-2.5303,-2.5303,-2.5214,0.0,-2.5213,-2.5222,-2.5163,-2.6687,-2.7692,-2.824,-2.819,-2.85,-2.9089,-2.9021,-2.8994,-2.8994,-2.8994,-2.8994,-2.8994,-2.8994,-2.8994,-2.8994,-2.8994,-2.8994,-2.9012,-2.9195,-2.925,-2.9287,-2.9475,-2.9531,-2.9531,-2.9531,-2.9971,-3.0467,-3.0467,-3.0467,-3.0503,-3.0687,-3.0577,-3.0246,-2.9439,-2.9898,-3.054,-3.0834,-3.1409,-3.2071,-3.2716,-3.2637,-3.2549,-3.2631,-3.255,-3.2417,-3.2127,-3.2022,-3.1806,-3.1389,-3.1312,-3.1291,-3.119,-3.119,-3.119,-3.119,-3.119,-3.119,-3.119,-3.0886,-3.0717,-3.0717,-3.0717,-3.0717,-3.0717,-3.0886,-3.074,-3.0245,-3.041,-3.0251,0.0,0.0,0.0,0.0,0.0,0.0,0.0,0.0,0.0,0.0,0.0,0.0,0.0,0.0,0.0,0.0,0.0,0.0,0.0,0.0,0.0,0.0,0.0,0.0,0.0,0.0,0.0,0.0,0.0,-2.5303,-2.5303,-2.5303,-2.5303,-2.5303,-2.5303,-2.5303,-2.5303,-2.5203,-2.5099,-2.501,-2.4845,-2.4663,-2.4566,-2.5916,-2.684,-2.7411,-2.7669,-2.8264,-2.8994,-2.8994,-2.8994,-2.8994,-2.8994,-2.8994,-2.8994,-2.8994,-2.8994,-2.8994,-2.8994,-2.8994,-2.8994,-2.8994,-2.8994,-2.8994,-2.8994,-2.8994,-2.8994,-2.8994,-2.931,-2.9641,-2.9641,-2.9641,-2.9641,-2.9641,-2.9641,-2.9512,-2.9085,-2.9789,-3.0483,-3.0527,-3.1477,-3.225,-3.2268,-3.2219,-3.223,-3.2484,-3.2144,-3.1842,-3.1825,-3.1623,-3.1449,-3.123,-3.119,-3.119,-3.119,-3.119,-3.119,-3.119,-3.119,-3.119,-3.119,-3.119,-3.119,-3.119,-3.119,-3.1055,-3.0781,-3.0781,-3.0477,-2.9848,-2.9848,-2.9717,0.0,0.0,0.0,0.0,0.0,0.0,0.0,0.0,0.0,0.0,0.0,0.0,0.0,0.0,0.0,0.0,0.0,0.0,0.0,0.0,0.0,0.0,0.0,0.0,0.0,0.0,0.0,0.0,0.0,-2.5303,-2.5303,-2.5303,-2.5303,-2.5303,-2.5303,-2.5274,-2.5253,-2.5088,-2.4974,-2.4911,-2.4604,-2.4357,-2.4246,-2.506,-2.5855,-2.6649,-2.7291,-2.8136,-2.8994,-2.8994,-2.8994,-2.8994,-2.8994,-2.8994,-2.8994,-2.8994,-2.8994,-2.8994,-2.8994,-2.8994,-2.8994,-2.8994,-2.8994,-2.8994,-2.8994,-2.8994,-2.8994,-2.8994,-2.8952,-2.8905,-2.8905,-2.8839,-2.8815,-2.8815,-2.8901,-2.9016,-2.9082,-3.0043,-3.0697,-3.0032,-3.1244,-3.2139,-3.1405,-3.1515,-3.1842,-3.2213,-3.1657,-3.1312,-3.166,-3.1411,-3.119,-3.119,-3.119,-3.119,-3.119,-3.119,-3.119,-3.119,-3.119,-3.1151,-3.1055,-3.1055,-3.1015,-3.0878,-3.1015,-3.074,-3.0166,-3.0166,-2.9848,-2.9225,-2.9225,-2.918,0.0,0.0,0.0,0.0,0.0,0.0,0.0,0.0,0.0,0.0,0.0,0.0,0.0,0.0,0.0,0.0,0.0,0.0,0.0,0.0,0.0,0.0,0.0,0.0,0.0,0.0,0.0,0.0,-2.5303,-2.5303,-2.5303,-2.5303,-2.5303,-2.5303,-2.5303,-2.5214,-2.5034,-2.5022,-2.4858,-2.4575,-2.4339,-2.4228,-2.419,-2.4338,-2.5202,-2.6612,-2.6722,-2.7622,-2.8994,-2.8994,-2.8994,-2.8994,-2.8994,-2.8994,-2.8994,-2.8994,-2.8994,-2.8994,-2.8994,-2.8994,-2.8994,-2.8994,-2.8994,-2.8994,-2.8994,-2.8994,-2.8994,-2.8994,-2.8749,-2.8471,-2.8471,-2.8264,-2.8037,-2.8037,-2.8553,-2.9091,-2.9431,-3.0409,-3.1186,-3.108,-3.1529,-3.1771,-3.1291,-3.1261,-3.1291,-3.1351,-3.1252,-3.123,-3.1252,-3.123,-3.119,-3.119,-3.119,-3.119,-3.119,-3.119,-3.119,-3.119,-3.119,-3.0975,-3.0435,-3.0435,-3.0166,-2.9629,-3.0166,-3.0123,-2.954,-2.954,-2.9225,-2.8606,-2.8606,-2.8319,0.0,0.0,0.0,0.0,0.0,0.0,0.0,0.0,0.0,0.0,0.0,0.0,0.0,0.0,0.0,0.0,0.0,0.0,0.0,0.0,0.0,0.0,0.0,0.0,0.0,0.0,0.0,0.0,-2.5303,-2.5303,-2.5303,-2.5303,-2.5253,-2.5141,-2.5122,-2.5053,-2.4891,-2.478,-2.4588,-2.4339,-2.4247,-2.419,-2.419,-2.419,-2.4832,-2.5952,-2.641,-2.7273,-2.8356,-2.8815,-2.8994,-2.8994,-2.8994,-2.8994,-2.8994,-2.8994,-2.8994,-2.8994,-2.8994,-2.8994,-2.8994,-2.8994,-2.8994,-2.8952,-2.8725,-2.8658,-2.8633,-2.843,-2.8255,-2.8129,-2.8129,-2.8312,-2.8505,-2.8505,-2.9224,-2.9924,-3.0135,-3.0565,-3.0976,-3.1199,-3.1342,-3.1411,-3.123,-3.119,-3.119,-3.119,-3.119,-3.119,-3.119,-3.119,-3.119,-3.119,-3.119,-3.119,-3.119,-3.119,-3.119,-3.119,-3.0878,-3.0576,-3.0293,-2.9995,-2.9496,-2.8919,-2.9496,-2.9496,-2.8919,-2.8919,-2.8606,-2.7993,-2.7993,-2.786,0.0,0.0,0.0,0.0,0.0,0.0,0.0,0.0,0.0,0.0,0.0,0.0,0.0,0.0,0.0,0.0,0.0,0.0,0.0,0.0,0.0,0.0,0.0,0.0,0.0,0.0,0.0,0.0,-2.5303,-2.5303,-2.5303,-2.5253,-2.5152,-2.4991,-2.4962,-2.4877,-2.4731,-2.4528,-2.4339,-2.419,-2.419,-2.419,-2.419,-2.419,-2.452,-2.5146,-2.5952,-2.6869,-2.7842,-2.8448,-2.8833,-2.8994,-2.8994,-2.8994,-2.8994,-2.8994,-2.8994,-2.8994,-2.8994,-2.8994,-2.8975,-2.8863,-2.8839,-2.8791,-2.8394,-2.8272,-2.8237,-2.7982,-2.784,-2.7754,-2.7754,-2.8228,-2.8697,-2.8697,-2.9624,-3.0503,-3.0692,-3.0743,-3.0859,-3.115,-3.119,-3.119,-3.119,-3.119,-3.119,-3.119,-3.119,-3.119,-3.119,-3.119,-3.119,-3.119,-3.119,-3.119,-3.119,-3.1055,-3.0975,-3.0975,-3.0393,-2.9978,-2.9848,-2.9406,-2.8873,-2.8271,-2.8732,-2.8732,-2.8271,-2.8271,-2.8042,-2.7625,-2.7625,-2.7625,0.0,0.0,0.0,0.0,0.0,0.0,0.0,0.0,0.0,0.0,0.0,0.0,0.0,0.0,0.0,0.0,0.0,0.0,0.0,0.0,0.0,0.0,0.0,0.0,0.0,0.0,0.0,0.0,-2.5303,-2.5303,-2.5303,-2.5111,-2.501,-2.501,-2.4883,-2.4716,-2.4528,-2.4321,-2.4209,-2.419,-2.419,-2.419,-2.419,-2.419,-2.4226,-2.43,-2.5127,-2.6337,-2.7787,-2.7842,-2.8319,-2.8994,-2.8994,-2.8994,-2.8994,-2.8994,-2.8994,-2.8994,-2.8994,-2.8994,-2.8929,-2.8565,-2.842,-2.8368,-2.802,-2.7926,-2.7926,-2.7897,-2.7636,-2.7317,-2.7317,-2.7602,-2.7842,-2.7842,-2.9028,-3.0332,-3.1026,-3.1162,-3.1179,-3.119,-3.119,-3.119,-3.119,-3.119,-3.119,-3.119,-3.119,-3.119,-3.119,-3.119,-3.119,-3.119,-3.119,-3.119,-3.119,-3.0658,-3.0351,-3.0351,-2.9761,-2.918,-2.8606,-2.8559,-2.8271,-2.766,-2.766,-2.766,-2.7675,-2.7675,-2.7625,-2.7625,-2.7625,-2.7625,0.0,0.0,0.0,0.0,0.0,0.0,0.0,0.0,0.0,0.0,0.0,0.0,0.0,0.0,0.0,0.0,0.0,0.0,0.0,0.0,0.0,0.0,0.0,0.0,0.0,0.0,0.0,0.0,0.0,-2.5234,-2.5111,-2.5163,-2.503,-2.4693,-2.4756,-2.4639,-2.4321,-2.4247,-2.419,-2.419,-2.419,-2.419,-2.419,-2.419,-2.419,-2.4208,-2.4502,-2.5236,-2.6358,-2.7365,-2.797,-2.8282,-2.8792,-2.8994,-2.8994,-2.8994,-2.8994,-2.8994,-2.8994,-2.8839,-2.859,-2.8446,-2.8264,-2.802,-2.7619,-2.75,-2.7439,-2.721,-2.7379,-2.764,-2.764,-2.8438,-2.9414,-2.9871,-3.0395,-3.0869,-3.114,-3.119,-3.119,-3.119,-3.119,-3.119,-3.119,-3.119,-3.119,-3.119,-3.119,-3.119,-3.119,-3.0878,-3.0781,-3.1151,-3.0518,-3.0208,-3.0601,-3.0081,-2.9717,-2.9717,-2.9134,-2.8732,-2.8511,-2.814,-2.781,-2.761,-2.7152,-2.7152,-2.7625,-2.7625,-2.7357,-2.6878,-2.6878,-2.6654,0.0,0.0,0.0,0.0,0.0,0.0,0.0,0.0,0.0,0.0,0.0,0.0,0.0,0.0,0.0,0.0,0.0,0.0,0.0,0.0,0.0,0.0,0.0,0.0,0.0,0.0,0.0,0.0,0.0,0.0,-2.5099,-2.5118,-2.491,-2.4409,-2.4528,-2.4461,-2.419,-2.419,-2.419,-2.419,-2.419,-2.419,-2.419,-2.419,-2.419,-2.419,-2.419,-2.4649,-2.5495,-2.6539,-2.731,-2.7842,-2.8393,-2.8778,-2.8994,-2.8994,-2.8929,-2.8797,-2.8797,-2.854,-2.821,-2.8084,-2.7862,-2.7619,-2.721,-2.7083,-2.7051,-2.6791,-2.7232,-2.7789,-2.7789,-2.8958,-3.0294,-3.1021,-3.1055,-3.0878,-3.0878,-3.0878,-3.0878,-3.0878,-3.074,-3.0658,-3.0878,-3.074,-3.0658,-3.0878,-3.0757,-3.0617,-3.0617,-3.0251,-3.0166,-3.0559,-2.9892,-2.954,-2.9935,-2.9451,-2.9104,-2.9104,-2.8543,-2.8189,-2.8189,-2.781,-2.7458,-2.7255,-2.6774,-2.6616,-2.6864,-2.6864,-2.6602,-2.6122,-2.6122,-2.5728,0.0,0.0,0.0,0.0,0.0,0.0,0.0,0.0,0.0,0.0,0.0,0.0,0.0,0.0,0.0,0.0,0.0,0.0,0.0,0.0,0.0,0.0,0.0,0.0,0.0,0.0,0.0,0.0,-2.5303,-2.5303,-2.5284,-2.4962,-2.4607,-2.4228,-2.4209,-2.419,-2.419,-2.419,-2.419,-2.419,-2.419,-2.419,-2.419,-2.419,-2.419,-2.419,-2.419,-2.463,-2.5384,-2.5403,-2.6319,-2.7769,-2.7787,-2.8282,-2.8994,-2.8994,-2.8725,-2.8394,-2.8394,-2.8156,-2.7811,-2.7426,-2.7303,-2.721,-2.6808,-2.6691,-2.6691,-2.6691,-2.7249,-2.784,-2.7874,-2.8989,-3.0273,-3.0982,-3.0699,-3.0251,-3.0251,-3.0251,-3.0251,-3.0251,-2.9805,-2.9585,-3.0166,-2.9805,-2.9585,-3.0166,-2.9761,-2.9406,-2.9406,-2.9361,-2.9361,-2.9406,-2.9361,-2.9361,-2.9361,-2.8826,-2.8463,-2.8463,-2.7894,-2.7575,-2.7575,-2.7575,-2.7203,-2.6457,-2.6457,-2.6068,-2.5342,-2.5398,-2.5398,-2.5342,-2.5342,-2.4951,-1.2888,0.0,0.0,0.0,0.0,0.0,0.0,0.0,0.0,0.0,0.0,0.0,0.0,0.0,0.0,0.0,0.0,0.0,0.0,0.0,0.0,0.0,0.0,0.0,0.0,0.0,0.0,0.0,-2.5303,-2.5243,-2.5088,-2.4785,-2.4591,-2.4623,-2.4339,-2.419,-2.419,-2.419,-2.419,-2.419,-2.419,-2.419,-2.419,-2.419,-2.419,-2.419,-2.419,-2.4318,-2.4575,-2.5164,-2.6007,-2.6998,-2.7567,-2.8109,-2.8565,-2.8565,-2.8342,-2.802,-2.802,-2.7794,-2.7439,-2.7334,-2.7115,-2.6841,-2.6725,-2.6691,-2.6691,-2.6691,-2.7638,-2.8907,-2.9973,-3.0258,-3.0286,-3.051,-3.0081,-2.9629,-2.9629,-2.9316,-2.9134,-2.9585,-2.9496,-2.9451,-2.9629,-2.9496,-2.9451,-2.9629,-2.9496,-2.9406,-2.9406,-2.9012,-2.8919,-2.9361,-2.8622,-2.8255,-2.8685,-2.8174,-2.786,-2.786,-2.766,-2.7357,-2.6826,-2.6826,-2.6443,-2.5728,-2.5175,-2.4794,-2.4624,-2.5119,-2.5119,-2.4567,-2.3989,-2.3649,0.0,0.0,0.0,0.0,0.0,0.0,0.0,-1.7216,0.0,0.0,0.0,0.0,0.0,0.0,0.0,0.0,0.0,0.0,0.0,0.0,0.0,0.0,0.0,0.0,0.0,-2.5303,-2.5303,-2.5303,-2.5303,-2.5182,-2.493,-2.4727,-2.4591,-2.4543,-2.4321,-2.419,-2.419,-2.419,-2.419,-2.419,-2.419,-2.419,-2.419,-2.419,-2.419,-2.419,-2.4036,-2.3996,-2.4012,-2.4345,-2.5038,-2.5943,-2.6594,-2.7204,-2.7762,-2.8085,-2.7964,-2.7648,-2.7648,-2.7396,-2.7051,-2.7051,-2.6906,-2.6691,-2.6691,-2.6691,-2.6691,-2.6691,-2.7633,-2.8903,-3.0137,-3.0208,-2.9935,-2.9935,-2.9451,-2.8996,-2.8996,-2.8543,-2.8319,-2.8919,-2.881,-2.8717,-2.8996,-2.8826,-2.8717,-2.9012,-2.881,-2.8622,-2.8622,-2.8367,-2.8271,-2.8638,-2.8042,-2.776,-2.8091,-2.781,-2.7458,-2.7152,-2.7137,-2.6826,-2.6068,-2.6068,-2.5673,-2.4951,-2.4509,-2.4118,-2.3826,-2.4221,-2.4221,-2.3767,-2.3305,-2.3078,-1.4099,0.0,0.0,0.0,0.0,0.0,-1.7335,-1.7098,0.0,0.0,0.0,0.0,0.0,0.0,0.0,0.0,0.0,0.0,0.0,0.0,0.0,0.0,0.0,0.0,-2.5303,-2.5303,-2.5303,-2.5303,-2.5303,-2.516,-2.4828,-2.4818,-2.4623,-2.4247,-2.4209,-2.419,-2.419,-2.419,-2.419,-2.419,-2.419,-2.419,-2.419,-2.419,-2.417,-2.4132,-2.3816,-2.3671,-2.3628,-2.3282,-2.3862,-2.5013,-2.5344,-2.6047,-2.6932,-2.7593,-2.756,-2.7224,-2.7224,-2.6987,-2.6691,-2.6691,-2.6691,-2.6691,-2.6691,-2.6657,-2.6657,-2.6741,-2.7371,-2.8225,-2.9171,-2.9361,-2.9316,-2.9316,-2.8826,-2.8415,-2.8415,-2.8008,-2.776,-2.8286,-2.7944,-2.776,-2.8334,-2.7959,-2.776,-2.8319,-2.7944,-2.7625,-2.7625,-2.7625,-2.7575,-2.7509,-2.7458,-2.7458,-2.7357,-2.7357,-2.7086,-2.6404,-2.6404,-2.6068,-2.5287,-2.5287,-2.4951,-2.4176,-2.4176,-2.3826,-2.3078,-2.3078,-2.3078,-2.3078,-2.3078,-2.3078,-1.4101,-1.5254,-1.6328,-1.5781,0.0,0.0,-1.6131,-1.6308,0.0,0.0,0.0,0.0,0.0,0.0,0.0,0.0,0.0,0.0,0.0,0.0,0.0,0.0,0.0,0.0,-2.5274,-2.5303,-2.5303,-2.5303,-2.5303,-2.5203,-2.4974,-2.4869,-2.4685,-2.4444,-2.4284,-2.419,-2.419,-2.419,-2.419,-2.419,-2.419,-2.419,-2.419,-2.419,-2.4036,-2.3795,-2.3714,-2.3544,-2.3259,-2.2947,-2.3821,-2.5372,-2.548,-2.6202,-2.7217,-2.7357,-2.7147,-2.6825,-2.6825,-2.6758,-2.6691,-2.6691,-2.6691,-2.6691,-2.6691,-2.6436,-2.628,-2.6997,-2.7316,-2.7756,-2.9083,-2.9042,-2.8701,-2.8701,-2.8222,-2.776,-2.776,-2.766,-2.761,-2.776,-2.766,-2.7625,-2.776,-2.7675,-2.7625,-2.776,-2.7675,-2.7625,-2.7625,-2.7625,-2.7357,-2.6774,-2.6721,-2.6443,-2.5892,-2.5837,-2.5783,-2.5618,-2.5618,-2.5287,-2.4567,-2.4509,-2.4163,-2.3365,-2.3305,-2.3258,-2.3078,-2.3078,-2.3078,-2.3078,-2.3078,-2.3078,-1.4863,-1.5391,-1.6055,-1.6055,0.0,0.0,0.0,0.0,0.0,0.0,0.0,0.0,0.0,0.0,0.0,0.0,0.0,0.0,0.0,0.0,0.0,0.0,0.0,0.0,-2.5102,-2.5084,-2.5056,-2.5056,-2.5056,-2.4962,-2.4747,-2.4682,-2.4561,-2.4357,-2.4247,-2.419,-2.419,-2.419,-2.419,-2.419,-2.419,-2.419,-2.419,-2.419,-2.4016,-2.3692,-2.3522,-2.3259,-2.2923,-2.2599,-2.3261,-2.4479,-2.4843,-2.5592,-2.649,-2.6867,-2.6873,-2.6691,-2.6691,-2.6691,-2.6691,-2.6691,-2.6556,-2.6367,-2.6367,-2.6244,-2.6186,-2.6714,-2.7079,-2.7554,-2.8311,-2.8271,-2.8042,-2.8042,-2.781,-2.7625,-2.7625,-2.7306,-2.7034,-2.7034,-2.6759,-2.6759,-2.7458,-2.7306,-2.7034,-2.7034,-2.6759,-2.6481,-2.6481,-2.6481,-2.6375,-2.6014,-2.596,-2.5783,-2.5453,-2.5398,-2.5231,-2.4851,-2.4851,-2.4509,-2.3708,-2.3708,-2.3543,-2.3138,-2.3078,-2.2884,-2.2506,-2.2506,-2.2506,-2.2506,-2.2063,-2.1865,0.0,0.0,0.0,0.0,0.0,-1.6191,0.0,0.0,0.0,0.0,0.0,0.0,0.0,0.0,0.0,0.0,0.0,0.0,0.0,0.0,0.0,0.0,0.0,0.0,0.0,-2.4403,-2.437,-2.454,-2.4559,-2.4546,-2.4493,-2.4495,-2.441,-2.4209,-2.419,-2.419,-2.419,-2.419,-2.419,-2.419,-2.419,-2.419,-2.419,-2.4113,-2.3917,-2.3588,-2.3236,-2.2923,-2.2599,-2.2388,-2.2733,-2.346,-2.4218,-2.4949,-2.5693,-2.642,-2.6691,-2.6691,-2.659,-2.659,-2.6556,-2.6419,-2.6139,-2.5815,-2.5726,-2.585,-2.6088,-2.6192,-2.6734,-2.7284,-2.7545,-2.7625,-2.756,-2.7408,-2.7408,-2.7357,-2.7188,-2.6707,-2.6283,-2.6283,-2.5783,-2.5783,-2.6967,-2.6654,-2.6283,-2.6283,-2.5783,-2.5398,-2.5398,-2.5398,-2.5342,-2.5175,-2.5175,-2.5119,-2.4951,-2.4951,-2.4724,-2.4118,-2.406,-2.3767,-2.3138,-2.3078,-2.3005,-2.2884,-2.2884,-2.2445,-2.1616,-2.1491,-2.1491,-2.1628,-2.091,-2.059,0.0,0.0,0.0,0.0,-1.7793,0.0,0.0,0.0,0.0,0.0,0.0,0.0,0.0,0.0,0.0,0.0,0.0,0.0,0.0,0.0,0.0,0.0,0.0,0.0,0.0,-2.2702,-2.2886,-2.3591,-2.3647,-2.3888,-2.4474,-2.4495,-2.441,-2.4209,-2.419,-2.419,-2.419,-2.419,-2.419,-2.419,-2.419,-2.419,-2.419,-2.3896,-2.3566,-2.3236,-2.2898,-2.2616,-2.2349,-2.231,-2.2733,-2.346,-2.4218,-2.4949,-2.5693,-2.642,-2.6691,-2.6657,-2.6227,-2.6085,-2.5997,-2.5524,-2.5335,-2.5221,-2.4752,-2.501,-2.5512,-2.5636,-2.6174,-2.6834,-2.7445,-2.7625,-2.7458,-2.6774,-2.6616,-2.6443,-2.5783,-2.5563,-2.5508,-2.5508,-2.5453,-2.5453,-2.5618,-2.5563,-2.5508,-2.5508,-2.5453,-2.5398,-2.5398,-2.5398,-2.5119,-2.4509,-2.4408,-2.4118,-2.3412,-2.3365,-2.3305,-2.3245,-2.3258,-2.3198,-2.3078,-2.3078,-2.2763,-2.2063,-2.2075,-2.1616,-2.0719,-1.9944,-2.0009,-2.0719,-2.0655,-2.059,0.0,0.0,0.0,0.0,0.0,0.0,-1.6406,0.0,-1.5976,0.0,0.0,0.0,0.0,0.0,0.0,0.0,0.0,0.0,0.0,0.0,0.0,0.0,0.0,0.0,0.0,0.0,0.0,0.0,-2.2954,-2.3333,-2.3619,-2.4081,-2.4284,-2.419,-2.419,-2.419,-2.419,-2.419,-2.419,-2.4208,-2.3996,-2.3917,-2.3896,-2.3566,-2.323,-2.2898,-2.2772,-2.2537,-2.231,-2.231,-2.232,-2.2465,-2.3597,-2.4676,-2.5661,-2.6133,-2.6297,-2.621,-2.5726,-2.554,-2.5449,-2.491,-2.4752,-2.4632,-2.4116,-2.468,-2.5546,-2.5571,-2.6056,-2.6594,-2.6872,-2.6654,-2.6269,-2.596,-2.5837,-2.5783,-2.5453,-2.5063,-2.4738,-2.4738,-2.4381,-2.4047,-2.4047,-2.4439,-2.4738,-2.4738,-2.4381,-2.4047,-2.4047,-2.4047,-2.393,-2.3662,-2.359,-2.3484,-2.3138,-2.3078,-2.3078,-2.3078,-2.3078,-2.2884,-2.2445,-2.2384,-2.2002,-2.1164,-2.1175,-2.0719,-1.9814,-1.9497,-1.9243,-1.911,-1.911,-1.911,-1.8887,0.0,0.0,0.0,0.0,0.0,0.0,0.0,0.0,0.0,0.0,0.0,0.0,0.0,0.0,0.0,0.0,0.0,0.0,0.0,0.0,0.0,0.0,0.0,0.0,0.0,0.0,0.0,0.0,-2.252,-2.2997,-2.3547,-2.3969,-2.419,-2.419,-2.419,-2.419,-2.4113,-2.4074,-2.4074,-2.3714,-2.3566,-2.3544,-2.323,-2.2923,-2.2695,-2.2608,-2.249,-2.2282,-2.2163,-2.1899,-2.173,-2.3031,-2.4099,-2.4996,-2.5579,-2.5762,-2.5689,-2.5182,-2.4894,-2.4712,-2.4307,-2.4184,-2.4116,-2.3724,-2.4537,-2.5523,-2.5188,-2.5754,-2.6414,-2.6069,-2.5656,-2.5342,-2.5119,-2.5119,-2.5063,-2.4838,-2.4337,-2.3943,-2.3943,-2.3484,-2.3078,-2.3078,-2.3603,-2.3943,-2.3943,-2.3484,-2.3078,-2.3078,-2.3078,-2.3078,-2.3078,-2.3078,-2.3078,-2.3078,-2.3078,-2.3017,-2.2763,-2.2763,-2.2384,-2.1553,-2.1553,-2.1101,-2.0268,-2.0268,-1.9814,-1.8911,-1.8911,-1.8586,-1.8008,-1.8008,-1.7862,0.0,0.0,0.0,-1.8418,0.0,0.0,0.0,0.0,-1.668,0.0,0.0,0.0,0.0,0.0,0.0,0.0,0.0,0.0,0.0,0.0,0.0,0.0,0.0,0.0,0.0,0.0,0.0,0.0,0.0,0.0,-2.2905,-2.3015,-2.34,-2.4171,-2.419,-2.419,-2.419,-2.3876,-2.3714,-2.3714,-2.3369,-2.323,-2.3189,-2.2873,-2.2721,-2.2695,-2.2426,-2.231,-2.2254,-2.1794,-2.1612,-2.1699,-2.273,-2.3154,-2.3346,-2.4708,-2.5221,-2.5144,-2.4632,-2.4074,-2.3638,-2.3638,-2.3638,-2.3638,-2.3595,-2.4537,-2.5325,-2.4098,-2.5091,-2.6193,-2.4905,-2.4996,-2.5231,-2.4509,-2.435,-2.4118,-2.3365,-2.3138,-2.3125,-2.3125,-2.3138,-2.3078,-2.3078,-2.3138,-2.3125,-2.3125,-2.3138,-2.3078,-2.3078,-2.3078,-2.3078,-2.3078,-2.3078,-2.3078,-2.3078,-2.3078,-2.2763,-2.2002,-2.1939,-2.1553,-2.0655,-2.0655,-2.0204,-1.9365,-1.9365,-1.8911,-1.8008,-1.8008,-1.8008,-1.8008,-1.8008,-1.7501,0.0,0.0,-2.0345,-1.9784,0.0,0.0,0.0,0.0,0.0,0.0,0.0,0.0,0.0,0.0,0.0,0.0,0.0,0.0,0.0,0.0,0.0,0.0,0.0,0.0,0.0,0.0,0.0,0.0,-1.9898,0.0,0.0,-2.219,-2.2785,-2.3075,-2.3379,-2.3544,-2.3544,-2.3414,-2.3369,-2.3369,-2.3021,-2.2873,-2.2873,-2.2581,-2.2453,-2.2426,-2.2349,-2.2106,-2.1823,-2.1658,-2.1259,-2.0827,-2.1604,-2.2024,-2.2386,-2.4053,-2.4672,-2.4576,-2.4074,-2.3752,-2.3551,-2.3143,-2.3009,-2.292,-2.2469,-2.2975,-2.3652,-2.3617,-2.4055,-2.4436,-2.4375,-2.4121,-2.3813,-2.3603,-2.3484,-2.3424,-2.3138,-2.3078,-2.3078,-2.3078,-2.3078,-2.3078,-2.3078,-2.3078,-2.3078,-2.3078,-2.3078,-2.3078,-2.3078,-2.3078,-2.3078,-2.3078,-2.2628,-2.2322,-2.2322,-2.1803,-2.1353,-2.1037,-2.1049,-2.0655,-1.9759,-1.9759,-1.9299,-1.8462,-1.8462,-1.8269,-1.8008,-1.7364,-1.707,-1.707,-1.6437,-1.6298,-2.1515,-2.1325,0.0,-2.0912,-2.0087,0.0,-1.782,0.0,0.0,0.0,0.0,0.0,0.0,0.0,0.0,0.0,0.0,0.0,0.0,0.0,0.0,0.0,0.0,0.0,0.0,0.0,-1.861,-1.8533,-1.9234,0.0,0.0,0.0,-2.2211,-2.2499,-2.2977,-2.3189,-2.3189,-2.3069,-2.3021,-2.3021,-2.2704,-2.2563,-2.2563,-2.2388,-2.2209,-2.2032,-2.2032,-2.1794,-2.1368,-2.1197,-2.0797,-2.0342,-2.0875,-2.1334,-2.1854,-2.3275,-2.3793,-2.3764,-2.3406,-2.3128,-2.2846,-2.2483,-2.2346,-2.2296,-2.2082,-2.2484,-2.3013,-2.3169,-2.3433,-2.3695,-2.3592,-2.3331,-2.3078,-2.3078,-2.3078,-2.3078,-2.3078,-2.3078,-2.3078,-2.3078,-2.2884,-2.2689,-2.2689,-2.2445,-2.2433,-2.3005,-2.2884,-2.2689,-2.2689,-2.2372,-2.2175,-2.2175,-2.1741,-2.1428,-2.1428,-2.091,-2.0462,-2.0139,-2.0139,-1.9759,-1.8854,-1.8854,-1.8586,-1.8008,-1.8008,-1.7862,-1.7501,-1.6922,-1.6428,-1.607,-1.5084,-1.5021]}]]